<?xml version='1.0' encoding='UTF-8'?>
<gpx version="1.1" creator="https://www.komoot.de" xmlns="http://www.topografix.com/GPX/1/1" xmlns:xsi="http://www.w3.org/2001/XMLSchema-instance" xsi:schemaLocation="http://www.topografix.com/GPX/1/1 http://www.topografix.com/GPX/1/1/gpx.xsd">
  <metadata>
    <name>59_800MurgHarpHuetten</name>
    <author>
      <link href="https://www.komoot.de">
        <text>komoot</text>
        <type>text/html</type>
      </link>
    </author>
  </metadata>
  <trk>
    <name>59_800MurgHarpHuetten</name>
    <trkseg>
      <trkpt lat="47.541808" lon="7.871061">
        <ele>342.386837</ele>
        <time>2021-11-15T19:51:53.144Z</time>
      </trkpt>
      <trkpt lat="47.541953" lon="7.871286">
        <ele>342.386837</ele>
        <time>2021-11-15T19:51:57.799Z</time>
      </trkpt>
      <trkpt lat="47.542039" lon="7.871556">
        <ele>342.386837</ele>
        <time>2021-11-15T19:52:02.517Z</time>
      </trkpt>
      <trkpt lat="47.542067" lon="7.871664">
        <ele>342.386837</ele>
        <time>2021-11-15T19:52:04.279Z</time>
      </trkpt>
      <trkpt lat="47.542091" lon="7.871721">
        <ele>342.386837</ele>
        <time>2021-11-15T19:52:04.931Z</time>
      </trkpt>
      <trkpt lat="47.542218" lon="7.871866">
        <ele>342.386837</ele>
        <time>2021-11-15T19:52:10.292Z</time>
      </trkpt>
      <trkpt lat="47.542394" lon="7.872341">
        <ele>343.183628</ele>
        <time>2021-11-15T19:52:20.924Z</time>
      </trkpt>
      <trkpt lat="47.542436" lon="7.872494">
        <ele>343.732817</ele>
        <time>2021-11-15T19:52:24.503Z</time>
      </trkpt>
      <trkpt lat="47.542537" lon="7.872430">
        <ele>344.273915</ele>
        <time>2021-11-15T19:52:26.717Z</time>
      </trkpt>
      <trkpt lat="47.542714" lon="7.872334">
        <ele>345.202360</ele>
        <time>2021-11-15T19:52:33.781Z</time>
      </trkpt>
      <trkpt lat="47.542814" lon="7.872280">
        <ele>345.726634</ele>
        <time>2021-11-15T19:52:36.831Z</time>
      </trkpt>
      <trkpt lat="47.542919" lon="7.872226">
        <ele>346.274112</ele>
        <time>2021-11-15T19:52:40.694Z</time>
      </trkpt>
      <trkpt lat="47.543013" lon="7.872182">
        <ele>346.759691</ele>
        <time>2021-11-15T19:52:44.133Z</time>
      </trkpt>
      <trkpt lat="47.543233" lon="7.872082">
        <ele>347.893207</ele>
        <time>2021-11-15T19:52:51.439Z</time>
      </trkpt>
      <trkpt lat="47.543251" lon="7.872152">
        <ele>348.142273</ele>
        <time>2021-11-15T19:52:54.812Z</time>
      </trkpt>
      <trkpt lat="47.543317" lon="7.872220">
        <ele>348.538264</ele>
        <time>2021-11-15T19:52:57.303Z</time>
      </trkpt>
      <trkpt lat="47.543332" lon="7.872237">
        <ele>348.631292</ele>
        <time>2021-11-15T19:52:58.118Z</time>
      </trkpt>
      <trkpt lat="47.544390" lon="7.872423">
        <ele>354.833768</ele>
        <time>2021-11-15T19:53:39.672Z</time>
      </trkpt>
      <trkpt lat="47.544883" lon="7.872555">
        <ele>358.196135</ele>
        <time>2021-11-15T19:54:02.246Z</time>
      </trkpt>
      <trkpt lat="47.545051" lon="7.872629">
        <ele>359.372447</ele>
        <time>2021-11-15T19:54:08.764Z</time>
      </trkpt>
      <trkpt lat="47.545131" lon="7.872664">
        <ele>359.932289</ele>
        <time>2021-11-15T19:54:13.251Z</time>
      </trkpt>
      <trkpt lat="47.545375" lon="7.872836">
        <ele>361.745824</ele>
        <time>2021-11-15T19:54:23.807Z</time>
      </trkpt>
      <trkpt lat="47.545478" lon="7.872968">
        <ele>362.659866</ele>
        <time>2021-11-15T19:54:30.708Z</time>
      </trkpt>
      <trkpt lat="47.545515" lon="7.873015">
        <ele>362.986977</ele>
        <time>2021-11-15T19:54:32.615Z</time>
      </trkpt>
      <trkpt lat="47.545746" lon="7.873302">
        <ele>364.747727</ele>
        <time>2021-11-15T19:54:45.224Z</time>
      </trkpt>
      <trkpt lat="47.545934" lon="7.873549">
        <ele>366.172472</ele>
        <time>2021-11-15T19:54:54.431Z</time>
      </trkpt>
      <trkpt lat="47.546077" lon="7.873763">
        <ele>367.324950</ele>
        <time>2021-11-15T19:55:03.158Z</time>
      </trkpt>
      <trkpt lat="47.546135" lon="7.873859">
        <ele>367.818041</ele>
        <time>2021-11-15T19:55:05.916Z</time>
      </trkpt>
      <trkpt lat="47.546309" lon="7.874154">
        <ele>369.317383</ele>
        <time>2021-11-15T19:55:17.588Z</time>
      </trkpt>
      <trkpt lat="47.547126" lon="7.875801">
        <ele>375.218221</ele>
        <time>2021-11-15T19:56:02.104Z</time>
      </trkpt>
      <trkpt lat="47.547126" lon="7.875801">
        <ele>375.218221</ele>
        <time>2021-11-15T19:56:02.438Z</time>
      </trkpt>
      <trkpt lat="47.547574" lon="7.876801">
        <ele>377.375722</ele>
        <time>2021-11-15T19:56:21.556Z</time>
      </trkpt>
      <trkpt lat="47.547992" lon="7.877974">
        <ele>377.119375</ele>
        <time>2021-11-15T19:56:36.231Z</time>
      </trkpt>
      <trkpt lat="47.548234" lon="7.878638">
        <ele>376.011907</ele>
        <time>2021-11-15T19:56:41.535Z</time>
      </trkpt>
      <trkpt lat="47.548422" lon="7.878959">
        <ele>375.388189</ele>
        <time>2021-11-15T19:56:44.372Z</time>
      </trkpt>
      <trkpt lat="47.548718" lon="7.879258">
        <ele>374.609238</ele>
        <time>2021-11-15T19:56:47.906Z</time>
      </trkpt>
      <trkpt lat="47.549140" lon="7.879391">
        <ele>372.987429</ele>
        <time>2021-11-15T19:56:52.091Z</time>
      </trkpt>
      <trkpt lat="47.549318" lon="7.879398">
        <ele>372.234819</ele>
        <time>2021-11-15T19:56:53.717Z</time>
      </trkpt>
      <trkpt lat="47.549327" lon="7.879547">
        <ele>371.808052</ele>
        <time>2021-11-15T19:56:54.707Z</time>
      </trkpt>
      <trkpt lat="47.549419" lon="7.879834">
        <ele>370.901650</ele>
        <time>2021-11-15T19:56:56.749Z</time>
      </trkpt>
      <trkpt lat="47.549726" lon="7.880786">
        <ele>367.891733</ele>
        <time>2021-11-15T19:57:03.639Z</time>
      </trkpt>
      <trkpt lat="47.549927" lon="7.881490">
        <ele>365.895993</ele>
        <time>2021-11-15T19:57:08.676Z</time>
      </trkpt>
      <trkpt lat="47.550234" lon="7.883221">
        <ele>361.662649</ele>
        <time>2021-11-15T19:57:21.097Z</time>
      </trkpt>
      <trkpt lat="47.550332" lon="7.884727">
        <ele>357.180807</ele>
        <time>2021-11-15T19:57:30.927Z</time>
      </trkpt>
      <trkpt lat="47.550391" lon="7.885109">
        <ele>355.905965</ele>
        <time>2021-11-15T19:57:33.460Z</time>
      </trkpt>
      <trkpt lat="47.550548" lon="7.885799">
        <ele>353.537142</ele>
        <time>2021-11-15T19:57:38.065Z</time>
      </trkpt>
      <trkpt lat="47.550677" lon="7.886476">
        <ele>351.113878</ele>
        <time>2021-11-15T19:57:42.499Z</time>
      </trkpt>
      <trkpt lat="47.550703" lon="7.886736">
        <ele>350.057335</ele>
        <time>2021-11-15T19:57:44.137Z</time>
      </trkpt>
      <trkpt lat="47.550758" lon="7.887295">
        <ele>347.786548</ele>
        <time>2021-11-15T19:57:47.638Z</time>
      </trkpt>
      <trkpt lat="47.550789" lon="7.887816">
        <ele>345.684140</ele>
        <time>2021-11-15T19:57:50.869Z</time>
      </trkpt>
      <trkpt lat="47.550831" lon="7.888611">
        <ele>342.478673</ele>
        <time>2021-11-15T19:57:55.829Z</time>
      </trkpt>
      <trkpt lat="47.550833" lon="7.889069">
        <ele>340.633933</ele>
        <time>2021-11-15T19:57:58.638Z</time>
      </trkpt>
      <trkpt lat="47.550915" lon="7.890600">
        <ele>334.412340</ele>
        <time>2021-11-15T19:58:08.037Z</time>
      </trkpt>
      <trkpt lat="47.550904" lon="7.891725">
        <ele>330.086848</ele>
        <time>2021-11-15T19:58:15.040Z</time>
      </trkpt>
      <trkpt lat="47.550892" lon="7.893176">
        <ele>327.188815</ele>
        <time>2021-11-15T19:58:24.653Z</time>
      </trkpt>
      <trkpt lat="47.550908" lon="7.894308">
        <ele>324.963337</ele>
        <time>2021-11-15T19:58:33.858Z</time>
      </trkpt>
      <trkpt lat="47.550878" lon="7.895158">
        <ele>324.227111</ele>
        <time>2021-11-15T19:58:41.043Z</time>
      </trkpt>
      <trkpt lat="47.550838" lon="7.895509">
        <ele>323.919210</ele>
        <time>2021-11-15T19:58:44.207Z</time>
      </trkpt>
      <trkpt lat="47.550750" lon="7.895879">
        <ele>323.579883</ele>
        <time>2021-11-15T19:58:47.716Z</time>
      </trkpt>
      <trkpt lat="47.550660" lon="7.896255">
        <ele>323.234807</ele>
        <time>2021-11-15T19:58:50.788Z</time>
      </trkpt>
      <trkpt lat="47.550639" lon="7.896345">
        <ele>323.152439</ele>
        <time>2021-11-15T19:58:51.975Z</time>
      </trkpt>
      <trkpt lat="47.550648" lon="7.896481">
        <ele>323.034239</ele>
        <time>2021-11-15T19:58:52.930Z</time>
      </trkpt>
      <trkpt lat="47.550819" lon="7.898109">
        <ele>319.771655</ele>
        <time>2021-11-15T19:59:04.678Z</time>
      </trkpt>
      <trkpt lat="47.550801" lon="7.900244">
        <ele>314.459377</ele>
        <time>2021-11-15T19:59:18.515Z</time>
      </trkpt>
      <trkpt lat="47.550769" lon="7.901362">
        <ele>311.349348</ele>
        <time>2021-11-15T19:59:25.787Z</time>
      </trkpt>
      <trkpt lat="47.550757" lon="7.901591">
        <ele>310.710978</ele>
        <time>2021-11-15T19:59:27.923Z</time>
      </trkpt>
      <trkpt lat="47.550688" lon="7.902451">
        <ele>308.372402</ele>
        <time>2021-11-15T19:59:36.357Z</time>
      </trkpt>
      <trkpt lat="47.550498" lon="7.903445">
        <ele>305.768313</ele>
        <time>2021-11-15T19:59:46.608Z</time>
      </trkpt>
      <trkpt lat="47.550302" lon="7.904164">
        <ele>303.813704</ele>
        <time>2021-11-15T19:59:53.867Z</time>
      </trkpt>
      <trkpt lat="47.550025" lon="7.904774">
        <ele>302.003548</ele>
        <time>2021-11-15T20:00:00.792Z</time>
      </trkpt>
      <trkpt lat="47.549868" lon="7.905010">
        <ele>301.267773</ele>
        <time>2021-11-15T20:00:03.924Z</time>
      </trkpt>
      <trkpt lat="47.549867" lon="7.905155">
        <ele>300.945794</ele>
        <time>2021-11-15T20:00:05.321Z</time>
      </trkpt>
      <trkpt lat="47.550067" lon="7.905245">
        <ele>300.258160</ele>
        <time>2021-11-15T20:00:08.246Z</time>
      </trkpt>
      <trkpt lat="47.550283" lon="7.905413">
        <ele>299.455607</ele>
        <time>2021-11-15T20:00:11.696Z</time>
      </trkpt>
      <trkpt lat="47.550497" lon="7.905558">
        <ele>298.681468</ele>
        <time>2021-11-15T20:00:15.054Z</time>
      </trkpt>
      <trkpt lat="47.549539" lon="7.908625">
        <ele>293.085346</ele>
        <time>2021-11-15T20:00:39.515Z</time>
      </trkpt>
      <trkpt lat="47.549520" lon="7.908678">
        <ele>293.000726</ele>
        <time>2021-11-15T20:00:40.028Z</time>
      </trkpt>
      <trkpt lat="47.549280" lon="7.909473">
        <ele>292.134930</ele>
        <time>2021-11-15T20:00:47.101Z</time>
      </trkpt>
      <trkpt lat="47.549222" lon="7.909664">
        <ele>291.961909</ele>
        <time>2021-11-15T20:00:48.860Z</time>
      </trkpt>
      <trkpt lat="47.549195" lon="7.909756">
        <ele>291.879033</ele>
        <time>2021-11-15T20:00:49.643Z</time>
      </trkpt>
      <trkpt lat="47.549102" lon="7.910058">
        <ele>291.604806</ele>
        <time>2021-11-15T20:00:52.364Z</time>
      </trkpt>
      <trkpt lat="47.549012" lon="7.910340">
        <ele>291.347111</ele>
        <time>2021-11-15T20:00:54.862Z</time>
      </trkpt>
      <trkpt lat="47.548412" lon="7.912168">
        <ele>289.850349</ele>
        <time>2021-11-15T20:01:11.181Z</time>
      </trkpt>
      <trkpt lat="47.548027" lon="7.913334">
        <ele>289.029504</ele>
        <time>2021-11-15T20:01:21.942Z</time>
      </trkpt>
      <trkpt lat="47.547994" lon="7.913433">
        <ele>288.959681</ele>
        <time>2021-11-15T20:01:22.863Z</time>
      </trkpt>
      <trkpt lat="47.547423" lon="7.915080">
        <ele>288.711403</ele>
        <time>2021-11-15T20:01:40.339Z</time>
      </trkpt>
      <trkpt lat="47.547113" lon="7.915971">
        <ele>288.679199</ele>
        <time>2021-11-15T20:01:50.787Z</time>
      </trkpt>
      <trkpt lat="47.547091" lon="7.916039">
        <ele>288.676776</ele>
        <time>2021-11-15T20:01:51.811Z</time>
      </trkpt>
      <trkpt lat="47.547032" lon="7.916218">
        <ele>288.726878</ele>
        <time>2021-11-15T20:01:54.014Z</time>
      </trkpt>
      <trkpt lat="47.546821" lon="7.916867">
        <ele>288.976345</ele>
        <time>2021-11-15T20:02:02.123Z</time>
      </trkpt>
      <trkpt lat="47.546262" lon="7.919081">
        <ele>289.762113</ele>
        <time>2021-11-15T20:02:29.634Z</time>
      </trkpt>
      <trkpt lat="47.546128" lon="7.919617">
        <ele>289.927046</ele>
        <time>2021-11-15T20:02:35.103Z</time>
      </trkpt>
      <trkpt lat="47.545973" lon="7.920313">
        <ele>290.138530</ele>
        <time>2021-11-15T20:02:43.566Z</time>
      </trkpt>
      <trkpt lat="47.545913" lon="7.920765">
        <ele>290.271457</ele>
        <time>2021-11-15T20:02:47.739Z</time>
      </trkpt>
      <trkpt lat="47.545881" lon="7.921096">
        <ele>290.371602</ele>
        <time>2021-11-15T20:02:51.756Z</time>
      </trkpt>
      <trkpt lat="47.545810" lon="7.921755">
        <ele>291.236253</ele>
        <time>2021-11-15T20:03:00.664Z</time>
      </trkpt>
      <trkpt lat="47.545778" lon="7.921947">
        <ele>291.492492</ele>
        <time>2021-11-15T20:03:04.273Z</time>
      </trkpt>
      <trkpt lat="47.545714" lon="7.922249">
        <ele>291.902615</ele>
        <time>2021-11-15T20:03:07.472Z</time>
      </trkpt>
      <trkpt lat="47.545699" lon="7.922325">
        <ele>292.005209</ele>
        <time>2021-11-15T20:03:08.669Z</time>
      </trkpt>
      <trkpt lat="47.545690" lon="7.922369">
        <ele>292.064778</ele>
        <time>2021-11-15T20:03:10.768Z</time>
      </trkpt>
      <trkpt lat="47.545641" lon="7.922610">
        <ele>292.390892</ele>
        <time>2021-11-15T20:03:13.121Z</time>
      </trkpt>
      <trkpt lat="47.545587" lon="7.922895">
        <ele>292.774430</ele>
        <time>2021-11-15T20:03:18.918Z</time>
      </trkpt>
      <trkpt lat="47.545553" lon="7.923142">
        <ele>293.101048</ele>
        <time>2021-11-15T20:03:21.564Z</time>
      </trkpt>
      <trkpt lat="47.545536" lon="7.923407">
        <ele>293.445948</ele>
        <time>2021-11-15T20:03:27.454Z</time>
      </trkpt>
      <trkpt lat="47.545521" lon="7.923709">
        <ele>293.856434</ele>
        <time>2021-11-15T20:03:31.608Z</time>
      </trkpt>
      <trkpt lat="47.545481" lon="7.924396">
        <ele>295.607029</ele>
        <time>2021-11-15T20:03:46.211Z</time>
      </trkpt>
      <trkpt lat="47.545466" lon="7.924880">
        <ele>296.837078</ele>
        <time>2021-11-15T20:03:57.518Z</time>
      </trkpt>
      <trkpt lat="47.545446" lon="7.925350">
        <ele>298.032659</ele>
        <time>2021-11-15T20:04:07.892Z</time>
      </trkpt>
      <trkpt lat="47.545417" lon="7.925848">
        <ele>299.301652</ele>
        <time>2021-11-15T20:04:18.371Z</time>
      </trkpt>
      <trkpt lat="47.545409" lon="7.926773">
        <ele>300.914426</ele>
        <time>2021-11-15T20:04:35.572Z</time>
      </trkpt>
      <trkpt lat="47.545407" lon="7.927001">
        <ele>301.093740</ele>
        <time>2021-11-15T20:04:39.381Z</time>
      </trkpt>
      <trkpt lat="47.545406" lon="7.927306">
        <ele>301.333594</ele>
        <time>2021-11-15T20:04:43.986Z</time>
      </trkpt>
      <trkpt lat="47.545421" lon="7.927686">
        <ele>301.632936</ele>
        <time>2021-11-15T20:04:49.521Z</time>
      </trkpt>
      <trkpt lat="47.545475" lon="7.928419">
        <ele>302.212788</ele>
        <time>2021-11-15T20:04:58.839Z</time>
      </trkpt>
      <trkpt lat="47.545563" lon="7.929641">
        <ele>301.867729</ele>
        <time>2021-11-15T20:05:08.718Z</time>
      </trkpt>
      <trkpt lat="47.545661" lon="7.930955">
        <ele>300.177816</ele>
        <time>2021-11-15T20:05:18.114Z</time>
      </trkpt>
      <trkpt lat="47.545696" lon="7.931497">
        <ele>299.481812</ele>
        <time>2021-11-15T20:05:22.083Z</time>
      </trkpt>
      <trkpt lat="47.545721" lon="7.931992">
        <ele>299.146223</ele>
        <time>2021-11-15T20:05:25.876Z</time>
      </trkpt>
      <trkpt lat="47.545724" lon="7.932758">
        <ele>298.853853</ele>
        <time>2021-11-15T20:05:32.085Z</time>
      </trkpt>
      <trkpt lat="47.545702" lon="7.933290">
        <ele>298.650419</ele>
        <time>2021-11-15T20:05:36.728Z</time>
      </trkpt>
      <trkpt lat="47.545674" lon="7.933625">
        <ele>298.521581</ele>
        <time>2021-11-15T20:05:39.928Z</time>
      </trkpt>
      <trkpt lat="47.545457" lon="7.935110">
        <ele>298.996273</ele>
        <time>2021-11-15T20:05:58.063Z</time>
      </trkpt>
      <trkpt lat="47.545074" lon="7.936484">
        <ele>300.329813</ele>
        <time>2021-11-15T20:06:19.590Z</time>
      </trkpt>
      <trkpt lat="47.544903" lon="7.936917">
        <ele>300.827009</ele>
        <time>2021-11-15T20:06:26.907Z</time>
      </trkpt>
      <trkpt lat="47.544705" lon="7.937395">
        <ele>301.508479</ele>
        <time>2021-11-15T20:06:35.091Z</time>
      </trkpt>
      <trkpt lat="47.544472" lon="7.937932">
        <ele>302.284179</ele>
        <time>2021-11-15T20:06:44.498Z</time>
      </trkpt>
      <trkpt lat="47.543826" lon="7.939433">
        <ele>304.376136</ele>
        <time>2021-11-15T20:07:11.593Z</time>
      </trkpt>
      <trkpt lat="47.543435" lon="7.940670">
        <ele>305.826047</ele>
        <time>2021-11-15T20:07:31.575Z</time>
      </trkpt>
      <trkpt lat="47.543360" lon="7.941091">
        <ele>306.288244</ele>
        <time>2021-11-15T20:07:37.624Z</time>
      </trkpt>
      <trkpt lat="47.543161" lon="7.942213">
        <ele>306.680858</ele>
        <time>2021-11-15T20:07:52.555Z</time>
      </trkpt>
      <trkpt lat="47.543007" lon="7.943867">
        <ele>306.610133</ele>
        <time>2021-11-15T20:08:08.191Z</time>
      </trkpt>
      <trkpt lat="47.542938" lon="7.944900">
        <ele>305.314366</ele>
        <time>2021-11-15T20:08:16.349Z</time>
      </trkpt>
      <trkpt lat="47.542913" lon="7.945267">
        <ele>304.723778</ele>
        <time>2021-11-15T20:08:18.974Z</time>
      </trkpt>
      <trkpt lat="47.542872" lon="7.945781">
        <ele>303.895086</ele>
        <time>2021-11-15T20:08:22.571Z</time>
      </trkpt>
      <trkpt lat="47.542875" lon="7.946089">
        <ele>303.401896</ele>
        <time>2021-11-15T20:08:24.668Z</time>
      </trkpt>
      <trkpt lat="47.542902" lon="7.946514">
        <ele>302.718421</ele>
        <time>2021-11-15T20:08:27.550Z</time>
      </trkpt>
      <trkpt lat="47.542943" lon="7.946806">
        <ele>302.262312</ele>
        <time>2021-11-15T20:08:29.577Z</time>
      </trkpt>
      <trkpt lat="47.542974" lon="7.946965">
        <ele>302.058265</ele>
        <time>2021-11-15T20:08:30.789Z</time>
      </trkpt>
      <trkpt lat="47.542979" lon="7.946989">
        <ele>302.027298</ele>
        <time>2021-11-15T20:08:30.945Z</time>
      </trkpt>
      <trkpt lat="47.543007" lon="7.947104">
        <ele>301.876571</ele>
        <time>2021-11-15T20:08:31.783Z</time>
      </trkpt>
      <trkpt lat="47.543087" lon="7.947317">
        <ele>301.576048</ele>
        <time>2021-11-15T20:08:33.497Z</time>
      </trkpt>
      <trkpt lat="47.543191" lon="7.947615">
        <ele>301.162441</ele>
        <time>2021-11-15T20:08:35.932Z</time>
      </trkpt>
      <trkpt lat="47.543242" lon="7.947745">
        <ele>300.977061</ele>
        <time>2021-11-15T20:08:37.064Z</time>
      </trkpt>
      <trkpt lat="47.543273" lon="7.947816">
        <ele>300.872809</ele>
        <time>2021-11-15T20:08:37.691Z</time>
      </trkpt>
      <trkpt lat="47.543358" lon="7.947967">
        <ele>300.630402</ele>
        <time>2021-11-15T20:08:39.131Z</time>
      </trkpt>
      <trkpt lat="47.543455" lon="7.948127">
        <ele>300.365259</ele>
        <time>2021-11-15T20:08:40.800Z</time>
      </trkpt>
      <trkpt lat="47.543532" lon="7.948214">
        <ele>300.188386</ele>
        <time>2021-11-15T20:08:41.882Z</time>
      </trkpt>
      <trkpt lat="47.543579" lon="7.948287">
        <ele>300.064010</ele>
        <time>2021-11-15T20:08:42.644Z</time>
      </trkpt>
      <trkpt lat="47.543760" lon="7.948548">
        <ele>299.602670</ele>
        <time>2021-11-15T20:08:45.536Z</time>
      </trkpt>
      <trkpt lat="47.543864" lon="7.948694">
        <ele>299.340979</ele>
        <time>2021-11-15T20:08:47.202Z</time>
      </trkpt>
      <trkpt lat="47.544022" lon="7.948908">
        <ele>299.070432</ele>
        <time>2021-11-15T20:08:50.020Z</time>
      </trkpt>
      <trkpt lat="47.544239" lon="7.949202">
        <ele>299.187236</ele>
        <time>2021-11-15T20:08:54.670Z</time>
      </trkpt>
      <trkpt lat="47.544521" lon="7.949558">
        <ele>299.334402</ele>
        <time>2021-11-15T20:09:00.845Z</time>
      </trkpt>
      <trkpt lat="47.544901" lon="7.950044">
        <ele>299.533806</ele>
        <time>2021-11-15T20:09:10.240Z</time>
      </trkpt>
      <trkpt lat="47.545166" lon="7.950366">
        <ele>299.669943</ele>
        <time>2021-11-15T20:09:16.790Z</time>
      </trkpt>
      <trkpt lat="47.545434" lon="7.950668">
        <ele>299.753340</ele>
        <time>2021-11-15T20:09:22.558Z</time>
      </trkpt>
      <trkpt lat="47.545542" lon="7.950842">
        <ele>299.737619</ele>
        <time>2021-11-15T20:09:24.983Z</time>
      </trkpt>
      <trkpt lat="47.545667" lon="7.950979">
        <ele>299.722299</ele>
        <time>2021-11-15T20:09:27.588Z</time>
      </trkpt>
      <trkpt lat="47.545737" lon="7.951055">
        <ele>299.713749</ele>
        <time>2021-11-15T20:09:28.842Z</time>
      </trkpt>
      <trkpt lat="47.545876" lon="7.951233">
        <ele>299.695646</ele>
        <time>2021-11-15T20:09:31.235Z</time>
      </trkpt>
      <trkpt lat="47.546112" lon="7.951485">
        <ele>299.666984</ele>
        <time>2021-11-15T20:09:35.778Z</time>
      </trkpt>
      <trkpt lat="47.546164" lon="7.951520">
        <ele>299.661357</ele>
        <time>2021-11-15T20:09:36.412Z</time>
      </trkpt>
      <trkpt lat="47.546212" lon="7.951535">
        <ele>299.656523</ele>
        <time>2021-11-15T20:09:37.177Z</time>
      </trkpt>
      <trkpt lat="47.546231" lon="7.951558">
        <ele>299.654106</ele>
        <time>2021-11-15T20:09:37.907Z</time>
      </trkpt>
      <trkpt lat="47.546421" lon="7.951793">
        <ele>299.629720</ele>
        <time>2021-11-15T20:09:41.088Z</time>
      </trkpt>
      <trkpt lat="47.546634" lon="7.952024">
        <ele>299.603711</ele>
        <time>2021-11-15T20:09:44.622Z</time>
      </trkpt>
      <trkpt lat="47.546695" lon="7.952091">
        <ele>299.596230</ele>
        <time>2021-11-15T20:09:45.577Z</time>
      </trkpt>
      <trkpt lat="47.546776" lon="7.952185">
        <ele>299.585932</ele>
        <time>2021-11-15T20:09:46.764Z</time>
      </trkpt>
      <trkpt lat="47.546935" lon="7.952372">
        <ele>299.487863</ele>
        <time>2021-11-15T20:09:49.699Z</time>
      </trkpt>
      <trkpt lat="47.547090" lon="7.952543">
        <ele>299.394507</ele>
        <time>2021-11-15T20:09:52.336Z</time>
      </trkpt>
      <trkpt lat="47.547400" lon="7.952910">
        <ele>299.202816</ele>
        <time>2021-11-15T20:09:57.622Z</time>
      </trkpt>
      <trkpt lat="47.547458" lon="7.952975">
        <ele>299.167684</ele>
        <time>2021-11-15T20:09:58.541Z</time>
      </trkpt>
      <trkpt lat="47.547550" lon="7.953078">
        <ele>299.111979</ele>
        <time>2021-11-15T20:10:00.019Z</time>
      </trkpt>
      <trkpt lat="47.547624" lon="7.953160">
        <ele>299.067339</ele>
        <time>2021-11-15T20:10:01.262Z</time>
      </trkpt>
      <trkpt lat="47.547797" lon="7.953355">
        <ele>298.962330</ele>
        <time>2021-11-15T20:10:04.266Z</time>
      </trkpt>
      <trkpt lat="47.547871" lon="7.953437">
        <ele>298.917690</ele>
        <time>2021-11-15T20:10:05.554Z</time>
      </trkpt>
      <trkpt lat="47.547994" lon="7.953584">
        <ele>298.841349</ele>
        <time>2021-11-15T20:10:07.744Z</time>
      </trkpt>
      <trkpt lat="47.548115" lon="7.953729">
        <ele>298.766170</ele>
        <time>2021-11-15T20:10:09.882Z</time>
      </trkpt>
      <trkpt lat="47.548251" lon="7.953895">
        <ele>298.643678</ele>
        <time>2021-11-15T20:10:12.293Z</time>
      </trkpt>
      <trkpt lat="47.548335" lon="7.953779">
        <ele>298.530958</ele>
        <time>2021-11-15T20:10:14.203Z</time>
      </trkpt>
      <trkpt lat="47.548384" lon="7.953753">
        <ele>298.479868</ele>
        <time>2021-11-15T20:10:15.180Z</time>
      </trkpt>
      <trkpt lat="47.549296" lon="7.953268">
        <ele>297.528715</ele>
        <time>2021-11-15T20:10:32.521Z</time>
      </trkpt>
      <trkpt lat="47.549442" lon="7.953195">
        <ele>297.377459</ele>
        <time>2021-11-15T20:10:35.065Z</time>
      </trkpt>
      <trkpt lat="47.549640" lon="7.953086">
        <ele>297.170117</ele>
        <time>2021-11-15T20:10:38.788Z</time>
      </trkpt>
      <trkpt lat="47.549673" lon="7.953076">
        <ele>297.137053</ele>
        <time>2021-11-15T20:10:39.348Z</time>
      </trkpt>
      <trkpt lat="47.549687" lon="7.953071">
        <ele>297.122917</ele>
        <time>2021-11-15T20:10:39.540Z</time>
      </trkpt>
      <trkpt lat="47.550567" lon="7.953069">
        <ele>295.465234</ele>
        <time>2021-11-15T20:10:53.724Z</time>
      </trkpt>
      <trkpt lat="47.550656" lon="7.953072">
        <ele>295.277685</ele>
        <time>2021-11-15T20:10:55.041Z</time>
      </trkpt>
      <trkpt lat="47.550967" lon="7.953063">
        <ele>294.622359</ele>
        <time>2021-11-15T20:10:59.806Z</time>
      </trkpt>
      <trkpt lat="47.551254" lon="7.952986">
        <ele>294.007888</ele>
        <time>2021-11-15T20:11:04.195Z</time>
      </trkpt>
      <trkpt lat="47.551295" lon="7.952900">
        <ele>293.858174</ele>
        <time>2021-11-15T20:11:05.258Z</time>
      </trkpt>
      <trkpt lat="47.551334" lon="7.952777">
        <ele>293.664941</ele>
        <time>2021-11-15T20:11:07.933Z</time>
      </trkpt>
      <trkpt lat="47.551339" lon="7.952761">
        <ele>293.639870</ele>
        <time>2021-11-15T20:11:08.304Z</time>
      </trkpt>
      <trkpt lat="47.551381" lon="7.952341">
        <ele>293.077394</ele>
        <time>2021-11-15T20:11:17.085Z</time>
      </trkpt>
      <trkpt lat="47.551506" lon="7.950255">
        <ele>291.072481</ele>
        <time>2021-11-15T20:12:02.622Z</time>
      </trkpt>
      <trkpt lat="47.551525" lon="7.950027">
        <ele>290.852545</ele>
        <time>2021-11-15T20:12:08.083Z</time>
      </trkpt>
      <trkpt lat="47.551581" lon="7.949830">
        <ele>290.647900</ele>
        <time>2021-11-15T20:12:13.235Z</time>
      </trkpt>
      <trkpt lat="47.551673" lon="7.949634">
        <ele>290.636108</ele>
        <time>2021-11-15T20:12:19.321Z</time>
      </trkpt>
      <trkpt lat="47.551794" lon="7.949387">
        <ele>290.674245</ele>
        <time>2021-11-15T20:12:26.882Z</time>
      </trkpt>
      <trkpt lat="47.552010" lon="7.949039">
        <ele>290.733322</ele>
        <time>2021-11-15T20:12:39.053Z</time>
      </trkpt>
      <trkpt lat="47.552049" lon="7.948982">
        <ele>290.743464</ele>
        <time>2021-11-15T20:12:41.193Z</time>
      </trkpt>
      <trkpt lat="47.552094" lon="7.948926">
        <ele>290.754344</ele>
        <time>2021-11-15T20:12:43.540Z</time>
      </trkpt>
      <trkpt lat="47.552202" lon="7.949003">
        <ele>290.776534</ele>
        <time>2021-11-15T20:12:48.165Z</time>
      </trkpt>
      <trkpt lat="47.552351" lon="7.949099">
        <ele>290.806615</ele>
        <time>2021-11-15T20:12:54.457Z</time>
      </trkpt>
      <trkpt lat="47.552382" lon="7.949119">
        <ele>290.812875</ele>
        <time>2021-11-15T20:12:55.887Z</time>
      </trkpt>
      <trkpt lat="47.552518" lon="7.949236">
        <ele>290.841990</ele>
        <time>2021-11-15T20:13:02.180Z</time>
      </trkpt>
      <trkpt lat="47.552953" lon="7.948775">
        <ele>290.941006</ele>
        <time>2021-11-15T20:13:23.389Z</time>
      </trkpt>
      <trkpt lat="47.553197" lon="7.948543">
        <ele>290.749786</ele>
        <time>2021-11-15T20:13:34.247Z</time>
      </trkpt>
      <trkpt lat="47.553368" lon="7.948399">
        <ele>290.609957</ele>
        <time>2021-11-15T20:13:47.886Z</time>
      </trkpt>
      <trkpt lat="47.553451" lon="7.948587">
        <ele>290.502170</ele>
        <time>2021-11-15T20:13:53.131Z</time>
      </trkpt>
      <trkpt lat="47.553815" lon="7.949414">
        <ele>290.028453</ele>
        <time>2021-11-15T20:14:15.656Z</time>
      </trkpt>
      <trkpt lat="47.554192" lon="7.950296">
        <ele>289.500537</ele>
        <time>2021-11-15T20:14:38.909Z</time>
      </trkpt>
      <trkpt lat="47.554240" lon="7.950300">
        <ele>289.459663</ele>
        <time>2021-11-15T20:14:40.511Z</time>
      </trkpt>
      <trkpt lat="47.554303" lon="7.950312">
        <ele>289.405661</ele>
        <time>2021-11-15T20:14:41.267Z</time>
      </trkpt>
      <trkpt lat="47.554392" lon="7.950331">
        <ele>289.329213</ele>
        <time>2021-11-15T20:14:42.333Z</time>
      </trkpt>
      <trkpt lat="47.554652" lon="7.950448">
        <ele>289.098197</ele>
        <time>2021-11-15T20:14:45.633Z</time>
      </trkpt>
      <trkpt lat="47.554759" lon="7.950515">
        <ele>288.999437</ele>
        <time>2021-11-15T20:14:47.019Z</time>
      </trkpt>
      <trkpt lat="47.554954" lon="7.950665">
        <ele>288.812643</ele>
        <time>2021-11-15T20:14:49.717Z</time>
      </trkpt>
      <trkpt lat="47.555374" lon="7.951051">
        <ele>288.392457</ele>
        <time>2021-11-15T20:14:55.892Z</time>
      </trkpt>
      <trkpt lat="47.555474" lon="7.951144">
        <ele>288.292081</ele>
        <time>2021-11-15T20:14:57.430Z</time>
      </trkpt>
      <trkpt lat="47.555687" lon="7.951449">
        <ele>288.170311</ele>
        <time>2021-11-15T20:15:01.538Z</time>
      </trkpt>
      <trkpt lat="47.556339" lon="7.952382">
        <ele>288.444032</ele>
        <time>2021-11-15T20:15:15.592Z</time>
      </trkpt>
      <trkpt lat="47.556386" lon="7.952449">
        <ele>288.463727</ele>
        <time>2021-11-15T20:15:16.768Z</time>
      </trkpt>
      <trkpt lat="47.556400" lon="7.952468">
        <ele>288.469460</ele>
        <time>2021-11-15T20:15:17.082Z</time>
      </trkpt>
      <trkpt lat="47.557120" lon="7.953536">
        <ele>288.841414</ele>
        <time>2021-11-15T20:15:35.057Z</time>
      </trkpt>
      <trkpt lat="47.557517" lon="7.954117">
        <ele>289.120788</ele>
        <time>2021-11-15T20:15:44.900Z</time>
      </trkpt>
      <trkpt lat="47.557687" lon="7.954371">
        <ele>289.241663</ele>
        <time>2021-11-15T20:15:49.013Z</time>
      </trkpt>
      <trkpt lat="47.557874" lon="7.954579">
        <ele>289.358734</ele>
        <time>2021-11-15T20:15:52.744Z</time>
      </trkpt>
      <trkpt lat="47.557899" lon="7.954581">
        <ele>289.371269</ele>
        <time>2021-11-15T20:15:53.241Z</time>
      </trkpt>
      <trkpt lat="47.557935" lon="7.954571">
        <ele>289.389608</ele>
        <time>2021-11-15T20:15:53.891Z</time>
      </trkpt>
      <trkpt lat="47.558070" lon="7.954468">
        <ele>289.465634</ele>
        <time>2021-11-15T20:15:56.257Z</time>
      </trkpt>
      <trkpt lat="47.558107" lon="7.954410">
        <ele>289.492602</ele>
        <time>2021-11-15T20:15:57.188Z</time>
      </trkpt>
      <trkpt lat="47.558161" lon="7.954466">
        <ele>289.525602</ele>
        <time>2021-11-15T20:15:58.181Z</time>
      </trkpt>
      <trkpt lat="47.558201" lon="7.954539">
        <ele>289.557374</ele>
        <time>2021-11-15T20:15:59.264Z</time>
      </trkpt>
      <trkpt lat="47.558247" lon="7.954695">
        <ele>289.561366</ele>
        <time>2021-11-15T20:16:01.072Z</time>
      </trkpt>
      <trkpt lat="47.558360" lon="7.955074">
        <ele>289.486948</ele>
        <time>2021-11-15T20:16:05.468Z</time>
      </trkpt>
      <trkpt lat="47.558659" lon="7.956055">
        <ele>289.293620</ele>
        <time>2021-11-15T20:16:15.768Z</time>
      </trkpt>
      <trkpt lat="47.558756" lon="7.956469">
        <ele>289.214911</ele>
        <time>2021-11-15T20:16:19.662Z</time>
      </trkpt>
      <trkpt lat="47.559224" lon="7.958738">
        <ele>288.611644</ele>
        <time>2021-11-15T20:16:40.106Z</time>
      </trkpt>
      <trkpt lat="47.559324" lon="7.959601">
        <ele>288.365224</ele>
        <time>2021-11-15T20:16:48.464Z</time>
      </trkpt>
      <trkpt lat="47.559346" lon="7.959868">
        <ele>288.443697</ele>
        <time>2021-11-15T20:16:51.558Z</time>
      </trkpt>
      <trkpt lat="47.559406" lon="7.960730">
        <ele>288.809758</ele>
        <time>2021-11-15T20:17:01.042Z</time>
      </trkpt>
      <trkpt lat="47.559408" lon="7.961845">
        <ele>289.280763</ele>
        <time>2021-11-15T20:17:14.805Z</time>
      </trkpt>
      <trkpt lat="47.559368" lon="7.962709">
        <ele>289.581785</ele>
        <time>2021-11-15T20:17:26.042Z</time>
      </trkpt>
      <trkpt lat="47.559232" lon="7.963800">
        <ele>289.871269</ele>
        <time>2021-11-15T20:17:38.634Z</time>
      </trkpt>
      <trkpt lat="47.559114" lon="7.964433">
        <ele>290.042619</ele>
        <time>2021-11-15T20:17:45.317Z</time>
      </trkpt>
      <trkpt lat="47.559029" lon="7.964894">
        <ele>290.167315</ele>
        <time>2021-11-15T20:17:50.337Z</time>
      </trkpt>
      <trkpt lat="47.558949" lon="7.965326">
        <ele>290.117937</ele>
        <time>2021-11-15T20:17:54.573Z</time>
      </trkpt>
      <trkpt lat="47.558732" lon="7.966356">
        <ele>289.980314</ele>
        <time>2021-11-15T20:18:04.456Z</time>
      </trkpt>
      <trkpt lat="47.558606" lon="7.966985">
        <ele>289.896628</ele>
        <time>2021-11-15T20:18:10.717Z</time>
      </trkpt>
      <trkpt lat="47.558448" lon="7.967701">
        <ele>289.848146</ele>
        <time>2021-11-15T20:18:17.972Z</time>
      </trkpt>
      <trkpt lat="47.558430" lon="7.967788">
        <ele>289.853785</ele>
        <time>2021-11-15T20:18:18.855Z</time>
      </trkpt>
      <trkpt lat="47.558327" lon="7.968108">
        <ele>289.875758</ele>
        <time>2021-11-15T20:18:22.808Z</time>
      </trkpt>
      <trkpt lat="47.558313" lon="7.968259">
        <ele>289.885205</ele>
        <time>2021-11-15T20:18:24.267Z</time>
      </trkpt>
      <trkpt lat="47.558296" lon="7.968403">
        <ele>289.894265</ele>
        <time>2021-11-15T20:18:26.070Z</time>
      </trkpt>
      <trkpt lat="47.558225" lon="7.968807">
        <ele>289.920139</ele>
        <time>2021-11-15T20:18:30.524Z</time>
      </trkpt>
      <trkpt lat="47.558045" lon="7.969704">
        <ele>289.978138</ele>
        <time>2021-11-15T20:18:40.094Z</time>
      </trkpt>
      <trkpt lat="47.557756" lon="7.971140">
        <ele>289.752423</ele>
        <time>2021-11-15T20:18:54.785Z</time>
      </trkpt>
      <trkpt lat="47.557538" lon="7.972196">
        <ele>289.523164</ele>
        <time>2021-11-15T20:19:04.469Z</time>
      </trkpt>
      <trkpt lat="47.557419" lon="7.972636">
        <ele>289.456788</ele>
        <time>2021-11-15T20:19:08.725Z</time>
      </trkpt>
      <trkpt lat="47.557323" lon="7.972992">
        <ele>289.506668</ele>
        <time>2021-11-15T20:19:12.341Z</time>
      </trkpt>
      <trkpt lat="47.557235" lon="7.973507">
        <ele>289.575789</ele>
        <time>2021-11-15T20:19:17.419Z</time>
      </trkpt>
      <trkpt lat="47.557108" lon="7.974186">
        <ele>289.667464</ele>
        <time>2021-11-15T20:19:24.572Z</time>
      </trkpt>
      <trkpt lat="47.557045" lon="7.974526">
        <ele>289.713338</ele>
        <time>2021-11-15T20:19:28.606Z</time>
      </trkpt>
      <trkpt lat="47.556769" lon="7.976421">
        <ele>290.702653</ele>
        <time>2021-11-15T20:19:53.086Z</time>
      </trkpt>
      <trkpt lat="47.556668" lon="7.978159">
        <ele>291.690439</ele>
        <time>2021-11-15T20:20:15.843Z</time>
      </trkpt>
      <trkpt lat="47.556684" lon="7.978479">
        <ele>291.756620</ele>
        <time>2021-11-15T20:20:19.881Z</time>
      </trkpt>
      <trkpt lat="47.557185" lon="7.988787">
        <ele>293.754343</ele>
        <time>2021-11-15T20:22:09.181Z</time>
      </trkpt>
      <trkpt lat="47.557298" lon="7.990679">
        <ele>294.193633</ele>
        <time>2021-11-15T20:22:30.246Z</time>
      </trkpt>
      <trkpt lat="47.557377" lon="7.991413">
        <ele>294.341608</ele>
        <time>2021-11-15T20:22:38.526Z</time>
      </trkpt>
      <trkpt lat="47.557666" lon="7.996934">
        <ele>295.398674</ele>
        <time>2021-11-15T20:23:37.383Z</time>
      </trkpt>
      <trkpt lat="47.557611" lon="7.998828">
        <ele>296.179230</ele>
        <time>2021-11-15T20:24:00.011Z</time>
      </trkpt>
      <trkpt lat="47.557595" lon="7.999065">
        <ele>296.263512</ele>
        <time>2021-11-15T20:24:03.036Z</time>
      </trkpt>
      <trkpt lat="47.557590" lon="7.999121">
        <ele>296.275177</ele>
        <time>2021-11-15T20:24:03.694Z</time>
      </trkpt>
      <trkpt lat="47.557569" lon="7.999330">
        <ele>296.318808</ele>
        <time>2021-11-15T20:24:09.283Z</time>
      </trkpt>
      <trkpt lat="47.557552" lon="7.999488">
        <ele>296.351846</ele>
        <time>2021-11-15T20:24:11.300Z</time>
      </trkpt>
      <trkpt lat="47.557421" lon="8.000151">
        <ele>296.494495</ele>
        <time>2021-11-15T20:24:19.499Z</time>
      </trkpt>
      <trkpt lat="47.556859" lon="8.003033">
        <ele>296.493996</ele>
        <time>2021-11-15T20:24:49.212Z</time>
      </trkpt>
      <trkpt lat="47.556414" lon="8.004608">
        <ele>296.012278</ele>
        <time>2021-11-15T20:25:03.981Z</time>
      </trkpt>
      <trkpt lat="47.555689" lon="8.008075">
        <ele>294.296990</ele>
        <time>2021-11-15T20:25:35.648Z</time>
      </trkpt>
      <trkpt lat="47.555492" lon="8.008854">
        <ele>293.874166</ele>
        <time>2021-11-15T20:25:42.668Z</time>
      </trkpt>
      <trkpt lat="47.555373" lon="8.009365">
        <ele>293.577265</ele>
        <time>2021-11-15T20:25:47.153Z</time>
      </trkpt>
      <trkpt lat="47.555124" lon="8.010557">
        <ele>292.825161</ele>
        <time>2021-11-15T20:25:57.481Z</time>
      </trkpt>
      <trkpt lat="47.555069" lon="8.010772">
        <ele>292.686572</ele>
        <time>2021-11-15T20:25:59.313Z</time>
      </trkpt>
      <trkpt lat="47.554818" lon="8.011865">
        <ele>292.102614</ele>
        <time>2021-11-15T20:26:09.017Z</time>
      </trkpt>
      <trkpt lat="47.554682" lon="8.012449">
        <ele>292.073327</ele>
        <time>2021-11-15T20:26:14.722Z</time>
      </trkpt>
      <trkpt lat="47.554665" lon="8.012540">
        <ele>292.068850</ele>
        <time>2021-11-15T20:26:15.561Z</time>
      </trkpt>
      <trkpt lat="47.554546" lon="8.013079">
        <ele>292.041965</ele>
        <time>2021-11-15T20:26:21.062Z</time>
      </trkpt>
      <trkpt lat="47.554393" lon="8.013577">
        <ele>292.016025</ele>
        <time>2021-11-15T20:26:26.845Z</time>
      </trkpt>
      <trkpt lat="47.554329" lon="8.013807">
        <ele>292.004230</ele>
        <time>2021-11-15T20:26:29.718Z</time>
      </trkpt>
      <trkpt lat="47.553882" lon="8.015749">
        <ele>292.672261</ele>
        <time>2021-11-15T20:26:53.513Z</time>
      </trkpt>
      <trkpt lat="47.553715" lon="8.016236">
        <ele>292.897662</ele>
        <time>2021-11-15T20:26:59.972Z</time>
      </trkpt>
      <trkpt lat="47.553318" lon="8.017064">
        <ele>293.238425</ele>
        <time>2021-11-15T20:27:11.866Z</time>
      </trkpt>
      <trkpt lat="47.553229" lon="8.017328">
        <ele>293.318948</ele>
        <time>2021-11-15T20:27:15.402Z</time>
      </trkpt>
      <trkpt lat="47.553229" lon="8.017328">
        <ele>293.318948</ele>
        <time>2021-11-15T20:27:15.425Z</time>
      </trkpt>
      <trkpt lat="47.553159" lon="8.017677">
        <ele>293.418293</ele>
        <time>2021-11-15T20:27:19.995Z</time>
      </trkpt>
      <trkpt lat="47.553012" lon="8.018748">
        <ele>293.716510</ele>
        <time>2021-11-15T20:27:31.616Z</time>
      </trkpt>
      <trkpt lat="47.553028" lon="8.018988">
        <ele>293.782316</ele>
        <time>2021-11-15T20:27:33.973Z</time>
      </trkpt>
      <trkpt lat="47.553030" lon="8.019182">
        <ele>293.849287</ele>
        <time>2021-11-15T20:27:35.660Z</time>
      </trkpt>
      <trkpt lat="47.553055" lon="8.019647">
        <ele>294.055674</ele>
        <time>2021-11-15T20:27:40.357Z</time>
      </trkpt>
      <trkpt lat="47.553064" lon="8.019820">
        <ele>294.132444</ele>
        <time>2021-11-15T20:27:41.883Z</time>
      </trkpt>
      <trkpt lat="47.553056" lon="8.019871">
        <ele>294.155610</ele>
        <time>2021-11-15T20:27:42.373Z</time>
      </trkpt>
      <trkpt lat="47.553031" lon="8.019915">
        <ele>294.181057</ele>
        <time>2021-11-15T20:27:43.024Z</time>
      </trkpt>
      <trkpt lat="47.552961" lon="8.019989">
        <ele>294.237429</ele>
        <time>2021-11-15T20:27:44.476Z</time>
      </trkpt>
      <trkpt lat="47.552879" lon="8.020034">
        <ele>294.294754</ele>
        <time>2021-11-15T20:27:46.055Z</time>
      </trkpt>
      <trkpt lat="47.552872" lon="8.020109">
        <ele>294.328253</ele>
        <time>2021-11-15T20:27:46.668Z</time>
      </trkpt>
      <trkpt lat="47.552813" lon="8.020595">
        <ele>294.546731</ele>
        <time>2021-11-15T20:27:52.491Z</time>
      </trkpt>
      <trkpt lat="47.552776" lon="8.021316">
        <ele>294.866654</ele>
        <time>2021-11-15T20:28:01.476Z</time>
      </trkpt>
      <trkpt lat="47.552959" lon="8.021335">
        <ele>294.986916</ele>
        <time>2021-11-15T20:28:05.496Z</time>
      </trkpt>
      <trkpt lat="47.553183" lon="8.021466">
        <ele>295.824965</ele>
        <time>2021-11-15T20:28:10.165Z</time>
      </trkpt>
      <trkpt lat="47.553232" lon="8.021484">
        <ele>296.005202</ele>
        <time>2021-11-15T20:28:11.488Z</time>
      </trkpt>
      <trkpt lat="47.553266" lon="8.021493">
        <ele>296.128511</ele>
        <time>2021-11-15T20:28:12.285Z</time>
      </trkpt>
      <trkpt lat="47.553291" lon="8.021502">
        <ele>296.220363</ele>
        <time>2021-11-15T20:28:12.960Z</time>
      </trkpt>
      <trkpt lat="47.553291" lon="8.021502">
        <ele>296.220363</ele>
        <time>2021-11-15T20:28:12.970Z</time>
      </trkpt>
      <trkpt lat="47.553305" lon="8.021505">
        <ele>296.270866</ele>
        <time>2021-11-15T20:28:13.308Z</time>
      </trkpt>
      <trkpt lat="47.553565" lon="8.021501">
        <ele>297.199171</ele>
        <time>2021-11-15T20:28:19.878Z</time>
      </trkpt>
      <trkpt lat="47.553607" lon="8.021497">
        <ele>297.349429</ele>
        <time>2021-11-15T20:28:21.054Z</time>
      </trkpt>
      <trkpt lat="47.553614" lon="8.021587">
        <ele>297.567723</ele>
        <time>2021-11-15T20:28:22.718Z</time>
      </trkpt>
      <trkpt lat="47.553615" lon="8.021606">
        <ele>297.613643</ele>
        <time>2021-11-15T20:28:23.101Z</time>
      </trkpt>
      <trkpt lat="47.553619" lon="8.021667">
        <ele>297.761317</ele>
        <time>2021-11-15T20:28:24.341Z</time>
      </trkpt>
      <trkpt lat="47.553687" lon="8.021682">
        <ele>298.006767</ele>
        <time>2021-11-15T20:28:26.490Z</time>
      </trkpt>
      <trkpt lat="47.553878" lon="8.021738">
        <ele>298.701899</ele>
        <time>2021-11-15T20:28:32.561Z</time>
      </trkpt>
      <trkpt lat="47.553961" lon="8.021754">
        <ele>299.000724</ele>
        <time>2021-11-15T20:28:35.391Z</time>
      </trkpt>
      <trkpt lat="47.554086" lon="8.021778">
        <ele>299.450731</ele>
        <time>2021-11-15T20:28:39.719Z</time>
      </trkpt>
      <trkpt lat="47.554332" lon="8.021803">
        <ele>300.331066</ele>
        <time>2021-11-15T20:28:48.250Z</time>
      </trkpt>
      <trkpt lat="47.554430" lon="8.021760">
        <ele>300.695965</ele>
        <time>2021-11-15T20:28:51.971Z</time>
      </trkpt>
      <trkpt lat="47.554468" lon="8.021743">
        <ele>300.837682</ele>
        <time>2021-11-15T20:28:53.230Z</time>
      </trkpt>
      <trkpt lat="47.554589" lon="8.021606">
        <ele>301.381361</ele>
        <time>2021-11-15T20:28:58.294Z</time>
      </trkpt>
      <trkpt lat="47.554743" lon="8.021466">
        <ele>302.378573</ele>
        <time>2021-11-15T20:29:04.876Z</time>
      </trkpt>
      <trkpt lat="47.554958" lon="8.021349">
        <ele>303.666027</ele>
        <time>2021-11-15T20:29:12.339Z</time>
      </trkpt>
      <trkpt lat="47.555346" lon="8.021253">
        <ele>305.877192</ele>
        <time>2021-11-15T20:29:26.491Z</time>
      </trkpt>
      <trkpt lat="47.555521" lon="8.021257">
        <ele>306.860993</ele>
        <time>2021-11-15T20:29:32.916Z</time>
      </trkpt>
      <trkpt lat="47.555963" lon="8.021294">
        <ele>309.349460</ele>
        <time>2021-11-15T20:29:50.462Z</time>
      </trkpt>
      <trkpt lat="47.556296" lon="8.021331">
        <ele>311.226526</ele>
        <time>2021-11-15T20:30:04.630Z</time>
      </trkpt>
      <trkpt lat="47.556552" lon="8.021260">
        <ele>312.901726</ele>
        <time>2021-11-15T20:30:14.602Z</time>
      </trkpt>
      <trkpt lat="47.556632" lon="8.021199">
        <ele>313.498997</ele>
        <time>2021-11-15T20:30:17.937Z</time>
      </trkpt>
      <trkpt lat="47.556709" lon="8.021127">
        <ele>314.103430</ele>
        <time>2021-11-15T20:30:21.055Z</time>
      </trkpt>
      <trkpt lat="47.556718" lon="8.021112">
        <ele>314.193351</ele>
        <time>2021-11-15T20:30:21.624Z</time>
      </trkpt>
      <trkpt lat="47.556775" lon="8.021020">
        <ele>314.752873</ele>
        <time>2021-11-15T20:30:25.148Z</time>
      </trkpt>
      <trkpt lat="47.556880" lon="8.020827">
        <ele>315.863502</ele>
        <time>2021-11-15T20:30:31.768Z</time>
      </trkpt>
      <trkpt lat="47.556951" lon="8.020734">
        <ele>316.492589</ele>
        <time>2021-11-15T20:30:34.979Z</time>
      </trkpt>
      <trkpt lat="47.557049" lon="8.020675">
        <ele>317.194810</ele>
        <time>2021-11-15T20:30:39.479Z</time>
      </trkpt>
      <trkpt lat="47.557140" lon="8.020649">
        <ele>317.810043</ele>
        <time>2021-11-15T20:30:44.057Z</time>
      </trkpt>
      <trkpt lat="47.557326" lon="8.020583">
        <ele>319.079718</ele>
        <time>2021-11-15T20:30:51.117Z</time>
      </trkpt>
      <trkpt lat="47.557406" lon="8.020509">
        <ele>319.705781</ele>
        <time>2021-11-15T20:30:55.370Z</time>
      </trkpt>
      <trkpt lat="47.557453" lon="8.020436">
        <ele>320.157784</ele>
        <time>2021-11-15T20:30:59.253Z</time>
      </trkpt>
      <trkpt lat="47.557472" lon="8.020307">
        <ele>320.749310</ele>
        <time>2021-11-15T20:31:02.963Z</time>
      </trkpt>
      <trkpt lat="47.557491" lon="8.020177">
        <ele>321.345213</ele>
        <time>2021-11-15T20:31:06.182Z</time>
      </trkpt>
      <trkpt lat="47.557398" lon="8.019696">
        <ele>323.587359</ele>
        <time>2021-11-15T20:31:21.203Z</time>
      </trkpt>
      <trkpt lat="47.557390" lon="8.019571">
        <ele>324.152450</ele>
        <time>2021-11-15T20:31:25.180Z</time>
      </trkpt>
      <trkpt lat="47.557414" lon="8.019414">
        <ele>324.876934</ele>
        <time>2021-11-15T20:31:30.612Z</time>
      </trkpt>
      <trkpt lat="47.557532" lon="8.018992">
        <ele>326.932733</ele>
        <time>2021-11-15T20:31:42.939Z</time>
      </trkpt>
      <trkpt lat="47.557566" lon="8.018865">
        <ele>327.547631</ele>
        <time>2021-11-15T20:31:47.683Z</time>
      </trkpt>
      <trkpt lat="47.557700" lon="8.018487">
        <ele>329.469257</ele>
        <time>2021-11-15T20:31:57.708Z</time>
      </trkpt>
      <trkpt lat="47.557746" lon="8.018355">
        <ele>330.137855</ele>
        <time>2021-11-15T20:32:02.116Z</time>
      </trkpt>
      <trkpt lat="47.557944" lon="8.018030">
        <ele>332.108377</ele>
        <time>2021-11-15T20:32:13.739Z</time>
      </trkpt>
      <trkpt lat="47.558167" lon="8.017713">
        <ele>334.169204</ele>
        <time>2021-11-15T20:32:26.614Z</time>
      </trkpt>
      <trkpt lat="47.558238" lon="8.017607">
        <ele>334.841344</ele>
        <time>2021-11-15T20:32:31.012Z</time>
      </trkpt>
      <trkpt lat="47.558302" lon="8.017520">
        <ele>335.420543</ele>
        <time>2021-11-15T20:32:34.582Z</time>
      </trkpt>
      <trkpt lat="47.558404" lon="8.017331">
        <ele>336.690487</ele>
        <time>2021-11-15T20:32:41.382Z</time>
      </trkpt>
      <trkpt lat="47.558419" lon="8.017286">
        <ele>336.955236</ele>
        <time>2021-11-15T20:32:42.819Z</time>
      </trkpt>
      <trkpt lat="47.558456" lon="8.017175">
        <ele>337.608284</ele>
        <time>2021-11-15T20:32:46.599Z</time>
      </trkpt>
      <trkpt lat="47.558468" lon="8.016788">
        <ele>339.651825</ele>
        <time>2021-11-15T20:32:57.633Z</time>
      </trkpt>
      <trkpt lat="47.558472" lon="8.016633">
        <ele>340.470032</ele>
        <time>2021-11-15T20:33:02.215Z</time>
      </trkpt>
      <trkpt lat="47.558468" lon="8.016544">
        <ele>340.940538</ele>
        <time>2021-11-15T20:33:04.462Z</time>
      </trkpt>
      <trkpt lat="47.558466" lon="8.016482">
        <ele>341.267956</ele>
        <time>2021-11-15T20:33:07.440Z</time>
      </trkpt>
      <trkpt lat="47.558477" lon="8.015998">
        <ele>343.822455</ele>
        <time>2021-11-15T20:33:21.147Z</time>
      </trkpt>
      <trkpt lat="47.558647" lon="8.015459">
        <ele>346.960822</ele>
        <time>2021-11-15T20:33:41.333Z</time>
      </trkpt>
      <trkpt lat="47.559052" lon="8.014792">
        <ele>351.889975</ele>
        <time>2021-11-15T20:34:11.474Z</time>
      </trkpt>
      <trkpt lat="47.559237" lon="8.014613">
        <ele>353.772785</ele>
        <time>2021-11-15T20:34:23.876Z</time>
      </trkpt>
      <trkpt lat="47.559301" lon="8.014552">
        <ele>354.421244</ele>
        <time>2021-11-15T20:34:28.176Z</time>
      </trkpt>
      <trkpt lat="47.559783" lon="8.014275">
        <ele>358.826748</ele>
        <time>2021-11-15T20:34:54.198Z</time>
      </trkpt>
      <trkpt lat="47.559980" lon="8.014260">
        <ele>360.507729</ele>
        <time>2021-11-15T20:35:04.277Z</time>
      </trkpt>
      <trkpt lat="47.560319" lon="8.014395">
        <ele>363.499066</ele>
        <time>2021-11-15T20:35:20.392Z</time>
      </trkpt>
      <trkpt lat="47.560683" lon="8.014628">
        <ele>366.523121</ele>
        <time>2021-11-15T20:35:36.953Z</time>
      </trkpt>
      <trkpt lat="47.560834" lon="8.014633">
        <ele>367.585495</ele>
        <time>2021-11-15T20:35:42.478Z</time>
      </trkpt>
      <trkpt lat="47.560957" lon="8.014567">
        <ele>368.505627</ele>
        <time>2021-11-15T20:35:48.688Z</time>
      </trkpt>
      <trkpt lat="47.560995" lon="8.014547">
        <ele>368.789270</ele>
        <time>2021-11-15T20:35:49.592Z</time>
      </trkpt>
      <trkpt lat="47.561174" lon="8.014255">
        <ele>370.661735</ele>
        <time>2021-11-15T20:36:02.300Z</time>
      </trkpt>
      <trkpt lat="47.561324" lon="8.013664">
        <ele>373.658742</ele>
        <time>2021-11-15T20:36:21.133Z</time>
      </trkpt>
      <trkpt lat="47.561442" lon="8.013448">
        <ele>374.977826</ele>
        <time>2021-11-15T20:36:27.789Z</time>
      </trkpt>
      <trkpt lat="47.561619" lon="8.013259">
        <ele>376.512342</ele>
        <time>2021-11-15T20:36:37.717Z</time>
      </trkpt>
      <trkpt lat="47.561706" lon="8.013231">
        <ele>377.138551</ele>
        <time>2021-11-15T20:36:41.143Z</time>
      </trkpt>
      <trkpt lat="47.561899" lon="8.013170">
        <ele>378.578493</ele>
        <time>2021-11-15T20:36:50.687Z</time>
      </trkpt>
      <trkpt lat="47.562066" lon="8.013151">
        <ele>379.815958</ele>
        <time>2021-11-15T20:36:56.479Z</time>
      </trkpt>
      <trkpt lat="47.562148" lon="8.013140">
        <ele>380.424270</ele>
        <time>2021-11-15T20:36:59.389Z</time>
      </trkpt>
      <trkpt lat="47.562228" lon="8.013107">
        <ele>381.037799</ele>
        <time>2021-11-15T20:37:03.751Z</time>
      </trkpt>
      <trkpt lat="47.562467" lon="8.013027">
        <ele>382.848070</ele>
        <time>2021-11-15T20:37:13.445Z</time>
      </trkpt>
      <trkpt lat="47.562986" lon="8.012625">
        <ele>387.174726</ele>
        <time>2021-11-15T20:37:41.312Z</time>
      </trkpt>
      <trkpt lat="47.563093" lon="8.012604">
        <ele>387.972170</ele>
        <time>2021-11-15T20:37:45.953Z</time>
      </trkpt>
      <trkpt lat="47.563207" lon="8.012665">
        <ele>388.867649</ele>
        <time>2021-11-15T20:37:52.971Z</time>
      </trkpt>
      <trkpt lat="47.563289" lon="8.012797">
        <ele>389.762130</ele>
        <time>2021-11-15T20:37:58.648Z</time>
      </trkpt>
      <trkpt lat="47.563524" lon="8.013612">
        <ele>393.012324</ele>
        <time>2021-11-15T20:38:24.887Z</time>
      </trkpt>
      <trkpt lat="47.563694" lon="8.013972">
        <ele>394.449037</ele>
        <time>2021-11-15T20:38:34.613Z</time>
      </trkpt>
      <trkpt lat="47.563758" lon="8.014030">
        <ele>394.812548</ele>
        <time>2021-11-15T20:38:38.181Z</time>
      </trkpt>
      <trkpt lat="47.563908" lon="8.014085">
        <ele>395.561314</ele>
        <time>2021-11-15T20:38:42.961Z</time>
      </trkpt>
      <trkpt lat="47.564241" lon="8.013975">
        <ele>397.214518</ele>
        <time>2021-11-15T20:38:53.805Z</time>
      </trkpt>
      <trkpt lat="47.564751" lon="8.013465">
        <ele>399.702421</ele>
        <time>2021-11-15T20:39:10.354Z</time>
      </trkpt>
      <trkpt lat="47.565338" lon="8.012662">
        <ele>400.823215</ele>
        <time>2021-11-15T20:39:25.243Z</time>
      </trkpt>
      <trkpt lat="47.565501" lon="8.012111">
        <ele>401.392771</ele>
        <time>2021-11-15T20:39:31.820Z</time>
      </trkpt>
      <trkpt lat="47.565472" lon="8.011708">
        <ele>401.776450</ele>
        <time>2021-11-15T20:39:36.768Z</time>
      </trkpt>
      <trkpt lat="47.565220" lon="8.011190">
        <ele>403.157199</ele>
        <time>2021-11-15T20:39:46.426Z</time>
      </trkpt>
      <trkpt lat="47.565079" lon="8.011063">
        <ele>403.893288</ele>
        <time>2021-11-15T20:39:50.011Z</time>
      </trkpt>
      <trkpt lat="47.564831" lon="8.010977">
        <ele>405.029549</ele>
        <time>2021-11-15T20:39:56.704Z</time>
      </trkpt>
      <trkpt lat="47.564410" lon="8.011026">
        <ele>406.913497</ele>
        <time>2021-11-15T20:40:09.499Z</time>
      </trkpt>
      <trkpt lat="47.564251" lon="8.010805">
        <ele>407.885982</ele>
        <time>2021-11-15T20:40:17.883Z</time>
      </trkpt>
      <trkpt lat="47.564285" lon="8.010543">
        <ele>408.689121</ele>
        <time>2021-11-15T20:40:24.637Z</time>
      </trkpt>
      <trkpt lat="47.564366" lon="8.010437">
        <ele>409.171195</ele>
        <time>2021-11-15T20:40:29.176Z</time>
      </trkpt>
      <trkpt lat="47.564396" lon="8.010420">
        <ele>409.314481</ele>
        <time>2021-11-15T20:40:31.436Z</time>
      </trkpt>
      <trkpt lat="47.564876" lon="8.010157">
        <ele>413.149905</ele>
        <time>2021-11-15T20:40:55.433Z</time>
      </trkpt>
      <trkpt lat="47.565384" lon="8.009424">
        <ele>419.483829</ele>
        <time>2021-11-15T20:41:33.025Z</time>
      </trkpt>
      <trkpt lat="47.565625" lon="8.009299">
        <ele>421.764858</ele>
        <time>2021-11-15T20:41:47.128Z</time>
      </trkpt>
      <trkpt lat="47.566213" lon="8.009186">
        <ele>426.930968</ele>
        <time>2021-11-15T20:42:17.524Z</time>
      </trkpt>
      <trkpt lat="47.566636" lon="8.009033">
        <ele>430.282084</ele>
        <time>2021-11-15T20:42:39.683Z</time>
      </trkpt>
      <trkpt lat="47.567295" lon="8.008508">
        <ele>436.040293</ele>
        <time>2021-11-15T20:43:13.265Z</time>
      </trkpt>
      <trkpt lat="47.567593" lon="8.008428">
        <ele>438.371132</ele>
        <time>2021-11-15T20:43:26.359Z</time>
      </trkpt>
      <trkpt lat="47.568942" lon="8.008356">
        <ele>445.899480</ele>
        <time>2021-11-15T20:44:18.342Z</time>
      </trkpt>
      <trkpt lat="47.569032" lon="8.008394">
        <ele>446.385571</ele>
        <time>2021-11-15T20:44:21.854Z</time>
      </trkpt>
      <trkpt lat="47.569090" lon="8.008418">
        <ele>446.698364</ele>
        <time>2021-11-15T20:44:23.389Z</time>
      </trkpt>
      <trkpt lat="47.569232" lon="8.008468">
        <ele>447.456491</ele>
        <time>2021-11-15T20:44:28.970Z</time>
      </trkpt>
      <trkpt lat="47.569356" lon="8.008548">
        <ele>448.158966</ele>
        <time>2021-11-15T20:44:32.689Z</time>
      </trkpt>
      <trkpt lat="47.569733" lon="8.009325">
        <ele>449.892533</ele>
        <time>2021-11-15T20:44:50.294Z</time>
      </trkpt>
      <trkpt lat="47.569881" lon="8.009480">
        <ele>450.143600</ele>
        <time>2021-11-15T20:44:54.365Z</time>
      </trkpt>
      <trkpt lat="47.569985" lon="8.009558">
        <ele>450.305082</ele>
        <time>2021-11-15T20:44:57.484Z</time>
      </trkpt>
      <trkpt lat="47.570110" lon="8.009604">
        <ele>450.483519</ele>
        <time>2021-11-15T20:44:59.383Z</time>
      </trkpt>
      <trkpt lat="47.570537" lon="8.009765">
        <ele>451.093940</ele>
        <time>2021-11-15T20:45:07.075Z</time>
      </trkpt>
      <trkpt lat="47.570679" lon="8.009960">
        <ele>451.362131</ele>
        <time>2021-11-15T20:45:09.970Z</time>
      </trkpt>
      <trkpt lat="47.570901" lon="8.010376">
        <ele>451.840218</ele>
        <time>2021-11-15T20:45:15.061Z</time>
      </trkpt>
      <trkpt lat="47.571091" lon="8.010633">
        <ele>452.096379</ele>
        <time>2021-11-15T20:45:19.104Z</time>
      </trkpt>
      <trkpt lat="47.571221" lon="8.010706">
        <ele>452.234820</ele>
        <time>2021-11-15T20:45:20.758Z</time>
      </trkpt>
      <trkpt lat="47.571485" lon="8.010679">
        <ele>452.498354</ele>
        <time>2021-11-15T20:45:24.735Z</time>
      </trkpt>
      <trkpt lat="47.571642" lon="8.010477">
        <ele>452.705393</ele>
        <time>2021-11-15T20:45:27.652Z</time>
      </trkpt>
      <trkpt lat="47.571674" lon="8.010325">
        <ele>452.812375</ele>
        <time>2021-11-15T20:45:29.634Z</time>
      </trkpt>
      <trkpt lat="47.571749" lon="8.009974">
        <ele>453.059748</ele>
        <time>2021-11-15T20:45:33.579Z</time>
      </trkpt>
      <trkpt lat="47.571538" lon="8.008187">
        <ele>457.248612</ele>
        <time>2021-11-15T20:46:06.892Z</time>
      </trkpt>
      <trkpt lat="47.571577" lon="8.007177">
        <ele>460.843650</ele>
        <time>2021-11-15T20:46:32.582Z</time>
      </trkpt>
      <trkpt lat="47.571832" lon="8.005893">
        <ele>467.201186</ele>
        <time>2021-11-15T20:47:14.824Z</time>
      </trkpt>
      <trkpt lat="47.571947" lon="8.005585">
        <ele>469.240662</ele>
        <time>2021-11-15T20:47:27.163Z</time>
      </trkpt>
      <trkpt lat="47.572250" lon="8.005072">
        <ele>473.190825</ele>
        <time>2021-11-15T20:47:50.675Z</time>
      </trkpt>
      <trkpt lat="47.572545" lon="8.004649">
        <ele>476.715502</ele>
        <time>2021-11-15T20:48:11.958Z</time>
      </trkpt>
      <trkpt lat="47.572581" lon="8.004598">
        <ele>477.143140</ele>
        <time>2021-11-15T20:48:14.943Z</time>
      </trkpt>
      <trkpt lat="47.572812" lon="8.004145">
        <ele>479.928581</ele>
        <time>2021-11-15T20:48:33.722Z</time>
      </trkpt>
      <trkpt lat="47.572894" lon="8.003925">
        <ele>481.003650</ele>
        <time>2021-11-15T20:48:41.221Z</time>
      </trkpt>
      <trkpt lat="47.572959" lon="8.003732">
        <ele>481.926314</ele>
        <time>2021-11-15T20:48:48.227Z</time>
      </trkpt>
      <trkpt lat="47.573083" lon="8.003074">
        <ele>484.848511</ele>
        <time>2021-11-15T20:49:07.089Z</time>
      </trkpt>
      <trkpt lat="47.573074" lon="8.002958">
        <ele>485.347947</ele>
        <time>2021-11-15T20:49:10.345Z</time>
      </trkpt>
      <trkpt lat="47.573018" lon="8.002565">
        <ele>487.066008</ele>
        <time>2021-11-15T20:49:20.012Z</time>
      </trkpt>
      <trkpt lat="47.572970" lon="8.002337">
        <ele>488.087610</ele>
        <time>2021-11-15T20:49:26.187Z</time>
      </trkpt>
      <trkpt lat="47.572945" lon="8.002160">
        <ele>488.861106</ele>
        <time>2021-11-15T20:49:29.787Z</time>
      </trkpt>
      <trkpt lat="47.572943" lon="8.002035">
        <ele>489.395919</ele>
        <time>2021-11-15T20:49:32.009Z</time>
      </trkpt>
      <trkpt lat="47.572938" lon="8.001983">
        <ele>489.620586</ele>
        <time>2021-11-15T20:49:33.460Z</time>
      </trkpt>
      <trkpt lat="47.572938" lon="8.001919">
        <ele>489.894333</ele>
        <time>2021-11-15T20:49:35.264Z</time>
      </trkpt>
      <trkpt lat="47.572940" lon="8.001742">
        <ele>490.280125</ele>
        <time>2021-11-15T20:49:39.143Z</time>
      </trkpt>
      <trkpt lat="47.572943" lon="8.001367">
        <ele>491.081719</ele>
        <time>2021-11-15T20:49:46.380Z</time>
      </trkpt>
      <trkpt lat="47.572935" lon="8.001208">
        <ele>491.422515</ele>
        <time>2021-11-15T20:49:49.155Z</time>
      </trkpt>
      <trkpt lat="47.572887" lon="8.000996">
        <ele>491.900489</ele>
        <time>2021-11-15T20:49:52.427Z</time>
      </trkpt>
      <trkpt lat="47.572824" lon="8.000753">
        <ele>492.456917</ele>
        <time>2021-11-15T20:49:57.896Z</time>
      </trkpt>
      <trkpt lat="47.572747" lon="8.000534">
        <ele>492.984771</ele>
        <time>2021-11-15T20:50:02.191Z</time>
      </trkpt>
      <trkpt lat="47.572662" lon="8.000300">
        <ele>493.552823</ele>
        <time>2021-11-15T20:50:06.779Z</time>
      </trkpt>
      <trkpt lat="47.572611" lon="8.000059">
        <ele>494.092694</ele>
        <time>2021-11-15T20:50:10.768Z</time>
      </trkpt>
      <trkpt lat="47.572543" lon="7.999708">
        <ele>494.873258</ele>
        <time>2021-11-15T20:50:16.630Z</time>
      </trkpt>
      <trkpt lat="47.572560" lon="7.999471">
        <ele>495.382689</ele>
        <time>2021-11-15T20:50:20.547Z</time>
      </trkpt>
      <trkpt lat="47.572588" lon="7.999397">
        <ele>495.564039</ele>
        <time>2021-11-15T20:50:22.040Z</time>
      </trkpt>
      <trkpt lat="47.572624" lon="7.999441">
        <ele>495.754483</ele>
        <time>2021-11-15T20:50:25.247Z</time>
      </trkpt>
      <trkpt lat="47.572591" lon="7.999615">
        <ele>496.298747</ele>
        <time>2021-11-15T20:50:33.710Z</time>
      </trkpt>
      <trkpt lat="47.572597" lon="7.999654">
        <ele>496.419199</ele>
        <time>2021-11-15T20:50:35.585Z</time>
      </trkpt>
      <trkpt lat="47.572591" lon="7.999615">
        <ele>496.539652</ele>
        <time>2021-11-15T20:50:37.460Z</time>
      </trkpt>
      <trkpt lat="47.572624" lon="7.999441">
        <ele>497.083916</ele>
        <time>2021-11-15T20:50:45.930Z</time>
      </trkpt>
      <trkpt lat="47.572588" lon="7.999397">
        <ele>497.292178</ele>
        <time>2021-11-15T20:50:49.138Z</time>
      </trkpt>
      <trkpt lat="47.572623" lon="7.999326">
        <ele>497.556967</ele>
        <time>2021-11-15T20:50:51.405Z</time>
      </trkpt>
      <trkpt lat="47.572684" lon="7.999259">
        <ele>497.895836</ele>
        <time>2021-11-15T20:50:52.966Z</time>
      </trkpt>
      <trkpt lat="47.572737" lon="7.999234">
        <ele>498.144084</ele>
        <time>2021-11-15T20:50:54.300Z</time>
      </trkpt>
      <trkpt lat="47.572777" lon="7.999223">
        <ele>498.325665</ele>
        <time>2021-11-15T20:50:55.803Z</time>
      </trkpt>
      <trkpt lat="47.573315" lon="7.999386">
        <ele>500.776604</ele>
        <time>2021-11-15T20:51:12.960Z</time>
      </trkpt>
      <trkpt lat="47.573715" lon="7.999508">
        <ele>502.599354</ele>
        <time>2021-11-15T20:51:27.142Z</time>
      </trkpt>
      <trkpt lat="47.573776" lon="7.999524">
        <ele>502.875849</ele>
        <time>2021-11-15T20:51:29.368Z</time>
      </trkpt>
      <trkpt lat="47.573866" lon="7.999552">
        <ele>503.286304</ele>
        <time>2021-11-15T20:51:33.319Z</time>
      </trkpt>
      <trkpt lat="47.574018" lon="7.999596">
        <ele>504.227987</ele>
        <time>2021-11-15T20:51:39.810Z</time>
      </trkpt>
      <trkpt lat="47.574575" lon="7.999662">
        <ele>508.548684</ele>
        <time>2021-11-15T20:52:04.222Z</time>
      </trkpt>
      <trkpt lat="47.574980" lon="7.999619">
        <ele>511.688337</ele>
        <time>2021-11-15T20:52:24.077Z</time>
      </trkpt>
      <trkpt lat="47.575287" lon="7.999480">
        <ele>514.170460</ele>
        <time>2021-11-15T20:52:39.729Z</time>
      </trkpt>
      <trkpt lat="47.575566" lon="7.999346">
        <ele>516.438222</ele>
        <time>2021-11-15T20:52:54.059Z</time>
      </trkpt>
      <trkpt lat="47.575987" lon="7.999032">
        <ele>519.942994</ele>
        <time>2021-11-15T20:53:15.893Z</time>
      </trkpt>
      <trkpt lat="47.576107" lon="7.998921">
        <ele>520.976661</ele>
        <time>2021-11-15T20:53:22.987Z</time>
      </trkpt>
      <trkpt lat="47.576470" lon="7.998500">
        <ele>524.344839</ele>
        <time>2021-11-15T20:53:44.105Z</time>
      </trkpt>
      <trkpt lat="47.576631" lon="7.998208">
        <ele>526.204007</ele>
        <time>2021-11-15T20:53:55.313Z</time>
      </trkpt>
      <trkpt lat="47.576808" lon="7.997691">
        <ele>529.062178</ele>
        <time>2021-11-15T20:54:11.595Z</time>
      </trkpt>
      <trkpt lat="47.576985" lon="7.996833">
        <ele>532.941933</ele>
        <time>2021-11-15T20:54:34.938Z</time>
      </trkpt>
      <trkpt lat="47.577129" lon="7.996491">
        <ele>534.543366</ele>
        <time>2021-11-15T20:54:45.207Z</time>
      </trkpt>
      <trkpt lat="47.577911" lon="7.995693">
        <ele>540.133684</ele>
        <time>2021-11-15T20:55:21.398Z</time>
      </trkpt>
      <trkpt lat="47.578154" lon="7.995336">
        <ele>542.054395</ele>
        <time>2021-11-15T20:55:34.492Z</time>
      </trkpt>
      <trkpt lat="47.578180" lon="7.995275">
        <ele>542.310083</ele>
        <time>2021-11-15T20:55:36.617Z</time>
      </trkpt>
      <trkpt lat="47.578303" lon="7.994990">
        <ele>543.508986</ele>
        <time>2021-11-15T20:55:45.665Z</time>
      </trkpt>
      <trkpt lat="47.578718" lon="7.993614">
        <ele>548.849996</ele>
        <time>2021-11-15T20:56:22.440Z</time>
      </trkpt>
      <trkpt lat="47.578838" lon="7.993259">
        <ele>550.257034</ele>
        <time>2021-11-15T20:56:30.886Z</time>
      </trkpt>
      <trkpt lat="47.578897" lon="7.993124">
        <ele>550.813670</ele>
        <time>2021-11-15T20:56:34.597Z</time>
      </trkpt>
      <trkpt lat="47.579219" lon="7.992722">
        <ele>552.730119</ele>
        <time>2021-11-15T20:56:47.759Z</time>
      </trkpt>
      <trkpt lat="47.579605" lon="7.992545">
        <ele>554.569486</ele>
        <time>2021-11-15T20:56:59.785Z</time>
      </trkpt>
      <trkpt lat="47.579905" lon="7.992529">
        <ele>555.936085</ele>
        <time>2021-11-15T20:57:10.035Z</time>
      </trkpt>
      <trkpt lat="47.580472" lon="7.992684">
        <ele>558.560806</ele>
        <time>2021-11-15T20:57:28.759Z</time>
      </trkpt>
      <trkpt lat="47.580510" lon="7.992660">
        <ele>558.748842</ele>
        <time>2021-11-15T20:57:30.847Z</time>
      </trkpt>
      <trkpt lat="47.580618" lon="7.992910">
        <ele>560.108719</ele>
        <time>2021-11-15T20:57:37.783Z</time>
      </trkpt>
      <trkpt lat="47.580746" lon="7.993147">
        <ele>561.601593</ele>
        <time>2021-11-15T20:57:45.505Z</time>
      </trkpt>
      <trkpt lat="47.580922" lon="7.993422">
        <ele>563.465583</ele>
        <time>2021-11-15T20:57:54.691Z</time>
      </trkpt>
      <trkpt lat="47.581061" lon="7.993595">
        <ele>564.788567</ele>
        <time>2021-11-15T20:58:03.023Z</time>
      </trkpt>
      <trkpt lat="47.581631" lon="7.994181">
        <ele>569.844929</ele>
        <time>2021-11-15T20:58:33.630Z</time>
      </trkpt>
      <trkpt lat="47.582041" lon="7.994482">
        <ele>573.388124</ele>
        <time>2021-11-15T20:59:00.356Z</time>
      </trkpt>
      <trkpt lat="47.582354" lon="7.994436">
        <ele>576.094472</ele>
        <time>2021-11-15T20:59:18.315Z</time>
      </trkpt>
      <trkpt lat="47.582850" lon="7.994143">
        <ele>580.688527</ele>
        <time>2021-11-15T20:59:44.033Z</time>
      </trkpt>
      <trkpt lat="47.582981" lon="7.994223">
        <ele>581.907575</ele>
        <time>2021-11-15T20:59:49.585Z</time>
      </trkpt>
      <trkpt lat="47.582994" lon="7.994245">
        <ele>582.077324</ele>
        <time>2021-11-15T20:59:51.828Z</time>
      </trkpt>
      <trkpt lat="47.583068" lon="7.994495">
        <ele>583.661828</ele>
        <time>2021-11-15T20:59:59.217Z</time>
      </trkpt>
      <trkpt lat="47.582956" lon="7.995058">
        <ele>587.068505</ele>
        <time>2021-11-15T21:00:16.724Z</time>
      </trkpt>
      <trkpt lat="47.582924" lon="7.995208">
        <ele>587.850236</ele>
        <time>2021-11-15T21:00:20.581Z</time>
      </trkpt>
      <trkpt lat="47.582884" lon="7.995369">
        <ele>588.573125</ele>
        <time>2021-11-15T21:00:28.027Z</time>
      </trkpt>
      <trkpt lat="47.582889" lon="7.995812">
        <ele>590.439870</ele>
        <time>2021-11-15T21:00:41.369Z</time>
      </trkpt>
      <trkpt lat="47.583057" lon="7.996223">
        <ele>592.464673</ele>
        <time>2021-11-15T21:00:53.242Z</time>
      </trkpt>
      <trkpt lat="47.583085" lon="7.996290">
        <ele>592.796751</ele>
        <time>2021-11-15T21:00:57.212Z</time>
      </trkpt>
      <trkpt lat="47.583357" lon="7.996485">
        <ele>594.683969</ele>
        <time>2021-11-15T21:01:07.048Z</time>
      </trkpt>
      <trkpt lat="47.583554" lon="7.996491">
        <ele>595.914752</ele>
        <time>2021-11-15T21:01:13.458Z</time>
      </trkpt>
      <trkpt lat="47.584002" lon="7.996337">
        <ele>598.800585</ele>
        <time>2021-11-15T21:01:29.463Z</time>
      </trkpt>
      <trkpt lat="47.584188" lon="7.996318">
        <ele>600.272910</ele>
        <time>2021-11-15T21:01:35.974Z</time>
      </trkpt>
      <trkpt lat="47.585324" lon="7.996614">
        <ele>609.381399</ele>
        <time>2021-11-15T21:02:28.081Z</time>
      </trkpt>
      <trkpt lat="47.586010" lon="7.996485">
        <ele>615.115841</ele>
        <time>2021-11-15T21:03:07.057Z</time>
      </trkpt>
      <trkpt lat="47.586027" lon="7.996473">
        <ele>615.285936</ele>
        <time>2021-11-15T21:03:08.641Z</time>
      </trkpt>
      <trkpt lat="47.586377" lon="7.996241">
        <ele>618.749437</ele>
        <time>2021-11-15T21:03:29.506Z</time>
      </trkpt>
      <trkpt lat="47.586511" lon="7.996110">
        <ele>620.199459</ele>
        <time>2021-11-15T21:03:40.076Z</time>
      </trkpt>
      <trkpt lat="47.586622" lon="7.995984">
        <ele>621.462380</ele>
        <time>2021-11-15T21:03:45.692Z</time>
      </trkpt>
      <trkpt lat="47.586778" lon="7.995749">
        <ele>623.471467</ele>
        <time>2021-11-15T21:03:59.333Z</time>
      </trkpt>
      <trkpt lat="47.587069" lon="7.995057">
        <ele>628.440315</ele>
        <time>2021-11-15T21:04:25.597Z</time>
      </trkpt>
      <trkpt lat="47.587615" lon="7.992977">
        <ele>635.865555</ele>
        <time>2021-11-15T21:05:18.868Z</time>
      </trkpt>
      <trkpt lat="47.587788" lon="7.992635">
        <ele>637.218744</ele>
        <time>2021-11-15T21:05:25.755Z</time>
      </trkpt>
      <trkpt lat="47.587950" lon="7.992314">
        <ele>638.025134</ele>
        <time>2021-11-15T21:05:31.793Z</time>
      </trkpt>
      <trkpt lat="47.588182" lon="7.992002">
        <ele>638.701120</ele>
        <time>2021-11-15T21:05:38.352Z</time>
      </trkpt>
      <trkpt lat="47.588784" lon="7.991274">
        <ele>640.377704</ele>
        <time>2021-11-15T21:05:56.218Z</time>
      </trkpt>
      <trkpt lat="47.588977" lon="7.991069">
        <ele>640.890091</ele>
        <time>2021-11-15T21:06:00.822Z</time>
      </trkpt>
      <trkpt lat="47.589147" lon="7.990836">
        <ele>641.389726</ele>
        <time>2021-11-15T21:06:06.517Z</time>
      </trkpt>
      <trkpt lat="47.589254" lon="7.990683">
        <ele>641.968150</ele>
        <time>2021-11-15T21:06:08.430Z</time>
      </trkpt>
      <trkpt lat="47.589334" lon="7.990467">
        <ele>642.794791</ele>
        <time>2021-11-15T21:06:15.037Z</time>
      </trkpt>
      <trkpt lat="47.589516" lon="7.989967">
        <ele>644.700734</ele>
        <time>2021-11-15T21:06:25.870Z</time>
      </trkpt>
      <trkpt lat="47.589661" lon="7.989741">
        <ele>645.747092</ele>
        <time>2021-11-15T21:06:29.969Z</time>
      </trkpt>
      <trkpt lat="47.589745" lon="7.989634">
        <ele>646.297897</ele>
        <time>2021-11-15T21:06:36.831Z</time>
      </trkpt>
      <trkpt lat="47.589802" lon="7.989594">
        <ele>646.611552</ele>
        <time>2021-11-15T21:06:39.218Z</time>
      </trkpt>
      <trkpt lat="47.589888" lon="7.989555">
        <ele>647.058856</ele>
        <time>2021-11-15T21:06:41.666Z</time>
      </trkpt>
      <trkpt lat="47.590153" lon="7.989440">
        <ele>648.432199</ele>
        <time>2021-11-15T21:06:54.007Z</time>
      </trkpt>
      <trkpt lat="47.590332" lon="7.989372">
        <ele>649.351261</ele>
        <time>2021-11-15T21:06:59.428Z</time>
      </trkpt>
      <trkpt lat="47.590392" lon="7.989205">
        <ele>649.985985</ele>
        <time>2021-11-15T21:07:07.795Z</time>
      </trkpt>
      <trkpt lat="47.590455" lon="7.988871">
        <ele>651.184441</ele>
        <time>2021-11-15T21:07:15.347Z</time>
      </trkpt>
      <trkpt lat="47.590456" lon="7.988863">
        <ele>651.213121</ele>
        <time>2021-11-15T21:07:15.819Z</time>
      </trkpt>
      <trkpt lat="47.590487" lon="7.988606">
        <ele>652.133400</ele>
        <time>2021-11-15T21:07:26.138Z</time>
      </trkpt>
      <trkpt lat="47.590529" lon="7.988254">
        <ele>653.393439</ele>
        <time>2021-11-15T21:07:35.335Z</time>
      </trkpt>
      <trkpt lat="47.590598" lon="7.987915">
        <ele>654.641618</ele>
        <time>2021-11-15T21:07:46.464Z</time>
      </trkpt>
      <trkpt lat="47.590902" lon="7.986783">
        <ele>658.936510</ele>
        <time>2021-11-15T21:08:12.913Z</time>
      </trkpt>
      <trkpt lat="47.591034" lon="7.986459">
        <ele>659.904296</ele>
        <time>2021-11-15T21:08:21.569Z</time>
      </trkpt>
      <trkpt lat="47.591143" lon="7.986333">
        <ele>659.982445</ele>
        <time>2021-11-15T21:08:23.082Z</time>
      </trkpt>
      <trkpt lat="47.591392" lon="7.986243">
        <ele>660.127362</ele>
        <time>2021-11-15T21:08:29.089Z</time>
      </trkpt>
      <trkpt lat="47.591589" lon="7.986285">
        <ele>660.239899</ele>
        <time>2021-11-15T21:08:31.744Z</time>
      </trkpt>
      <trkpt lat="47.591744" lon="7.986404">
        <ele>660.338593</ele>
        <time>2021-11-15T21:08:33.827Z</time>
      </trkpt>
      <trkpt lat="47.591825" lon="7.986496">
        <ele>660.396286</ele>
        <time>2021-11-15T21:08:34.845Z</time>
      </trkpt>
      <trkpt lat="47.591989" lon="7.986949">
        <ele>660.592347</ele>
        <time>2021-11-15T21:08:39.487Z</time>
      </trkpt>
      <trkpt lat="47.591872" lon="7.987834">
        <ele>661.222632</ele>
        <time>2021-11-15T21:08:49.136Z</time>
      </trkpt>
      <trkpt lat="47.591874" lon="7.987958">
        <ele>661.497997</ele>
        <time>2021-11-15T21:08:50.008Z</time>
      </trkpt>
      <trkpt lat="47.591910" lon="7.988145">
        <ele>661.929731</ele>
        <time>2021-11-15T21:08:53.986Z</time>
      </trkpt>
      <trkpt lat="47.591971" lon="7.988287">
        <ele>662.303501</ele>
        <time>2021-11-15T21:08:55.924Z</time>
      </trkpt>
      <trkpt lat="47.592119" lon="7.988433">
        <ele>662.888666</ele>
        <time>2021-11-15T21:08:59.154Z</time>
      </trkpt>
      <trkpt lat="47.592324" lon="7.988430">
        <ele>663.563532</ele>
        <time>2021-11-15T21:09:05.695Z</time>
      </trkpt>
      <trkpt lat="47.592751" lon="7.988147">
        <ele>665.103177</ele>
        <time>2021-11-15T21:09:20.140Z</time>
      </trkpt>
      <trkpt lat="47.593485" lon="7.987901">
        <ele>667.753204</ele>
        <time>2021-11-15T21:09:48.784Z</time>
      </trkpt>
      <trkpt lat="47.594497" lon="7.987070">
        <ele>672.402311</ele>
        <time>2021-11-15T21:10:25.883Z</time>
      </trkpt>
      <trkpt lat="47.594655" lon="7.986957">
        <ele>673.107296</ele>
        <time>2021-11-15T21:10:30.348Z</time>
      </trkpt>
      <trkpt lat="47.594863" lon="7.986909">
        <ele>673.953292</ele>
        <time>2021-11-15T21:10:35.532Z</time>
      </trkpt>
      <trkpt lat="47.595069" lon="7.987007">
        <ele>674.432360</ele>
        <time>2021-11-15T21:10:40.395Z</time>
      </trkpt>
      <trkpt lat="47.595203" lon="7.987220">
        <ele>674.834841</ele>
        <time>2021-11-15T21:10:44.693Z</time>
      </trkpt>
      <trkpt lat="47.595223" lon="7.987252">
        <ele>674.895124</ele>
        <time>2021-11-15T21:10:45.301Z</time>
      </trkpt>
      <trkpt lat="47.595279" lon="7.987696">
        <ele>675.519233</ele>
        <time>2021-11-15T21:10:51.788Z</time>
      </trkpt>
      <trkpt lat="47.595231" lon="7.988803">
        <ele>677.051925</ele>
        <time>2021-11-15T21:11:07.524Z</time>
      </trkpt>
      <trkpt lat="47.595288" lon="7.989057">
        <ele>677.421797</ele>
        <time>2021-11-15T21:11:11.697Z</time>
      </trkpt>
      <trkpt lat="47.595392" lon="7.989263">
        <ele>677.854522</ele>
        <time>2021-11-15T21:11:15.912Z</time>
      </trkpt>
      <trkpt lat="47.595627" lon="7.989468">
        <ele>679.068366</ele>
        <time>2021-11-15T21:11:23.065Z</time>
      </trkpt>
      <trkpt lat="47.595940" lon="7.989500">
        <ele>680.465172</ele>
        <time>2021-11-15T21:11:32.143Z</time>
      </trkpt>
      <trkpt lat="47.596445" lon="7.989273">
        <ele>682.814490</ele>
        <time>2021-11-15T21:11:48.836Z</time>
      </trkpt>
      <trkpt lat="47.597197" lon="7.988790">
        <ele>686.820709</ele>
        <time>2021-11-15T21:12:20.555Z</time>
      </trkpt>
      <trkpt lat="47.597809" lon="7.988272">
        <ele>691.466868</ele>
        <time>2021-11-15T21:12:51.324Z</time>
      </trkpt>
      <trkpt lat="47.598168" lon="7.987924">
        <ele>694.294728</ele>
        <time>2021-11-15T21:13:09.568Z</time>
      </trkpt>
      <trkpt lat="47.598432" lon="7.987661">
        <ele>696.391677</ele>
        <time>2021-11-15T21:13:22.436Z</time>
      </trkpt>
      <trkpt lat="47.598468" lon="7.987626">
        <ele>696.675501</ele>
        <time>2021-11-15T21:13:24.198Z</time>
      </trkpt>
      <trkpt lat="47.598718" lon="7.987384">
        <ele>698.569140</ele>
        <time>2021-11-15T21:13:35.892Z</time>
      </trkpt>
      <trkpt lat="47.598970" lon="7.987189">
        <ele>700.311720</ele>
        <time>2021-11-15T21:13:46.925Z</time>
      </trkpt>
      <trkpt lat="47.599584" lon="7.986808">
        <ele>704.392140</ele>
        <time>2021-11-15T21:14:11.630Z</time>
      </trkpt>
      <trkpt lat="47.600674" lon="7.986173">
        <ele>712.386593</ele>
        <time>2021-11-15T21:14:58.865Z</time>
      </trkpt>
      <trkpt lat="47.600869" lon="7.986065">
        <ele>714.013307</ele>
        <time>2021-11-15T21:15:10.132Z</time>
      </trkpt>
      <trkpt lat="47.600959" lon="7.986011">
        <ele>714.772033</ele>
        <time>2021-11-15T21:15:14.435Z</time>
      </trkpt>
      <trkpt lat="47.601244" lon="7.985812">
        <ele>717.233802</ele>
        <time>2021-11-15T21:15:30.744Z</time>
      </trkpt>
      <trkpt lat="47.601616" lon="7.985439">
        <ele>720.743050</ele>
        <time>2021-11-15T21:15:51.751Z</time>
      </trkpt>
      <trkpt lat="47.601702" lon="7.985353">
        <ele>721.553645</ele>
        <time>2021-11-15T21:15:56.389Z</time>
      </trkpt>
      <trkpt lat="47.601786" lon="7.985227">
        <ele>722.487328</ele>
        <time>2021-11-15T21:16:03.870Z</time>
      </trkpt>
      <trkpt lat="47.601944" lon="7.984990">
        <ele>723.607883</ele>
        <time>2021-11-15T21:16:12.656Z</time>
      </trkpt>
      <trkpt lat="47.602072" lon="7.984743">
        <ele>724.589882</ele>
        <time>2021-11-15T21:16:23.264Z</time>
      </trkpt>
      <trkpt lat="47.602182" lon="7.984530">
        <ele>725.435622</ele>
        <time>2021-11-15T21:16:30.177Z</time>
      </trkpt>
      <trkpt lat="47.602644" lon="7.983742">
        <ele>728.727296</ele>
        <time>2021-11-15T21:16:54.370Z</time>
      </trkpt>
      <trkpt lat="47.602721" lon="7.983621">
        <ele>729.251762</ele>
        <time>2021-11-15T21:16:59.347Z</time>
      </trkpt>
      <trkpt lat="47.602904" lon="7.983364">
        <ele>730.429994</ele>
        <time>2021-11-15T21:17:04.545Z</time>
      </trkpt>
      <trkpt lat="47.603580" lon="7.982596">
        <ele>729.282756</ele>
        <time>2021-11-15T21:17:15.196Z</time>
      </trkpt>
      <trkpt lat="47.604541" lon="7.981767">
        <ele>726.409160</ele>
        <time>2021-11-15T21:17:26.162Z</time>
      </trkpt>
      <trkpt lat="47.604554" lon="7.981735">
        <ele>726.261688</ele>
        <time>2021-11-15T21:17:26.399Z</time>
      </trkpt>
      <trkpt lat="47.604742" lon="7.981251">
        <ele>724.056813</ele>
        <time>2021-11-15T21:17:29.838Z</time>
      </trkpt>
      <trkpt lat="47.604737" lon="7.980685">
        <ele>721.822431</ele>
        <time>2021-11-15T21:17:33.299Z</time>
      </trkpt>
      <trkpt lat="47.604707" lon="7.980526">
        <ele>721.170693</ele>
        <time>2021-11-15T21:17:34.276Z</time>
      </trkpt>
      <trkpt lat="47.604684" lon="7.980290">
        <ele>720.229440</ele>
        <time>2021-11-15T21:17:35.750Z</time>
      </trkpt>
      <trkpt lat="47.604721" lon="7.979790">
        <ele>718.243921</ele>
        <time>2021-11-15T21:17:38.852Z</time>
      </trkpt>
      <trkpt lat="47.604731" lon="7.979649">
        <ele>717.684276</ele>
        <time>2021-11-15T21:17:39.773Z</time>
      </trkpt>
      <trkpt lat="47.604776" lon="7.979454">
        <ele>716.870709</ele>
        <time>2021-11-15T21:17:41.012Z</time>
      </trkpt>
      <trkpt lat="47.604918" lon="7.978996">
        <ele>715.343222</ele>
        <time>2021-11-15T21:17:44.176Z</time>
      </trkpt>
      <trkpt lat="47.604988" lon="7.978584">
        <ele>714.334387</ele>
        <time>2021-11-15T21:17:46.890Z</time>
      </trkpt>
      <trkpt lat="47.605075" lon="7.977483">
        <ele>711.702284</ele>
        <time>2021-11-15T21:17:54.204Z</time>
      </trkpt>
      <trkpt lat="47.605067" lon="7.977336">
        <ele>711.352112</ele>
        <time>2021-11-15T21:17:55.198Z</time>
      </trkpt>
      <trkpt lat="47.605029" lon="7.976646">
        <ele>709.708322</ele>
        <time>2021-11-15T21:18:00.726Z</time>
      </trkpt>
      <trkpt lat="47.604916" lon="7.975943">
        <ele>709.947254</ele>
        <time>2021-11-15T21:18:06.934Z</time>
      </trkpt>
      <trkpt lat="47.604837" lon="7.975632">
        <ele>710.057777</ele>
        <time>2021-11-15T21:18:10.040Z</time>
      </trkpt>
      <trkpt lat="47.604722" lon="7.975230">
        <ele>710.203002</ele>
        <time>2021-11-15T21:18:15.085Z</time>
      </trkpt>
      <trkpt lat="47.604645" lon="7.974490">
        <ele>710.452010</ele>
        <time>2021-11-15T21:18:25.047Z</time>
      </trkpt>
      <trkpt lat="47.604708" lon="7.974012">
        <ele>710.682371</ele>
        <time>2021-11-15T21:18:32.570Z</time>
      </trkpt>
      <trkpt lat="47.604760" lon="7.973795">
        <ele>711.024300</ele>
        <time>2021-11-15T21:18:36.978Z</time>
      </trkpt>
      <trkpt lat="47.604831" lon="7.973588">
        <ele>711.369119</ele>
        <time>2021-11-15T21:18:40.180Z</time>
      </trkpt>
      <trkpt lat="47.604839" lon="7.973573">
        <ele>711.397515</ele>
        <time>2021-11-15T21:18:40.479Z</time>
      </trkpt>
      <trkpt lat="47.604857" lon="7.973536">
        <ele>711.465257</ele>
        <time>2021-11-15T21:18:41.205Z</time>
      </trkpt>
      <trkpt lat="47.604923" lon="7.973403">
        <ele>711.710442</ele>
        <time>2021-11-15T21:18:44.763Z</time>
      </trkpt>
      <trkpt lat="47.605374" lon="7.972905">
        <ele>712.948586</ele>
        <time>2021-11-15T21:18:57.098Z</time>
      </trkpt>
      <trkpt lat="47.605516" lon="7.972819">
        <ele>713.286344</ele>
        <time>2021-11-15T21:19:01.628Z</time>
      </trkpt>
      <trkpt lat="47.605644" lon="7.972831">
        <ele>713.568771</ele>
        <time>2021-11-15T21:19:04.298Z</time>
      </trkpt>
      <trkpt lat="47.605871" lon="7.972904">
        <ele>714.080254</ele>
        <time>2021-11-15T21:19:09.902Z</time>
      </trkpt>
      <trkpt lat="47.605981" lon="7.973005">
        <ele>714.365140</ele>
        <time>2021-11-15T21:19:12.880Z</time>
      </trkpt>
      <trkpt lat="47.606058" lon="7.973155">
        <ele>714.636795</ele>
        <time>2021-11-15T21:19:15.333Z</time>
      </trkpt>
      <trkpt lat="47.606116" lon="7.973296">
        <ele>714.859562</ele>
        <time>2021-11-15T21:19:19.196Z</time>
      </trkpt>
      <trkpt lat="47.606300" lon="7.973918">
        <ele>715.775650</ele>
        <time>2021-11-15T21:19:29.216Z</time>
      </trkpt>
      <trkpt lat="47.606402" lon="7.974261">
        <ele>716.281253</ele>
        <time>2021-11-15T21:19:34.517Z</time>
      </trkpt>
      <trkpt lat="47.606512" lon="7.974504">
        <ele>716.676004</ele>
        <time>2021-11-15T21:19:38.574Z</time>
      </trkpt>
      <trkpt lat="47.606683" lon="7.974772">
        <ele>717.173653</ele>
        <time>2021-11-15T21:19:43.857Z</time>
      </trkpt>
      <trkpt lat="47.606683" lon="7.974772">
        <ele>717.173653</ele>
        <time>2021-11-15T21:19:43.913Z</time>
      </trkpt>
      <trkpt lat="47.606836" lon="7.974966">
        <ele>717.576307</ele>
        <time>2021-11-15T21:19:47.617Z</time>
      </trkpt>
      <trkpt lat="47.607002" lon="7.975117">
        <ele>717.965846</ele>
        <time>2021-11-15T21:19:52.469Z</time>
      </trkpt>
      <trkpt lat="47.607293" lon="7.975219">
        <ele>719.495066</ele>
        <time>2021-11-15T21:19:59.174Z</time>
      </trkpt>
      <trkpt lat="47.607703" lon="7.975163">
        <ele>722.184329</ele>
        <time>2021-11-15T21:20:11.840Z</time>
      </trkpt>
      <trkpt lat="47.607811" lon="7.975152">
        <ele>722.891397</ele>
        <time>2021-11-15T21:20:15.184Z</time>
      </trkpt>
      <trkpt lat="47.607949" lon="7.975198">
        <ele>723.815231</ele>
        <time>2021-11-15T21:20:20.747Z</time>
      </trkpt>
      <trkpt lat="47.607949" lon="7.975198">
        <ele>723.815231</ele>
        <time>2021-11-15T21:20:20.935Z</time>
      </trkpt>
      <trkpt lat="47.608085" lon="7.975248">
        <ele>724.730401</ele>
        <time>2021-11-15T21:20:27.438Z</time>
      </trkpt>
      <trkpt lat="47.608361" lon="7.975503">
        <ele>726.854233</ele>
        <time>2021-11-15T21:20:43.937Z</time>
      </trkpt>
      <trkpt lat="47.608764" lon="7.976082">
        <ele>730.665348</ele>
        <time>2021-11-15T21:21:12.171Z</time>
      </trkpt>
      <trkpt lat="47.608829" lon="7.976172">
        <ele>731.383847</ele>
        <time>2021-11-15T21:21:19.656Z</time>
      </trkpt>
      <trkpt lat="47.609057" lon="7.976492">
        <ele>733.920188</ele>
        <time>2021-11-15T21:21:34.518Z</time>
      </trkpt>
      <trkpt lat="47.609083" lon="7.976509">
        <ele>734.149783</ele>
        <time>2021-11-15T21:21:37.612Z</time>
      </trkpt>
      <trkpt lat="47.609225" lon="7.976647">
        <ele>735.521534</ele>
        <time>2021-11-15T21:21:45.750Z</time>
      </trkpt>
      <trkpt lat="47.609405" lon="7.976774">
        <ele>737.132155</ele>
        <time>2021-11-15T21:21:56.680Z</time>
      </trkpt>
      <trkpt lat="47.609554" lon="7.976848">
        <ele>738.401818</ele>
        <time>2021-11-15T21:22:03.492Z</time>
      </trkpt>
      <trkpt lat="47.609734" lon="7.976902">
        <ele>739.885726</ele>
        <time>2021-11-15T21:22:12.733Z</time>
      </trkpt>
      <trkpt lat="47.609956" lon="7.976908">
        <ele>741.679855</ele>
        <time>2021-11-15T21:22:22.747Z</time>
      </trkpt>
      <trkpt lat="47.610048" lon="7.976910">
        <ele>742.423325</ele>
        <time>2021-11-15T21:22:26.690Z</time>
      </trkpt>
      <trkpt lat="47.611343" lon="7.976840">
        <ele>746.018797</ele>
        <time>2021-11-15T21:23:07.943Z</time>
      </trkpt>
      <trkpt lat="47.611549" lon="7.976724">
        <ele>746.352233</ele>
        <time>2021-11-15T21:23:10.958Z</time>
      </trkpt>
      <trkpt lat="47.611588" lon="7.976702">
        <ele>746.415373</ele>
        <time>2021-11-15T21:23:11.405Z</time>
      </trkpt>
      <trkpt lat="47.611711" lon="7.976600">
        <ele>746.628615</ele>
        <time>2021-11-15T21:23:12.933Z</time>
      </trkpt>
      <trkpt lat="47.611876" lon="7.976376">
        <ele>746.967086</ele>
        <time>2021-11-15T21:23:15.107Z</time>
      </trkpt>
      <trkpt lat="47.612133" lon="7.975906">
        <ele>745.905322</ele>
        <time>2021-11-15T21:23:19.135Z</time>
      </trkpt>
      <trkpt lat="47.612223" lon="7.975718">
        <ele>745.218092</ele>
        <time>2021-11-15T21:23:20.737Z</time>
      </trkpt>
      <trkpt lat="47.612357" lon="7.975517">
        <ele>744.375565</ele>
        <time>2021-11-15T21:23:22.491Z</time>
      </trkpt>
      <trkpt lat="47.612535" lon="7.975326">
        <ele>743.404301</ele>
        <time>2021-11-15T21:23:24.592Z</time>
      </trkpt>
      <trkpt lat="47.612717" lon="7.975295">
        <ele>742.594378</ele>
        <time>2021-11-15T21:23:26.365Z</time>
      </trkpt>
      <trkpt lat="47.612866" lon="7.975328">
        <ele>741.928335</ele>
        <time>2021-11-15T21:23:27.865Z</time>
      </trkpt>
      <trkpt lat="47.612866" lon="7.975328">
        <ele>741.928335</ele>
        <time>2021-11-15T21:23:27.883Z</time>
      </trkpt>
      <trkpt lat="47.612962" lon="7.975399">
        <ele>741.454084</ele>
        <time>2021-11-15T21:23:28.884Z</time>
      </trkpt>
      <trkpt lat="47.613184" lon="7.975689">
        <ele>740.146283</ele>
        <time>2021-11-15T21:23:31.702Z</time>
      </trkpt>
      <trkpt lat="47.613266" lon="7.975808">
        <ele>739.639119</ele>
        <time>2021-11-15T21:23:32.772Z</time>
      </trkpt>
      <trkpt lat="47.613439" lon="7.976020">
        <ele>738.684147</ele>
        <time>2021-11-15T21:23:34.890Z</time>
      </trkpt>
      <trkpt lat="47.613802" lon="7.976286">
        <ele>737.013334</ele>
        <time>2021-11-15T21:23:38.695Z</time>
      </trkpt>
      <trkpt lat="47.614050" lon="7.976273">
        <ele>735.989265</ele>
        <time>2021-11-15T21:23:41.167Z</time>
      </trkpt>
      <trkpt lat="47.614735" lon="7.975625">
        <ele>732.636579</ele>
        <time>2021-11-15T21:23:49.260Z</time>
      </trkpt>
      <trkpt lat="47.615223" lon="7.975285">
        <ele>730.765850</ele>
        <time>2021-11-15T21:23:54.523Z</time>
      </trkpt>
      <trkpt lat="47.615388" lon="7.975207">
        <ele>730.235935</ele>
        <time>2021-11-15T21:23:56.218Z</time>
      </trkpt>
      <trkpt lat="47.615835" lon="7.975151">
        <ele>728.863249</ele>
        <time>2021-11-15T21:24:00.551Z</time>
      </trkpt>
      <trkpt lat="47.616374" lon="7.975153">
        <ele>727.213908</ele>
        <time>2021-11-15T21:24:06.011Z</time>
      </trkpt>
      <trkpt lat="47.616605" lon="7.975163">
        <ele>726.506749</ele>
        <time>2021-11-15T21:24:08.758Z</time>
      </trkpt>
      <trkpt lat="47.616823" lon="7.975315">
        <ele>726.538057</ele>
        <time>2021-11-15T21:24:12.477Z</time>
      </trkpt>
      <trkpt lat="47.616932" lon="7.975644">
        <ele>726.924959</ele>
        <time>2021-11-15T21:24:15.329Z</time>
      </trkpt>
      <trkpt lat="47.617035" lon="7.976194">
        <ele>727.527417</ele>
        <time>2021-11-15T21:24:21.982Z</time>
      </trkpt>
      <trkpt lat="47.617050" lon="7.976280">
        <ele>727.621171</ele>
        <time>2021-11-15T21:24:24.706Z</time>
      </trkpt>
      <trkpt lat="47.617087" lon="7.976456">
        <ele>727.815746</ele>
        <time>2021-11-15T21:24:26.098Z</time>
      </trkpt>
      <trkpt lat="47.617122" lon="7.976576">
        <ele>727.953742</ele>
        <time>2021-11-15T21:24:27.757Z</time>
      </trkpt>
      <trkpt lat="47.617143" lon="7.976643">
        <ele>728.031724</ele>
        <time>2021-11-15T21:24:28.559Z</time>
      </trkpt>
      <trkpt lat="47.617183" lon="7.976739">
        <ele>728.150836</ele>
        <time>2021-11-15T21:24:32.822Z</time>
      </trkpt>
      <trkpt lat="47.617863" lon="7.977860">
        <ele>730.555409</ele>
        <time>2021-11-15T21:25:01.557Z</time>
      </trkpt>
      <trkpt lat="47.617897" lon="7.977926">
        <ele>730.753001</ele>
        <time>2021-11-15T21:25:05.568Z</time>
      </trkpt>
      <trkpt lat="47.618419" lon="7.978768">
        <ele>733.474146</ele>
        <time>2021-11-15T21:25:27.373Z</time>
      </trkpt>
      <trkpt lat="47.618571" lon="7.978991">
        <ele>734.228520</ele>
        <time>2021-11-15T21:25:32.630Z</time>
      </trkpt>
      <trkpt lat="47.618976" lon="7.979589">
        <ele>736.363100</ele>
        <time>2021-11-15T21:25:48.674Z</time>
      </trkpt>
      <trkpt lat="47.619073" lon="7.979702">
        <ele>736.862311</ele>
        <time>2021-11-15T21:25:52.019Z</time>
      </trkpt>
      <trkpt lat="47.619309" lon="7.979839">
        <ele>737.888101</ele>
        <time>2021-11-15T21:25:58.902Z</time>
      </trkpt>
      <trkpt lat="47.619731" lon="7.979949">
        <ele>739.622405</ele>
        <time>2021-11-15T21:26:12.048Z</time>
      </trkpt>
      <trkpt lat="47.619797" lon="7.980012">
        <ele>739.940074</ele>
        <time>2021-11-15T21:26:15.668Z</time>
      </trkpt>
      <trkpt lat="47.619965" lon="7.980295">
        <ele>740.968956</ele>
        <time>2021-11-15T21:26:22.836Z</time>
      </trkpt>
      <trkpt lat="47.620263" lon="7.981105">
        <ele>743.634599</ele>
        <time>2021-11-15T21:26:44.142Z</time>
      </trkpt>
      <trkpt lat="47.620533" lon="7.981699">
        <ele>745.967270</ele>
        <time>2021-11-15T21:27:01.730Z</time>
      </trkpt>
      <trkpt lat="47.620712" lon="7.982017">
        <ele>747.316198</ele>
        <time>2021-11-15T21:27:12.722Z</time>
      </trkpt>
      <trkpt lat="47.621148" lon="7.982684">
        <ele>750.341366</ele>
        <time>2021-11-15T21:27:34.108Z</time>
      </trkpt>
      <trkpt lat="47.621287" lon="7.982952">
        <ele>751.423589</ele>
        <time>2021-11-15T21:27:41.352Z</time>
      </trkpt>
      <trkpt lat="47.621414" lon="7.983181">
        <ele>751.831279</ele>
        <time>2021-11-15T21:27:46.883Z</time>
      </trkpt>
      <trkpt lat="47.621453" lon="7.983289">
        <ele>751.999720</ele>
        <time>2021-11-15T21:27:49.492Z</time>
      </trkpt>
      <trkpt lat="47.621773" lon="7.984199">
        <ele>753.410775</ele>
        <time>2021-11-15T21:28:06.517Z</time>
      </trkpt>
      <trkpt lat="47.621842" lon="7.984392">
        <ele>753.711117</ele>
        <time>2021-11-15T21:28:09.903Z</time>
      </trkpt>
      <trkpt lat="47.622067" lon="7.985017">
        <ele>754.685213</ele>
        <time>2021-11-15T21:28:19.330Z</time>
      </trkpt>
      <trkpt lat="47.622073" lon="7.985033">
        <ele>754.710384</ele>
        <time>2021-11-15T21:28:19.536Z</time>
      </trkpt>
      <trkpt lat="47.623009" lon="7.987520">
        <ele>754.152539</ele>
        <time>2021-11-15T21:28:45.458Z</time>
      </trkpt>
      <trkpt lat="47.623087" lon="7.987725">
        <ele>753.944701</ele>
        <time>2021-11-15T21:28:47.157Z</time>
      </trkpt>
      <trkpt lat="47.623303" lon="7.988291">
        <ele>753.167520</ele>
        <time>2021-11-15T21:28:51.961Z</time>
      </trkpt>
      <trkpt lat="47.623508" lon="7.988782">
        <ele>752.477396</ele>
        <time>2021-11-15T21:28:56.207Z</time>
      </trkpt>
      <trkpt lat="47.623561" lon="7.988865">
        <ele>752.340781</ele>
        <time>2021-11-15T21:28:57.081Z</time>
      </trkpt>
      <trkpt lat="47.623838" lon="7.989292">
        <ele>751.632645</ele>
        <time>2021-11-15T21:29:01.411Z</time>
      </trkpt>
      <trkpt lat="47.624001" lon="7.989485">
        <ele>751.262940</ele>
        <time>2021-11-15T21:29:03.655Z</time>
      </trkpt>
      <trkpt lat="47.624042" lon="7.989524">
        <ele>751.176600</ele>
        <time>2021-11-15T21:29:04.199Z</time>
      </trkpt>
      <trkpt lat="47.624491" lon="7.989945">
        <ele>750.851442</ele>
        <time>2021-11-15T21:29:10.286Z</time>
      </trkpt>
      <trkpt lat="47.625082" lon="7.990226">
        <ele>750.723745</ele>
        <time>2021-11-15T21:29:18.184Z</time>
      </trkpt>
      <trkpt lat="47.625165" lon="7.990242">
        <ele>750.706524</ele>
        <time>2021-11-15T21:29:19.290Z</time>
      </trkpt>
      <trkpt lat="47.625484" lon="7.990308">
        <ele>750.640251</ele>
        <time>2021-11-15T21:29:24.706Z</time>
      </trkpt>
      <trkpt lat="47.625865" lon="7.990306">
        <ele>750.567965</ele>
        <time>2021-11-15T21:29:32.341Z</time>
      </trkpt>
      <trkpt lat="47.626001" lon="7.990279">
        <ele>750.932240</ele>
        <time>2021-11-15T21:29:35.281Z</time>
      </trkpt>
      <trkpt lat="47.626059" lon="7.990262">
        <ele>751.089196</ele>
        <time>2021-11-15T21:29:36.745Z</time>
      </trkpt>
      <trkpt lat="47.626285" lon="7.990191">
        <ele>751.702490</ele>
        <time>2021-11-15T21:29:41.872Z</time>
      </trkpt>
      <trkpt lat="47.626641" lon="7.990055">
        <ele>752.678435</ele>
        <time>2021-11-15T21:29:51.107Z</time>
      </trkpt>
      <trkpt lat="47.626890" lon="7.989948">
        <ele>753.366653</ele>
        <time>2021-11-15T21:29:58.269Z</time>
      </trkpt>
      <trkpt lat="47.627037" lon="7.989869">
        <ele>753.781723</ele>
        <time>2021-11-15T21:30:02.499Z</time>
      </trkpt>
      <trkpt lat="47.627368" lon="7.989707">
        <ele>754.707044</ele>
        <time>2021-11-15T21:30:12.183Z</time>
      </trkpt>
      <trkpt lat="47.627745" lon="7.989499">
        <ele>755.889434</ele>
        <time>2021-11-15T21:30:23.685Z</time>
      </trkpt>
      <trkpt lat="47.627783" lon="7.989478">
        <ele>756.025280</ele>
        <time>2021-11-15T21:30:24.881Z</time>
      </trkpt>
      <trkpt lat="47.628500" lon="7.989076">
        <ele>758.593053</ele>
        <time>2021-11-15T21:30:46.608Z</time>
      </trkpt>
      <trkpt lat="47.629855" lon="7.988268">
        <ele>763.326182</ele>
        <time>2021-11-15T21:31:27.873Z</time>
      </trkpt>
      <trkpt lat="47.630656" lon="7.987791">
        <ele>766.000890</ele>
        <time>2021-11-15T21:31:50.333Z</time>
      </trkpt>
      <trkpt lat="47.631277" lon="7.987638">
        <ele>768.108732</ele>
        <time>2021-11-15T21:32:07.356Z</time>
      </trkpt>
      <trkpt lat="47.631642" lon="7.987687">
        <ele>769.420238</ele>
        <time>2021-11-15T21:32:18.295Z</time>
      </trkpt>
      <trkpt lat="47.632056" lon="7.987880">
        <ele>770.973148</ele>
        <time>2021-11-15T21:32:31.399Z</time>
      </trkpt>
      <trkpt lat="47.632243" lon="7.988006">
        <ele>771.708091</ele>
        <time>2021-11-15T21:32:37.240Z</time>
      </trkpt>
      <trkpt lat="47.632324" lon="7.988059">
        <ele>772.024881</ele>
        <time>2021-11-15T21:32:39.713Z</time>
      </trkpt>
      <trkpt lat="47.632441" lon="7.987837">
        <ele>772.704522</ele>
        <time>2021-11-15T21:32:45.460Z</time>
      </trkpt>
      <trkpt lat="47.632525" lon="7.987674">
        <ele>773.199366</ele>
        <time>2021-11-15T21:32:49.430Z</time>
      </trkpt>
      <trkpt lat="47.632587" lon="7.987560">
        <ele>773.580924</ele>
        <time>2021-11-15T21:32:52.701Z</time>
      </trkpt>
      <trkpt lat="47.633007" lon="7.986924">
        <ele>776.067308</ele>
        <time>2021-11-15T21:33:10.742Z</time>
      </trkpt>
      <trkpt lat="47.633442" lon="7.986219">
        <ele>778.736319</ele>
        <time>2021-11-15T21:33:31.436Z</time>
      </trkpt>
      <trkpt lat="47.633741" lon="7.985722">
        <ele>780.596584</ele>
        <time>2021-11-15T21:33:46.832Z</time>
      </trkpt>
      <trkpt lat="47.634382" lon="7.984814">
        <ele>783.292707</ele>
        <time>2021-11-15T21:34:13.340Z</time>
      </trkpt>
      <trkpt lat="47.634468" lon="7.984733">
        <ele>783.595136</ele>
        <time>2021-11-15T21:34:16.630Z</time>
      </trkpt>
      <trkpt lat="47.634506" lon="7.984696">
        <ele>783.730079</ele>
        <time>2021-11-15T21:34:18.147Z</time>
      </trkpt>
      <trkpt lat="47.634638" lon="7.984601">
        <ele>784.165657</ele>
        <time>2021-11-15T21:34:20.978Z</time>
      </trkpt>
      <trkpt lat="47.634817" lon="7.984495">
        <ele>784.737877</ele>
        <time>2021-11-15T21:34:26.409Z</time>
      </trkpt>
      <trkpt lat="47.635138" lon="7.984322">
        <ele>785.751861</ele>
        <time>2021-11-15T21:34:33.899Z</time>
      </trkpt>
      <trkpt lat="47.635311" lon="7.984184">
        <ele>786.184906</ele>
        <time>2021-11-15T21:34:37.359Z</time>
      </trkpt>
      <trkpt lat="47.635363" lon="7.984125">
        <ele>786.206173</ele>
        <time>2021-11-15T21:34:38.826Z</time>
      </trkpt>
      <trkpt lat="47.635550" lon="7.983913">
        <ele>786.282631</ele>
        <time>2021-11-15T21:34:43.576Z</time>
      </trkpt>
      <trkpt lat="47.636167" lon="7.983425">
        <ele>786.509793</ele>
        <time>2021-11-15T21:34:54.985Z</time>
      </trkpt>
      <trkpt lat="47.636362" lon="7.983140">
        <ele>786.598716</ele>
        <time>2021-11-15T21:34:58.403Z</time>
      </trkpt>
      <trkpt lat="47.636390" lon="7.983006">
        <ele>786.629432</ele>
        <time>2021-11-15T21:34:59.450Z</time>
      </trkpt>
      <trkpt lat="47.636470" lon="7.982623">
        <ele>786.717219</ele>
        <time>2021-11-15T21:35:02.615Z</time>
      </trkpt>
      <trkpt lat="47.636685" lon="7.980585">
        <ele>788.545990</ele>
        <time>2021-11-15T21:35:28.036Z</time>
      </trkpt>
      <trkpt lat="47.636717" lon="7.980417">
        <ele>788.710143</ele>
        <time>2021-11-15T21:35:30.876Z</time>
      </trkpt>
      <trkpt lat="47.636749" lon="7.980255">
        <ele>788.868874</ele>
        <time>2021-11-15T21:35:34.304Z</time>
      </trkpt>
      <trkpt lat="47.636898" lon="7.979438">
        <ele>790.473569</ele>
        <time>2021-11-15T21:35:49.628Z</time>
      </trkpt>
      <trkpt lat="47.636860" lon="7.978383">
        <ele>793.455672</ele>
        <time>2021-11-15T21:36:12.386Z</time>
      </trkpt>
      <trkpt lat="47.637178" lon="7.977129">
        <ele>797.258317</ele>
        <time>2021-11-15T21:36:43.633Z</time>
      </trkpt>
      <trkpt lat="47.637166" lon="7.976669">
        <ele>798.618590</ele>
        <time>2021-11-15T21:36:53.704Z</time>
      </trkpt>
      <trkpt lat="47.637104" lon="7.976387">
        <ele>799.495108</ele>
        <time>2021-11-15T21:36:59.931Z</time>
      </trkpt>
      <trkpt lat="47.636964" lon="7.975901">
        <ele>801.056922</ele>
        <time>2021-11-15T21:37:11.041Z</time>
      </trkpt>
      <trkpt lat="47.636945" lon="7.975599">
        <ele>801.953188</ele>
        <time>2021-11-15T21:37:17.429Z</time>
      </trkpt>
      <trkpt lat="47.637015" lon="7.975296">
        <ele>802.899687</ele>
        <time>2021-11-15T21:37:24.161Z</time>
      </trkpt>
      <trkpt lat="47.637233" lon="7.974898">
        <ele>804.415278</ele>
        <time>2021-11-15T21:37:35.424Z</time>
      </trkpt>
      <trkpt lat="47.638035" lon="7.974142">
        <ele>808.500428</ele>
        <time>2021-11-15T21:38:07.587Z</time>
      </trkpt>
      <trkpt lat="47.638252" lon="7.973962">
        <ele>809.567847</ele>
        <time>2021-11-15T21:38:15.031Z</time>
      </trkpt>
      <trkpt lat="47.638636" lon="7.973699">
        <ele>811.383781</ele>
        <time>2021-11-15T21:38:27.722Z</time>
      </trkpt>
      <trkpt lat="47.638659" lon="7.973682">
        <ele>811.494108</ele>
        <time>2021-11-15T21:38:28.860Z</time>
      </trkpt>
      <trkpt lat="47.638981" lon="7.973418">
        <ele>813.004142</ele>
        <time>2021-11-15T21:38:40.079Z</time>
      </trkpt>
      <trkpt lat="47.639090" lon="7.973306">
        <ele>813.514150</ele>
        <time>2021-11-15T21:38:44.105Z</time>
      </trkpt>
      <trkpt lat="47.639276" lon="7.972938">
        <ele>814.706574</ele>
        <time>2021-11-15T21:38:53.741Z</time>
      </trkpt>
      <trkpt lat="47.639406" lon="7.972397">
        <ele>816.195384</ele>
        <time>2021-11-15T21:39:05.822Z</time>
      </trkpt>
      <trkpt lat="47.639559" lon="7.972018">
        <ele>817.340598</ele>
        <time>2021-11-15T21:39:14.636Z</time>
      </trkpt>
      <trkpt lat="47.640091" lon="7.971291">
        <ele>820.305620</ele>
        <time>2021-11-15T21:39:34.559Z</time>
      </trkpt>
      <trkpt lat="47.640810" lon="7.969935">
        <ele>825.804479</ele>
        <time>2021-11-15T21:40:13.791Z</time>
      </trkpt>
      <trkpt lat="47.640891" lon="7.969731">
        <ele>826.559058</ele>
        <time>2021-11-15T21:40:20.256Z</time>
      </trkpt>
      <trkpt lat="47.640897" lon="7.969690">
        <ele>826.692761</ele>
        <time>2021-11-15T21:40:21.343Z</time>
      </trkpt>
      <trkpt lat="47.640944" lon="7.969376">
        <ele>827.717789</ele>
        <time>2021-11-15T21:40:28.410Z</time>
      </trkpt>
      <trkpt lat="47.640935" lon="7.969224">
        <ele>828.324561</ele>
        <time>2021-11-15T21:40:33.254Z</time>
      </trkpt>
      <trkpt lat="47.640883" lon="7.969015">
        <ele>829.264494</ele>
        <time>2021-11-15T21:40:38.605Z</time>
      </trkpt>
      <trkpt lat="47.640375" lon="7.968035">
        <ele>834.480975</ele>
        <time>2021-11-15T21:41:11.291Z</time>
      </trkpt>
      <trkpt lat="47.640078" lon="7.967066">
        <ele>838.972185</ele>
        <time>2021-11-15T21:41:41.669Z</time>
      </trkpt>
      <trkpt lat="47.639789" lon="7.965749">
        <ele>844.149455</ele>
        <time>2021-11-15T21:42:20.248Z</time>
      </trkpt>
      <trkpt lat="47.639729" lon="7.964910">
        <ele>847.294506</ele>
        <time>2021-11-15T21:42:41.234Z</time>
      </trkpt>
      <trkpt lat="47.639730" lon="7.964417">
        <ele>849.048241</ele>
        <time>2021-11-15T21:42:51.314Z</time>
      </trkpt>
      <trkpt lat="47.639767" lon="7.964127">
        <ele>849.091447</ele>
        <time>2021-11-15T21:42:56.433Z</time>
      </trkpt>
      <trkpt lat="47.639823" lon="7.963883">
        <ele>849.129180</ele>
        <time>2021-11-15T21:43:00.824Z</time>
      </trkpt>
      <trkpt lat="47.639917" lon="7.963604">
        <ele>849.174842</ele>
        <time>2021-11-15T21:43:05.505Z</time>
      </trkpt>
      <trkpt lat="47.640083" lon="7.963229">
        <ele>849.240523</ele>
        <time>2021-11-15T21:43:10.733Z</time>
      </trkpt>
      <trkpt lat="47.640149" lon="7.963092">
        <ele>849.265176</ele>
        <time>2021-11-15T21:43:12.833Z</time>
      </trkpt>
      <trkpt lat="47.640333" lon="7.962705">
        <ele>849.334510</ele>
        <time>2021-11-15T21:43:16.784Z</time>
      </trkpt>
      <trkpt lat="47.640559" lon="7.962232">
        <ele>849.419390</ele>
        <time>2021-11-15T21:43:20.954Z</time>
      </trkpt>
      <trkpt lat="47.640590" lon="7.962137">
        <ele>849.434842</ele>
        <time>2021-11-15T21:43:21.758Z</time>
      </trkpt>
      <trkpt lat="47.640752" lon="7.961642">
        <ele>847.975171</ele>
        <time>2021-11-15T21:43:25.400Z</time>
      </trkpt>
      <trkpt lat="47.640767" lon="7.961523">
        <ele>847.650956</ele>
        <time>2021-11-15T21:43:26.172Z</time>
      </trkpt>
      <trkpt lat="47.640787" lon="7.961359">
        <ele>847.204621</ele>
        <time>2021-11-15T21:43:27.194Z</time>
      </trkpt>
      <trkpt lat="47.640808" lon="7.961104">
        <ele>846.516640</ele>
        <time>2021-11-15T21:43:28.967Z</time>
      </trkpt>
      <trkpt lat="47.640798" lon="7.960852">
        <ele>845.840605</ele>
        <time>2021-11-15T21:43:30.525Z</time>
      </trkpt>
      <trkpt lat="47.640720" lon="7.960375">
        <ele>844.526098</ele>
        <time>2021-11-15T21:43:33.781Z</time>
      </trkpt>
      <trkpt lat="47.640711" lon="7.960295">
        <ele>844.308889</ele>
        <time>2021-11-15T21:43:34.257Z</time>
      </trkpt>
      <trkpt lat="47.640687" lon="7.960065">
        <ele>843.685597</ele>
        <time>2021-11-15T21:43:36.022Z</time>
      </trkpt>
      <trkpt lat="47.640685" lon="7.960045">
        <ele>843.631449</ele>
        <time>2021-11-15T21:43:36.149Z</time>
      </trkpt>
      <trkpt lat="47.640685" lon="7.959821">
        <ele>843.031568</ele>
        <time>2021-11-15T21:43:37.562Z</time>
      </trkpt>
      <trkpt lat="47.640685" lon="7.959768">
        <ele>842.889631</ele>
        <time>2021-11-15T21:43:37.874Z</time>
      </trkpt>
      <trkpt lat="47.640717" lon="7.959400">
        <ele>841.932372</ele>
        <time>2021-11-15T21:43:40.464Z</time>
      </trkpt>
      <trkpt lat="47.640762" lon="7.959173">
        <ele>841.357794</ele>
        <time>2021-11-15T21:43:41.957Z</time>
      </trkpt>
      <trkpt lat="47.640856" lon="7.958970">
        <ele>840.759671</ele>
        <time>2021-11-15T21:43:43.717Z</time>
      </trkpt>
      <trkpt lat="47.640871" lon="7.958934">
        <ele>840.656889</ele>
        <time>2021-11-15T21:43:43.979Z</time>
      </trkpt>
      <trkpt lat="47.640964" lon="7.958802">
        <ele>840.193126</ele>
        <time>2021-11-15T21:43:45.130Z</time>
      </trkpt>
      <trkpt lat="47.641188" lon="7.958634">
        <ele>839.288622</ele>
        <time>2021-11-15T21:43:47.744Z</time>
      </trkpt>
      <trkpt lat="47.641294" lon="7.958578">
        <ele>838.883123</ele>
        <time>2021-11-15T21:43:48.764Z</time>
      </trkpt>
      <trkpt lat="47.641418" lon="7.958516">
        <ele>838.411555</ele>
        <time>2021-11-15T21:43:50.318Z</time>
      </trkpt>
      <trkpt lat="47.641574" lon="7.958423">
        <ele>837.805681</ele>
        <time>2021-11-15T21:43:51.947Z</time>
      </trkpt>
      <trkpt lat="47.641842" lon="7.958150">
        <ele>836.634219</ele>
        <time>2021-11-15T21:43:55.272Z</time>
      </trkpt>
      <trkpt lat="47.641947" lon="7.957833">
        <ele>835.792786</ele>
        <time>2021-11-15T21:43:57.775Z</time>
      </trkpt>
      <trkpt lat="47.641955" lon="7.957683">
        <ele>835.641186</ele>
        <time>2021-11-15T21:43:58.779Z</time>
      </trkpt>
      <trkpt lat="47.641947" lon="7.957536">
        <ele>835.492599</ele>
        <time>2021-11-15T21:43:59.720Z</time>
      </trkpt>
      <trkpt lat="47.641798" lon="7.957096">
        <ele>834.996450</ele>
        <time>2021-11-15T21:44:03.264Z</time>
      </trkpt>
      <trkpt lat="47.641550" lon="7.956851">
        <ele>834.550962</ele>
        <time>2021-11-15T21:44:06.568Z</time>
      </trkpt>
      <trkpt lat="47.641084" lon="7.956545">
        <ele>833.788970</ele>
        <time>2021-11-15T21:44:12.233Z</time>
      </trkpt>
      <trkpt lat="47.640991" lon="7.956380">
        <ele>833.572229</ele>
        <time>2021-11-15T21:44:14.333Z</time>
      </trkpt>
      <trkpt lat="47.640998" lon="7.956247">
        <ele>833.437819</ele>
        <time>2021-11-15T21:44:15.400Z</time>
      </trkpt>
      <trkpt lat="47.641056" lon="7.956097">
        <ele>833.263571</ele>
        <time>2021-11-15T21:44:16.738Z</time>
      </trkpt>
      <trkpt lat="47.640501" lon="7.955695">
        <ele>834.225786</ele>
        <time>2021-11-15T21:44:30.334Z</time>
      </trkpt>
      <trkpt lat="47.640167" lon="7.955381">
        <ele>835.073761</ele>
        <time>2021-11-15T21:44:39.516Z</time>
      </trkpt>
      <trkpt lat="47.639795" lon="7.954985">
        <ele>836.055625</ele>
        <time>2021-11-15T21:44:50.788Z</time>
      </trkpt>
      <trkpt lat="47.639696" lon="7.954882">
        <ele>836.314933</ele>
        <time>2021-11-15T21:44:54.388Z</time>
      </trkpt>
      <trkpt lat="47.639497" lon="7.954714">
        <ele>836.805961</ele>
        <time>2021-11-15T21:45:00.649Z</time>
      </trkpt>
      <trkpt lat="47.639207" lon="7.954547">
        <ele>837.809382</ele>
        <time>2021-11-15T21:45:09.581Z</time>
      </trkpt>
      <trkpt lat="47.638760" lon="7.954525">
        <ele>839.412791</ele>
        <time>2021-11-15T21:45:22.756Z</time>
      </trkpt>
      <trkpt lat="47.637932" lon="7.954791">
        <ele>842.449983</ele>
        <time>2021-11-15T21:45:47.740Z</time>
      </trkpt>
      <trkpt lat="47.637714" lon="7.954725">
        <ele>843.247626</ele>
        <time>2021-11-15T21:45:53.915Z</time>
      </trkpt>
      <trkpt lat="47.637713" lon="7.954724">
        <ele>843.251949</ele>
        <time>2021-11-15T21:45:54.099Z</time>
      </trkpt>
      <trkpt lat="47.637492" lon="7.954483">
        <ele>844.549186</ele>
        <time>2021-11-15T21:46:01.704Z</time>
      </trkpt>
      <trkpt lat="47.637400" lon="7.954079">
        <ele>845.976559</ele>
        <time>2021-11-15T21:46:10.509Z</time>
      </trkpt>
      <trkpt lat="47.637300" lon="7.951504">
        <ele>854.429811</ele>
        <time>2021-11-15T21:47:14.848Z</time>
      </trkpt>
      <trkpt lat="47.637306" lon="7.951326">
        <ele>854.978743</ele>
        <time>2021-11-15T21:47:19.343Z</time>
      </trkpt>
      <trkpt lat="47.637306" lon="7.951326">
        <ele>854.978743</ele>
        <time>2021-11-15T21:47:19.529Z</time>
      </trkpt>
      <trkpt lat="47.637337" lon="7.951149">
        <ele>855.542023</ele>
        <time>2021-11-15T21:47:23.668Z</time>
      </trkpt>
      <trkpt lat="47.637383" lon="7.950993">
        <ele>856.066502</ele>
        <time>2021-11-15T21:47:26.951Z</time>
      </trkpt>
      <trkpt lat="47.637451" lon="7.950859">
        <ele>856.583179</ele>
        <time>2021-11-15T21:47:30.926Z</time>
      </trkpt>
      <trkpt lat="47.637598" lon="7.950642">
        <ele>857.530918</ele>
        <time>2021-11-15T21:47:37.924Z</time>
      </trkpt>
      <trkpt lat="47.637813" lon="7.950431">
        <ele>858.709126</ele>
        <time>2021-11-15T21:47:46.597Z</time>
      </trkpt>
      <trkpt lat="47.638433" lon="7.949786">
        <ele>860.887576</ele>
        <time>2021-11-15T21:48:07.934Z</time>
      </trkpt>
      <trkpt lat="47.638845" lon="7.949151">
        <ele>861.417143</ele>
        <time>2021-11-15T21:48:19.621Z</time>
      </trkpt>
      <trkpt lat="47.639038" lon="7.948758">
        <ele>861.709282</ele>
        <time>2021-11-15T21:48:24.515Z</time>
      </trkpt>
      <trkpt lat="47.639170" lon="7.948455">
        <ele>861.926034</ele>
        <time>2021-11-15T21:48:27.779Z</time>
      </trkpt>
      <trkpt lat="47.639254" lon="7.948202">
        <ele>862.095467</ele>
        <time>2021-11-15T21:48:30.328Z</time>
      </trkpt>
      <trkpt lat="47.639305" lon="7.947792">
        <ele>861.902376</ele>
        <time>2021-11-15T21:48:33.651Z</time>
      </trkpt>
      <trkpt lat="47.639245" lon="7.947417">
        <ele>861.513457</ele>
        <time>2021-11-15T21:48:36.605Z</time>
      </trkpt>
      <trkpt lat="47.639171" lon="7.947230">
        <ele>861.294627</ele>
        <time>2021-11-15T21:48:38.453Z</time>
      </trkpt>
      <trkpt lat="47.639079" lon="7.947097">
        <ele>861.102290</ele>
        <time>2021-11-15T21:48:39.714Z</time>
      </trkpt>
      <trkpt lat="47.638801" lon="7.946735">
        <ele>860.548434</ele>
        <time>2021-11-15T21:48:43.807Z</time>
      </trkpt>
      <trkpt lat="47.638633" lon="7.946522">
        <ele>860.217535</ele>
        <time>2021-11-15T21:48:46.554Z</time>
      </trkpt>
      <trkpt lat="47.638601" lon="7.946470">
        <ele>860.146473</ele>
        <time>2021-11-15T21:48:47.108Z</time>
      </trkpt>
      <trkpt lat="47.638490" lon="7.946296">
        <ele>859.904687</ele>
        <time>2021-11-15T21:48:48.775Z</time>
      </trkpt>
      <trkpt lat="47.638187" lon="7.945494">
        <ele>859.290921</ele>
        <time>2021-11-15T21:48:56.285Z</time>
      </trkpt>
      <trkpt lat="47.638180" lon="7.945471">
        <ele>859.281139</ele>
        <time>2021-11-15T21:48:56.427Z</time>
      </trkpt>
      <trkpt lat="47.638087" lon="7.945165">
        <ele>859.151016</ele>
        <time>2021-11-15T21:48:59.386Z</time>
      </trkpt>
      <trkpt lat="47.637977" lon="7.944887">
        <ele>859.026047</ele>
        <time>2021-11-15T21:49:01.851Z</time>
      </trkpt>
      <trkpt lat="47.637846" lon="7.944700">
        <ele>858.921482</ele>
        <time>2021-11-15T21:49:04.562Z</time>
      </trkpt>
      <trkpt lat="47.637690" lon="7.944520">
        <ele>858.807804</ele>
        <time>2021-11-15T21:49:07.097Z</time>
      </trkpt>
      <trkpt lat="47.637583" lon="7.944404">
        <ele>858.731575</ele>
        <time>2021-11-15T21:49:09.282Z</time>
      </trkpt>
      <trkpt lat="47.637442" lon="7.944256">
        <ele>858.632222</ele>
        <time>2021-11-15T21:49:11.839Z</time>
      </trkpt>
      <trkpt lat="47.637316" lon="7.944402">
        <ele>858.540259</ele>
        <time>2021-11-15T21:49:14.677Z</time>
      </trkpt>
      <trkpt lat="47.637316" lon="7.944402">
        <ele>858.540259</ele>
        <time>2021-11-15T21:49:14.683Z</time>
      </trkpt>
      <trkpt lat="47.636926" lon="7.944520">
        <ele>858.447645</ele>
        <time>2021-11-15T21:49:20.980Z</time>
      </trkpt>
      <trkpt lat="47.636517" lon="7.944381">
        <ele>858.440042</ele>
        <time>2021-11-15T21:49:27.783Z</time>
      </trkpt>
      <trkpt lat="47.636440" lon="7.944352">
        <ele>858.438603</ele>
        <time>2021-11-15T21:49:29.235Z</time>
      </trkpt>
      <trkpt lat="47.636341" lon="7.944314">
        <ele>858.436750</ele>
        <time>2021-11-15T21:49:30.985Z</time>
      </trkpt>
      <trkpt lat="47.636224" lon="7.944307">
        <ele>858.434628</ele>
        <time>2021-11-15T21:49:32.473Z</time>
      </trkpt>
      <trkpt lat="47.636029" lon="7.944437">
        <ele>858.430755</ele>
        <time>2021-11-15T21:49:35.706Z</time>
      </trkpt>
      <trkpt lat="47.635520" lon="7.945990">
        <ele>858.622461</ele>
        <time>2021-11-15T21:49:51.314Z</time>
      </trkpt>
      <trkpt lat="47.635305" lon="7.946397">
        <ele>858.752974</ele>
        <time>2021-11-15T21:49:55.823Z</time>
      </trkpt>
      <trkpt lat="47.634967" lon="7.946762">
        <ele>858.909530</ele>
        <time>2021-11-15T21:50:01.481Z</time>
      </trkpt>
      <trkpt lat="47.634741" lon="7.946805">
        <ele>858.994864</ele>
        <time>2021-11-15T21:50:06.216Z</time>
      </trkpt>
      <trkpt lat="47.634598" lon="7.946753">
        <ele>859.050005</ele>
        <time>2021-11-15T21:50:09.408Z</time>
      </trkpt>
      <trkpt lat="47.634437" lon="7.946594">
        <ele>859.351524</ele>
        <time>2021-11-15T21:50:14.466Z</time>
      </trkpt>
      <trkpt lat="47.634304" lon="7.946352">
        <ele>860.046171</ele>
        <time>2021-11-15T21:50:20.021Z</time>
      </trkpt>
      <trkpt lat="47.633987" lon="7.945419">
        <ele>862.370460</ele>
        <time>2021-11-15T21:50:40.568Z</time>
      </trkpt>
      <trkpt lat="47.633902" lon="7.945296">
        <ele>862.762366</ele>
        <time>2021-11-15T21:50:43.504Z</time>
      </trkpt>
      <trkpt lat="47.633818" lon="7.945221">
        <ele>863.085974</ele>
        <time>2021-11-15T21:50:47.879Z</time>
      </trkpt>
      <trkpt lat="47.633720" lon="7.945173">
        <ele>863.426640</ele>
        <time>2021-11-15T21:50:50.495Z</time>
      </trkpt>
      <trkpt lat="47.633664" lon="7.945157">
        <ele>863.614893</ele>
        <time>2021-11-15T21:50:51.588Z</time>
      </trkpt>
      <trkpt lat="47.633591" lon="7.945179">
        <ele>863.860788</ele>
        <time>2021-11-15T21:50:53.260Z</time>
      </trkpt>
      <trkpt lat="47.633591" lon="7.945179">
        <ele>863.860788</ele>
        <time>2021-11-15T21:50:53.303Z</time>
      </trkpt>
      <trkpt lat="47.633498" lon="7.945219">
        <ele>864.180419</ele>
        <time>2021-11-15T21:50:57.210Z</time>
      </trkpt>
      <trkpt lat="47.633407" lon="7.945306">
        <ele>864.537757</ele>
        <time>2021-11-15T21:51:00.571Z</time>
      </trkpt>
      <trkpt lat="47.632250" lon="7.946421">
        <ele>867.459145</ele>
        <time>2021-11-15T21:51:38.583Z</time>
      </trkpt>
      <trkpt lat="47.632015" lon="7.946574">
        <ele>867.965726</ele>
        <time>2021-11-15T21:51:42.300Z</time>
      </trkpt>
      <trkpt lat="47.631252" lon="7.946953">
        <ele>867.582623</ele>
        <time>2021-11-15T21:51:52.360Z</time>
      </trkpt>
      <trkpt lat="47.630971" lon="7.947084">
        <ele>866.985976</ele>
        <time>2021-11-15T21:51:55.764Z</time>
      </trkpt>
      <trkpt lat="47.630672" lon="7.947236">
        <ele>866.345739</ele>
        <time>2021-11-15T21:51:59.290Z</time>
      </trkpt>
      <trkpt lat="47.629991" lon="7.947744">
        <ele>864.649997</ele>
        <time>2021-11-15T21:52:06.982Z</time>
      </trkpt>
      <trkpt lat="47.629363" lon="7.948362">
        <ele>861.418328</ele>
        <time>2021-11-15T21:52:14.342Z</time>
      </trkpt>
      <trkpt lat="47.629285" lon="7.948439">
        <ele>861.016554</ele>
        <time>2021-11-15T21:52:15.216Z</time>
      </trkpt>
      <trkpt lat="47.629252" lon="7.948471">
        <ele>860.847491</ele>
        <time>2021-11-15T21:52:15.602Z</time>
      </trkpt>
      <trkpt lat="47.629112" lon="7.948574">
        <ele>860.177342</ele>
        <time>2021-11-15T21:52:17.143Z</time>
      </trkpt>
      <trkpt lat="47.629018" lon="7.948689">
        <ele>859.654865</ele>
        <time>2021-11-15T21:52:18.307Z</time>
      </trkpt>
      <trkpt lat="47.628909" lon="7.948921">
        <ele>858.837480</ele>
        <time>2021-11-15T21:52:20.135Z</time>
      </trkpt>
      <trkpt lat="47.628855" lon="7.948997">
        <ele>858.518295</ele>
        <time>2021-11-15T21:52:20.824Z</time>
      </trkpt>
      <trkpt lat="47.628255" lon="7.949609">
        <ele>855.641874</ele>
        <time>2021-11-15T21:52:27.659Z</time>
      </trkpt>
      <trkpt lat="47.628154" lon="7.949804">
        <ele>855.026726</ele>
        <time>2021-11-15T21:52:29.262Z</time>
      </trkpt>
      <trkpt lat="47.628018" lon="7.949775">
        <ele>854.516792</ele>
        <time>2021-11-15T21:52:30.656Z</time>
      </trkpt>
      <trkpt lat="47.627819" lon="7.949787">
        <ele>853.777616</ele>
        <time>2021-11-15T21:52:32.620Z</time>
      </trkpt>
      <trkpt lat="47.627702" lon="7.949801">
        <ele>853.341974</ele>
        <time>2021-11-15T21:52:33.927Z</time>
      </trkpt>
      <trkpt lat="47.627472" lon="7.949828">
        <ele>852.485687</ele>
        <time>2021-11-15T21:52:36.220Z</time>
      </trkpt>
      <trkpt lat="47.627309" lon="7.949824">
        <ele>851.880647</ele>
        <time>2021-11-15T21:52:38.037Z</time>
      </trkpt>
      <trkpt lat="47.627208" lon="7.949813">
        <ele>851.504789</ele>
        <time>2021-11-15T21:52:39.012Z</time>
      </trkpt>
      <trkpt lat="47.627110" lon="7.949777">
        <ele>851.130091</ele>
        <time>2021-11-15T21:52:40.188Z</time>
      </trkpt>
      <trkpt lat="47.626859" lon="7.949688">
        <ele>850.128748</ele>
        <time>2021-11-15T21:52:42.855Z</time>
      </trkpt>
      <trkpt lat="47.626752" lon="7.949657">
        <ele>849.677285</ele>
        <time>2021-11-15T21:52:44.035Z</time>
      </trkpt>
      <trkpt lat="47.626683" lon="7.949637">
        <ele>849.386150</ele>
        <time>2021-11-15T21:52:44.701Z</time>
      </trkpt>
      <trkpt lat="47.626401" lon="7.949689">
        <ele>848.209384</ele>
        <time>2021-11-15T21:52:47.475Z</time>
      </trkpt>
      <trkpt lat="47.626137" lon="7.949956">
        <ele>846.886329</ele>
        <time>2021-11-15T21:52:50.553Z</time>
      </trkpt>
      <trkpt lat="47.626078" lon="7.950083">
        <ele>846.455831</ele>
        <time>2021-11-15T21:52:51.647Z</time>
      </trkpt>
      <trkpt lat="47.626026" lon="7.950244">
        <ele>845.957556</ele>
        <time>2021-11-15T21:52:52.752Z</time>
      </trkpt>
      <trkpt lat="47.625896" lon="7.950889">
        <ele>844.078621</ele>
        <time>2021-11-15T21:52:57.274Z</time>
      </trkpt>
      <trkpt lat="47.625850" lon="7.951040">
        <ele>843.616135</ele>
        <time>2021-11-15T21:52:58.287Z</time>
      </trkpt>
      <trkpt lat="47.625812" lon="7.951163">
        <ele>843.238499</ele>
        <time>2021-11-15T21:52:59.108Z</time>
      </trkpt>
      <trkpt lat="47.625460" lon="7.951852">
        <ele>840.773861</ele>
        <time>2021-11-15T21:53:04.527Z</time>
      </trkpt>
      <trkpt lat="47.625338" lon="7.952002">
        <ele>840.102841</ele>
        <time>2021-11-15T21:53:06.031Z</time>
      </trkpt>
      <trkpt lat="47.625089" lon="7.952131">
        <ele>838.985874</ele>
        <time>2021-11-15T21:53:08.508Z</time>
      </trkpt>
      <trkpt lat="47.624864" lon="7.952108">
        <ele>838.030726</ele>
        <time>2021-11-15T21:53:10.785Z</time>
      </trkpt>
      <trkpt lat="47.624794" lon="7.952070">
        <ele>837.715051</ele>
        <time>2021-11-15T21:53:11.417Z</time>
      </trkpt>
      <trkpt lat="47.624692" lon="7.951963">
        <ele>837.186011</ele>
        <time>2021-11-15T21:53:12.635Z</time>
      </trkpt>
      <trkpt lat="47.624014" lon="7.951018">
        <ele>835.821343</ele>
        <time>2021-11-15T21:53:22.815Z</time>
      </trkpt>
      <trkpt lat="47.623553" lon="7.950603">
        <ele>836.167017</ele>
        <time>2021-11-15T21:53:31.105Z</time>
      </trkpt>
      <trkpt lat="47.623105" lon="7.950303">
        <ele>836.482111</ele>
        <time>2021-11-15T21:53:44.015Z</time>
      </trkpt>
      <trkpt lat="47.622946" lon="7.950255">
        <ele>836.586128</ele>
        <time>2021-11-15T21:53:49.031Z</time>
      </trkpt>
      <trkpt lat="47.622642" lon="7.950331">
        <ele>837.673217</ele>
        <time>2021-11-15T21:53:57.739Z</time>
      </trkpt>
      <trkpt lat="47.622427" lon="7.950567">
        <ele>838.875738</ele>
        <time>2021-11-15T21:54:05.894Z</time>
      </trkpt>
      <trkpt lat="47.622310" lon="7.950928">
        <ele>840.089686</ele>
        <time>2021-11-15T21:54:14.418Z</time>
      </trkpt>
      <trkpt lat="47.622278" lon="7.951027">
        <ele>840.422431</ele>
        <time>2021-11-15T21:54:16.352Z</time>
      </trkpt>
      <trkpt lat="47.622272" lon="7.951112">
        <ele>840.681439</ele>
        <time>2021-11-15T21:54:18.506Z</time>
      </trkpt>
      <trkpt lat="47.622265" lon="7.951206">
        <ele>840.968048</ele>
        <time>2021-11-15T21:54:20.074Z</time>
      </trkpt>
      <trkpt lat="47.622185" lon="7.951242">
        <ele>841.343935</ele>
        <time>2021-11-15T21:54:23.580Z</time>
      </trkpt>
      <trkpt lat="47.622076" lon="7.951302">
        <ele>841.866678</ele>
        <time>2021-11-15T21:54:26.648Z</time>
      </trkpt>
      <trkpt lat="47.621546" lon="7.951345">
        <ele>844.253287</ele>
        <time>2021-11-15T21:54:46.159Z</time>
      </trkpt>
      <trkpt lat="47.621172" lon="7.951487">
        <ele>846.093437</ele>
        <time>2021-11-15T21:55:01.124Z</time>
      </trkpt>
      <trkpt lat="47.620663" lon="7.951396">
        <ele>848.588599</ele>
        <time>2021-11-15T21:55:20.895Z</time>
      </trkpt>
      <trkpt lat="47.620471" lon="7.951390">
        <ele>849.523246</ele>
        <time>2021-11-15T21:55:27.666Z</time>
      </trkpt>
      <trkpt lat="47.620184" lon="7.951444">
        <ele>850.931228</ele>
        <time>2021-11-15T21:55:37.475Z</time>
      </trkpt>
      <trkpt lat="47.618671" lon="7.951343">
        <ele>854.648273</ele>
        <time>2021-11-15T21:56:21.163Z</time>
      </trkpt>
      <trkpt lat="47.618483" lon="7.951366">
        <ele>854.871139</ele>
        <time>2021-11-15T21:56:24.212Z</time>
      </trkpt>
      <trkpt lat="47.618278" lon="7.951491">
        <ele>855.132996</ele>
        <time>2021-11-15T21:56:26.809Z</time>
      </trkpt>
      <trkpt lat="47.618199" lon="7.951419">
        <ele>855.242537</ele>
        <time>2021-11-15T21:56:28.049Z</time>
      </trkpt>
      <trkpt lat="47.617993" lon="7.951246">
        <ele>855.522206</ele>
        <time>2021-11-15T21:56:30.586Z</time>
      </trkpt>
      <trkpt lat="47.617931" lon="7.951183">
        <ele>855.564195</ele>
        <time>2021-11-15T21:56:31.562Z</time>
      </trkpt>
      <trkpt lat="47.617570" lon="7.950854">
        <ele>853.485917</ele>
        <time>2021-11-15T21:56:35.895Z</time>
      </trkpt>
      <trkpt lat="47.616863" lon="7.950415">
        <ele>849.726316</ele>
        <time>2021-11-15T21:56:43.114Z</time>
      </trkpt>
      <trkpt lat="47.616253" lon="7.949690">
        <ele>845.646012</ele>
        <time>2021-11-15T21:56:50.147Z</time>
      </trkpt>
      <trkpt lat="47.615966" lon="7.949509">
        <ele>843.691596</ele>
        <time>2021-11-15T21:56:52.954Z</time>
      </trkpt>
      <trkpt lat="47.615810" lon="7.949499">
        <ele>842.713033</ele>
        <time>2021-11-15T21:56:54.395Z</time>
      </trkpt>
      <trkpt lat="47.615702" lon="7.949521">
        <ele>842.029847</ele>
        <time>2021-11-15T21:56:55.363Z</time>
      </trkpt>
      <trkpt lat="47.614682" lon="7.949596">
        <ele>835.629666</ele>
        <time>2021-11-15T21:57:08.838Z</time>
      </trkpt>
      <trkpt lat="47.614487" lon="7.949642">
        <ele>834.499690</ele>
        <time>2021-11-15T21:57:11.400Z</time>
      </trkpt>
      <trkpt lat="47.613749" lon="7.950023">
        <ele>830.074611</ele>
        <time>2021-11-15T21:57:21.651Z</time>
      </trkpt>
      <trkpt lat="47.613296" lon="7.950348">
        <ele>827.225040</ele>
        <time>2021-11-15T21:57:28.355Z</time>
      </trkpt>
      <trkpt lat="47.612472" lon="7.951053">
        <ele>822.008905</ele>
        <time>2021-11-15T21:57:41.213Z</time>
      </trkpt>
      <trkpt lat="47.610907" lon="7.952584">
        <ele>812.561321</ele>
        <time>2021-11-15T21:58:06.116Z</time>
      </trkpt>
      <trkpt lat="47.610709" lon="7.952777">
        <ele>811.507709</ele>
        <time>2021-11-15T21:58:09.293Z</time>
      </trkpt>
      <trkpt lat="47.610490" lon="7.952871">
        <ele>810.493856</ele>
        <time>2021-11-15T21:58:12.507Z</time>
      </trkpt>
      <trkpt lat="47.609926" lon="7.952845">
        <ele>807.984523</ele>
        <time>2021-11-15T21:58:20.535Z</time>
      </trkpt>
      <trkpt lat="47.609848" lon="7.952864">
        <ele>807.634879</ele>
        <time>2021-11-15T21:58:21.661Z</time>
      </trkpt>
      <trkpt lat="47.609390" lon="7.951204">
        <ele>805.429613</ele>
        <time>2021-11-15T21:58:34.703Z</time>
      </trkpt>
      <trkpt lat="47.609119" lon="7.950532">
        <ele>804.466852</ele>
        <time>2021-11-15T21:58:41.935Z</time>
      </trkpt>
      <trkpt lat="47.608916" lon="7.950126">
        <ele>803.814802</ele>
        <time>2021-11-15T21:58:46.432Z</time>
      </trkpt>
      <trkpt lat="47.608814" lon="7.949946">
        <ele>803.508390</ele>
        <time>2021-11-15T21:58:48.543Z</time>
      </trkpt>
      <trkpt lat="47.608598" lon="7.949608">
        <ele>802.901505</ele>
        <time>2021-11-15T21:58:52.285Z</time>
      </trkpt>
      <trkpt lat="47.608258" lon="7.949098">
        <ele>801.966855</ele>
        <time>2021-11-15T21:58:57.583Z</time>
      </trkpt>
      <trkpt lat="47.607428" lon="7.947861">
        <ele>798.558089</ele>
        <time>2021-11-15T21:59:09.464Z</time>
      </trkpt>
      <trkpt lat="47.607177" lon="7.947456">
        <ele>797.155935</ele>
        <time>2021-11-15T21:59:13.062Z</time>
      </trkpt>
      <trkpt lat="47.607053" lon="7.947037">
        <ele>795.989607</ele>
        <time>2021-11-15T21:59:16.032Z</time>
      </trkpt>
      <trkpt lat="47.607026" lon="7.946800">
        <ele>795.376963</ele>
        <time>2021-11-15T21:59:17.584Z</time>
      </trkpt>
      <trkpt lat="47.607053" lon="7.946387">
        <ele>794.319346</ele>
        <time>2021-11-15T21:59:20.333Z</time>
      </trkpt>
      <trkpt lat="47.607064" lon="7.946344">
        <ele>794.202121</ele>
        <time>2021-11-15T21:59:20.614Z</time>
      </trkpt>
      <trkpt lat="47.607219" lon="7.945696">
        <ele>792.707759</ele>
        <time>2021-11-15T21:59:25.203Z</time>
      </trkpt>
      <trkpt lat="47.607532" lon="7.944721">
        <ele>790.391224</ele>
        <time>2021-11-15T21:59:32.839Z</time>
      </trkpt>
      <trkpt lat="47.607673" lon="7.944452">
        <ele>789.660299</ele>
        <time>2021-11-15T21:59:35.377Z</time>
      </trkpt>
      <trkpt lat="47.607934" lon="7.944298">
        <ele>788.766564</ele>
        <time>2021-11-15T21:59:38.575Z</time>
      </trkpt>
      <trkpt lat="47.608484" lon="7.944152">
        <ele>785.231272</ele>
        <time>2021-11-15T21:59:43.928Z</time>
      </trkpt>
      <trkpt lat="47.609294" lon="7.943637">
        <ele>778.824869</ele>
        <time>2021-11-15T21:59:51.893Z</time>
      </trkpt>
      <trkpt lat="47.609350" lon="7.943593">
        <ele>778.364194</ele>
        <time>2021-11-15T21:59:52.431Z</time>
      </trkpt>
      <trkpt lat="47.609814" lon="7.943160">
        <ele>773.947317</ele>
        <time>2021-11-15T21:59:57.119Z</time>
      </trkpt>
      <trkpt lat="47.609980" lon="7.942959">
        <ele>771.644226</ele>
        <time>2021-11-15T21:59:58.916Z</time>
      </trkpt>
      <trkpt lat="47.610014" lon="7.942918">
        <ele>771.173281</ele>
        <time>2021-11-15T21:59:59.287Z</time>
      </trkpt>
      <trkpt lat="47.610065" lon="7.942722">
        <ele>769.650993</ele>
        <time>2021-11-15T22:00:00.481Z</time>
      </trkpt>
      <trkpt lat="47.610075" lon="7.942547">
        <ele>768.378429</ele>
        <time>2021-11-15T22:00:01.464Z</time>
      </trkpt>
      <trkpt lat="47.609950" lon="7.942351">
        <ele>766.423483</ele>
        <time>2021-11-15T22:00:03.049Z</time>
      </trkpt>
      <trkpt lat="47.609824" lon="7.942206">
        <ele>764.709497</ele>
        <time>2021-11-15T22:00:04.372Z</time>
      </trkpt>
      <trkpt lat="47.609660" lon="7.942072">
        <ele>762.697140</ele>
        <time>2021-11-15T22:00:05.991Z</time>
      </trkpt>
      <trkpt lat="47.609328" lon="7.941802">
        <ele>758.627765</ele>
        <time>2021-11-15T22:00:09.250Z</time>
      </trkpt>
      <trkpt lat="47.609231" lon="7.941717">
        <ele>757.416897</ele>
        <time>2021-11-15T22:00:10.203Z</time>
      </trkpt>
      <trkpt lat="47.608985" lon="7.941282">
        <ele>754.593384</ele>
        <time>2021-11-15T22:00:13.584Z</time>
      </trkpt>
      <trkpt lat="47.608976" lon="7.941180">
        <ele>754.211334</ele>
        <time>2021-11-15T22:00:14.171Z</time>
      </trkpt>
      <trkpt lat="47.608986" lon="7.941047">
        <ele>753.714321</ele>
        <time>2021-11-15T22:00:15.586Z</time>
      </trkpt>
      <trkpt lat="47.609156" lon="7.940638">
        <ele>751.929851</ele>
        <time>2021-11-15T22:00:18.459Z</time>
      </trkpt>
      <trkpt lat="47.609697" lon="7.940207">
        <ele>748.546962</ele>
        <time>2021-11-15T22:00:24.457Z</time>
      </trkpt>
      <trkpt lat="47.610427" lon="7.939448">
        <ele>743.620639</ele>
        <time>2021-11-15T22:00:33.492Z</time>
      </trkpt>
      <trkpt lat="47.610663" lon="7.939057">
        <ele>741.659124</ele>
        <time>2021-11-15T22:00:36.803Z</time>
      </trkpt>
      <trkpt lat="47.611668" lon="7.937036">
        <ele>732.283596</ele>
        <time>2021-11-15T22:00:52.090Z</time>
      </trkpt>
      <trkpt lat="47.612157" lon="7.936591">
        <ele>729.111986</ele>
        <time>2021-11-15T22:00:57.425Z</time>
      </trkpt>
      <trkpt lat="47.612760" lon="7.936192">
        <ele>725.529017</ele>
        <time>2021-11-15T22:01:03.837Z</time>
      </trkpt>
      <trkpt lat="47.613611" lon="7.935811">
        <ele>721.112164</ele>
        <time>2021-11-15T22:01:12.499Z</time>
      </trkpt>
      <trkpt lat="47.613843" lon="7.935758">
        <ele>719.945809</ele>
        <time>2021-11-15T22:01:14.760Z</time>
      </trkpt>
      <trkpt lat="47.614095" lon="7.935725">
        <ele>718.688799</ele>
        <time>2021-11-15T22:01:17.104Z</time>
      </trkpt>
      <trkpt lat="47.615166" lon="7.935713">
        <ele>710.861517</ele>
        <time>2021-11-15T22:01:26.722Z</time>
      </trkpt>
      <trkpt lat="47.615338" lon="7.935646">
        <ele>709.398738</ele>
        <time>2021-11-15T22:01:28.280Z</time>
      </trkpt>
      <trkpt lat="47.615451" lon="7.935602">
        <ele>708.437751</ele>
        <time>2021-11-15T22:01:29.287Z</time>
      </trkpt>
      <trkpt lat="47.615705" lon="7.935396">
        <ele>706.056573</ele>
        <time>2021-11-15T22:01:31.795Z</time>
      </trkpt>
      <trkpt lat="47.616262" lon="7.934487">
        <ele>698.781203</ele>
        <time>2021-11-15T22:01:38.973Z</time>
      </trkpt>
      <trkpt lat="47.616672" lon="7.934051">
        <ele>694.020544</ele>
        <time>2021-11-15T22:01:43.346Z</time>
      </trkpt>
      <trkpt lat="47.616878" lon="7.934048">
        <ele>692.076397</ele>
        <time>2021-11-15T22:01:45.127Z</time>
      </trkpt>
      <trkpt lat="47.617409" lon="7.934240">
        <ele>686.918568</ele>
        <time>2021-11-15T22:01:49.878Z</time>
      </trkpt>
      <trkpt lat="47.617581" lon="7.934210">
        <ele>685.272273</ele>
        <time>2021-11-15T22:01:51.379Z</time>
      </trkpt>
      <trkpt lat="47.618969" lon="7.933585">
        <ele>670.385735</ele>
        <time>2021-11-15T22:02:03.869Z</time>
      </trkpt>
      <trkpt lat="47.619096" lon="7.933469">
        <ele>668.855134</ele>
        <time>2021-11-15T22:02:05.136Z</time>
      </trkpt>
      <trkpt lat="47.619255" lon="7.933163">
        <ele>666.076348</ele>
        <time>2021-11-15T22:02:07.368Z</time>
      </trkpt>
      <trkpt lat="47.619818" lon="7.932353">
        <ele>656.932115</ele>
        <time>2021-11-15T22:02:13.990Z</time>
      </trkpt>
      <trkpt lat="47.620106" lon="7.931975">
        <ele>652.448642</ele>
        <time>2021-11-15T22:02:17.224Z</time>
      </trkpt>
      <trkpt lat="47.620440" lon="7.931519">
        <ele>647.156274</ele>
        <time>2021-11-15T22:02:21.081Z</time>
      </trkpt>
      <trkpt lat="47.620523" lon="7.931338">
        <ele>645.634181</ele>
        <time>2021-11-15T22:02:22.322Z</time>
      </trkpt>
      <trkpt lat="47.620633" lon="7.930854">
        <ele>643.057744</ele>
        <time>2021-11-15T22:02:25.292Z</time>
      </trkpt>
      <trkpt lat="47.620770" lon="7.930392">
        <ele>640.511776</ele>
        <time>2021-11-15T22:02:28.262Z</time>
      </trkpt>
      <trkpt lat="47.621014" lon="7.929789">
        <ele>636.964135</ele>
        <time>2021-11-15T22:02:32.538Z</time>
      </trkpt>
      <trkpt lat="47.621035" lon="7.929756">
        <ele>636.735213</ele>
        <time>2021-11-15T22:02:32.828Z</time>
      </trkpt>
      <trkpt lat="47.621153" lon="7.929574">
        <ele>635.461407</ele>
        <time>2021-11-15T22:02:34.386Z</time>
      </trkpt>
      <trkpt lat="47.621561" lon="7.929312">
        <ele>632.231538</ele>
        <time>2021-11-15T22:02:38.648Z</time>
      </trkpt>
      <trkpt lat="47.622199" lon="7.929159">
        <ele>628.584532</ele>
        <time>2021-11-15T22:02:44.922Z</time>
      </trkpt>
      <trkpt lat="47.622516" lon="7.929178">
        <ele>626.794221</ele>
        <time>2021-11-15T22:02:47.942Z</time>
      </trkpt>
      <trkpt lat="47.622878" lon="7.929322">
        <ele>624.679281</ele>
        <time>2021-11-15T22:02:51.438Z</time>
      </trkpt>
      <trkpt lat="47.622967" lon="7.929237">
        <ele>624.081989</ele>
        <time>2021-11-15T22:02:52.436Z</time>
      </trkpt>
      <trkpt lat="47.622989" lon="7.929175">
        <ele>623.815491</ele>
        <time>2021-11-15T22:02:52.923Z</time>
      </trkpt>
      <trkpt lat="47.622990" lon="7.929067">
        <ele>623.404678</ele>
        <time>2021-11-15T22:02:53.529Z</time>
      </trkpt>
      <trkpt lat="47.622913" lon="7.928884">
        <ele>622.584149</ele>
        <time>2021-11-15T22:02:54.872Z</time>
      </trkpt>
      <trkpt lat="47.621861" lon="7.928723">
        <ele>612.176848</ele>
        <time>2021-11-15T22:03:04.008Z</time>
      </trkpt>
      <trkpt lat="47.620569" lon="7.928919">
        <ele>599.383123</ele>
        <time>2021-11-15T22:03:15.057Z</time>
      </trkpt>
      <trkpt lat="47.619928" lon="7.929124">
        <ele>593.059290</ele>
        <time>2021-11-15T22:03:20.730Z</time>
      </trkpt>
      <trkpt lat="47.619604" lon="7.929315">
        <ele>589.696977</ele>
        <time>2021-11-15T22:03:23.768Z</time>
      </trkpt>
      <trkpt lat="47.619329" lon="7.929527">
        <ele>586.798073</ele>
        <time>2021-11-15T22:03:26.493Z</time>
      </trkpt>
      <trkpt lat="47.618951" lon="7.930033">
        <ele>583.123131</ele>
        <time>2021-11-15T22:03:31.022Z</time>
      </trkpt>
      <trkpt lat="47.618921" lon="7.930073">
        <ele>582.831985</ele>
        <time>2021-11-15T22:03:31.382Z</time>
      </trkpt>
      <trkpt lat="47.618761" lon="7.930033">
        <ele>581.660811</ele>
        <time>2021-11-15T22:03:32.895Z</time>
      </trkpt>
      <trkpt lat="47.618733" lon="7.929945">
        <ele>581.187350</ele>
        <time>2021-11-15T22:03:33.489Z</time>
      </trkpt>
      <trkpt lat="47.618734" lon="7.929873">
        <ele>580.836965</ele>
        <time>2021-11-15T22:03:33.902Z</time>
      </trkpt>
      <trkpt lat="47.618861" lon="7.929607">
        <ele>579.251001</ele>
        <time>2021-11-15T22:03:35.958Z</time>
      </trkpt>
      <trkpt lat="47.619053" lon="7.929381">
        <ele>577.481902</ele>
        <time>2021-11-15T22:03:38.182Z</time>
      </trkpt>
      <trkpt lat="47.620384" lon="7.928242">
        <ele>564.126150</ele>
        <time>2021-11-15T22:03:51.850Z</time>
      </trkpt>
      <trkpt lat="47.620796" lon="7.927816">
        <ele>559.434004</ele>
        <time>2021-11-15T22:03:56.122Z</time>
      </trkpt>
      <trkpt lat="47.620873" lon="7.927631">
        <ele>558.064689</ele>
        <time>2021-11-15T22:03:57.362Z</time>
      </trkpt>
      <trkpt lat="47.620930" lon="7.927423">
        <ele>556.405060</ele>
        <time>2021-11-15T22:03:58.625Z</time>
      </trkpt>
      <trkpt lat="47.620993" lon="7.927078">
        <ele>553.272000</ele>
        <time>2021-11-15T22:04:00.660Z</time>
      </trkpt>
      <trkpt lat="47.621010" lon="7.926916">
        <ele>551.834908</ele>
        <time>2021-11-15T22:04:01.589Z</time>
      </trkpt>
      <trkpt lat="47.621008" lon="7.926716">
        <ele>550.081646</ele>
        <time>2021-11-15T22:04:02.724Z</time>
      </trkpt>
      <trkpt lat="47.621092" lon="7.926230">
        <ele>545.683866</ele>
        <time>2021-11-15T22:04:05.548Z</time>
      </trkpt>
      <trkpt lat="47.621290" lon="7.925709">
        <ele>540.441261</ele>
        <time>2021-11-15T22:04:08.918Z</time>
      </trkpt>
      <trkpt lat="47.621339" lon="7.925596">
        <ele>539.263514</ele>
        <time>2021-11-15T22:04:09.667Z</time>
      </trkpt>
      <trkpt lat="47.621723" lon="7.924936">
        <ele>532.037181</ele>
        <time>2021-11-15T22:04:14.608Z</time>
      </trkpt>
      <trkpt lat="47.621956" lon="7.924817">
        <ele>529.420844</ele>
        <time>2021-11-15T22:04:16.711Z</time>
      </trkpt>
      <trkpt lat="47.623053" lon="7.924259">
        <ele>517.108021</ele>
        <time>2021-11-15T22:04:26.710Z</time>
      </trkpt>
      <trkpt lat="47.623206" lon="7.923969">
        <ele>514.458984</ele>
        <time>2021-11-15T22:04:28.864Z</time>
      </trkpt>
      <trkpt lat="47.623246" lon="7.923768">
        <ele>512.895189</ele>
        <time>2021-11-15T22:04:30.070Z</time>
      </trkpt>
      <trkpt lat="47.623227" lon="7.922954">
        <ele>506.817781</ele>
        <time>2021-11-15T22:04:34.782Z</time>
      </trkpt>
      <trkpt lat="47.623251" lon="7.922713">
        <ele>505.000005</ele>
        <time>2021-11-15T22:04:36.166Z</time>
      </trkpt>
      <trkpt lat="47.623298" lon="7.922501">
        <ele>503.334765</ele>
        <time>2021-11-15T22:04:37.454Z</time>
      </trkpt>
      <trkpt lat="47.623564" lon="7.921962">
        <ele>498.350122</ele>
        <time>2021-11-15T22:04:41.266Z</time>
      </trkpt>
      <trkpt lat="47.623626" lon="7.921633">
        <ele>495.801112</ele>
        <time>2021-11-15T22:04:43.226Z</time>
      </trkpt>
      <trkpt lat="47.623611" lon="7.921528">
        <ele>495.000242</ele>
        <time>2021-11-15T22:04:43.828Z</time>
      </trkpt>
      <trkpt lat="47.623588" lon="7.921368">
        <ele>493.829644</ele>
        <time>2021-11-15T22:04:44.762Z</time>
      </trkpt>
      <trkpt lat="47.623561" lon="7.920975">
        <ele>491.016485</ele>
        <time>2021-11-15T22:04:47.016Z</time>
      </trkpt>
      <trkpt lat="47.623430" lon="7.919875">
        <ele>483.061741</ele>
        <time>2021-11-15T22:04:53.484Z</time>
      </trkpt>
      <trkpt lat="47.623255" lon="7.919315">
        <ele>478.666023</ele>
        <time>2021-11-15T22:04:57.059Z</time>
      </trkpt>
      <trkpt lat="47.623170" lon="7.919187">
        <ele>477.386398</ele>
        <time>2021-11-15T22:04:58.086Z</time>
      </trkpt>
      <trkpt lat="47.623010" lon="7.918947">
        <ele>475.055298</ele>
        <time>2021-11-15T22:05:00.043Z</time>
      </trkpt>
      <trkpt lat="47.622446" lon="7.918652">
        <ele>469.252872</ele>
        <time>2021-11-15T22:05:05.262Z</time>
      </trkpt>
      <trkpt lat="47.622366" lon="7.918470">
        <ele>467.831898</ele>
        <time>2021-11-15T22:05:06.517Z</time>
      </trkpt>
      <trkpt lat="47.622381" lon="7.918164">
        <ele>465.825449</ele>
        <time>2021-11-15T22:05:08.325Z</time>
      </trkpt>
      <trkpt lat="47.622424" lon="7.918069">
        <ele>465.077082</ele>
        <time>2021-11-15T22:05:08.982Z</time>
      </trkpt>
      <trkpt lat="47.622587" lon="7.917873">
        <ele>463.041340</ele>
        <time>2021-11-15T22:05:10.794Z</time>
      </trkpt>
      <trkpt lat="47.622656" lon="7.917625">
        <ele>461.286743</ele>
        <time>2021-11-15T22:05:12.360Z</time>
      </trkpt>
      <trkpt lat="47.622677" lon="7.917170">
        <ele>458.302343</ele>
        <time>2021-11-15T22:05:15.016Z</time>
      </trkpt>
      <trkpt lat="47.622647" lon="7.916647">
        <ele>454.815687</ele>
        <time>2021-11-15T22:05:18.052Z</time>
      </trkpt>
      <trkpt lat="47.622576" lon="7.916379">
        <ele>452.902878</ele>
        <time>2021-11-15T22:05:19.712Z</time>
      </trkpt>
      <trkpt lat="47.622393" lon="7.916077">
        <ele>450.205266</ele>
        <time>2021-11-15T22:05:22.056Z</time>
      </trkpt>
      <trkpt lat="47.621809" lon="7.915582">
        <ele>443.576676</ele>
        <time>2021-11-15T22:05:27.873Z</time>
      </trkpt>
      <trkpt lat="47.621530" lon="7.915222">
        <ele>439.912973</ele>
        <time>2021-11-15T22:05:31.078Z</time>
      </trkpt>
      <trkpt lat="47.621149" lon="7.914552">
        <ele>433.940333</ele>
        <time>2021-11-15T22:05:36.213Z</time>
      </trkpt>
      <trkpt lat="47.621037" lon="7.914355">
        <ele>432.184359</ele>
        <time>2021-11-15T22:05:37.707Z</time>
      </trkpt>
      <trkpt lat="47.620869" lon="7.913635">
        <ele>426.993003</ele>
        <time>2021-11-15T22:05:42.078Z</time>
      </trkpt>
      <trkpt lat="47.620841" lon="7.913331">
        <ele>424.902443</ele>
        <time>2021-11-15T22:05:43.847Z</time>
      </trkpt>
      <trkpt lat="47.620822" lon="7.912670">
        <ele>420.659066</ele>
        <time>2021-11-15T22:05:47.678Z</time>
      </trkpt>
      <trkpt lat="47.620858" lon="7.912289">
        <ele>418.364748</ele>
        <time>2021-11-15T22:05:49.920Z</time>
      </trkpt>
      <trkpt lat="47.620910" lon="7.911951">
        <ele>416.297241</ele>
        <time>2021-11-15T22:05:51.933Z</time>
      </trkpt>
      <trkpt lat="47.620953" lon="7.911653">
        <ele>414.479848</ele>
        <time>2021-11-15T22:05:53.723Z</time>
      </trkpt>
      <trkpt lat="47.620946" lon="7.911321">
        <ele>412.498995</ele>
        <time>2021-11-15T22:05:55.694Z</time>
      </trkpt>
      <trkpt lat="47.620846" lon="7.911023">
        <ele>410.513808</ele>
        <time>2021-11-15T22:05:57.665Z</time>
      </trkpt>
      <trkpt lat="47.620625" lon="7.910808">
        <ele>408.175618</ele>
        <time>2021-11-15T22:05:59.995Z</time>
      </trkpt>
      <trkpt lat="47.620181" lon="7.910694">
        <ele>405.080689</ele>
        <time>2021-11-15T22:06:04.002Z</time>
      </trkpt>
      <trkpt lat="47.620162" lon="7.910587">
        <ele>404.664780</ele>
        <time>2021-11-15T22:06:04.669Z</time>
      </trkpt>
      <trkpt lat="47.620245" lon="7.910440">
        <ele>403.944001</ele>
        <time>2021-11-15T22:06:05.841Z</time>
      </trkpt>
      <trkpt lat="47.620712" lon="7.910483">
        <ele>401.334791</ele>
        <time>2021-11-15T22:06:10.296Z</time>
      </trkpt>
      <trkpt lat="47.621308" lon="7.910162">
        <ele>397.799003</ele>
        <time>2021-11-15T22:06:16.350Z</time>
      </trkpt>
      <trkpt lat="47.621461" lon="7.910146">
        <ele>396.943690</ele>
        <time>2021-11-15T22:06:17.762Z</time>
      </trkpt>
      <trkpt lat="47.622368" lon="7.910396">
        <ele>392.425945</ele>
        <time>2021-11-15T22:06:26.460Z</time>
      </trkpt>
      <trkpt lat="47.622666" lon="7.910254">
        <ele>390.909774</ele>
        <time>2021-11-15T22:06:29.474Z</time>
      </trkpt>
      <trkpt lat="47.622755" lon="7.910176">
        <ele>390.409049</ele>
        <time>2021-11-15T22:06:30.426Z</time>
      </trkpt>
      <trkpt lat="47.622850" lon="7.910055">
        <ele>389.802544</ele>
        <time>2021-11-15T22:06:31.639Z</time>
      </trkpt>
      <trkpt lat="47.623414" lon="7.909173">
        <ele>385.533541</ele>
        <time>2021-11-15T22:06:39.483Z</time>
      </trkpt>
      <trkpt lat="47.623851" lon="7.909030">
        <ele>383.045168</ele>
        <time>2021-11-15T22:06:43.655Z</time>
      </trkpt>
      <trkpt lat="47.624367" lon="7.909092">
        <ele>380.166515</ele>
        <time>2021-11-15T22:06:48.574Z</time>
      </trkpt>
      <trkpt lat="47.624823" lon="7.909229">
        <ele>377.406889</ele>
        <time>2021-11-15T22:06:52.786Z</time>
      </trkpt>
      <trkpt lat="47.624962" lon="7.909272">
        <ele>376.125823</ele>
        <time>2021-11-15T22:06:54.016Z</time>
      </trkpt>
      <trkpt lat="47.625366" lon="7.909623">
        <ele>371.901894</ele>
        <time>2021-11-15T22:06:58.135Z</time>
      </trkpt>
      <trkpt lat="47.625586" lon="7.909712">
        <ele>369.844535</ele>
        <time>2021-11-15T22:07:00.122Z</time>
      </trkpt>
      <trkpt lat="47.625630" lon="7.909700">
        <ele>369.440904</ele>
        <time>2021-11-15T22:07:00.494Z</time>
      </trkpt>
      <trkpt lat="47.625660" lon="7.909693">
        <ele>369.166909</ele>
        <time>2021-11-15T22:07:00.750Z</time>
      </trkpt>
      <trkpt lat="47.625738" lon="7.909657">
        <ele>368.429910</ele>
        <time>2021-11-15T22:07:01.497Z</time>
      </trkpt>
      <trkpt lat="47.625820" lon="7.909530">
        <ele>367.360460</ele>
        <time>2021-11-15T22:07:02.533Z</time>
      </trkpt>
      <trkpt lat="47.625875" lon="7.909372">
        <ele>366.279121</ele>
        <time>2021-11-15T22:07:03.539Z</time>
      </trkpt>
      <trkpt lat="47.626074" lon="7.908682">
        <ele>361.715406</ele>
        <time>2021-11-15T22:07:07.908Z</time>
      </trkpt>
      <trkpt lat="47.626373" lon="7.908242">
        <ele>358.873593</ele>
        <time>2021-11-15T22:07:11.540Z</time>
      </trkpt>
      <trkpt lat="47.626436" lon="7.907974">
        <ele>357.592849</ele>
        <time>2021-11-15T22:07:13.166Z</time>
      </trkpt>
      <trkpt lat="47.626446" lon="7.907798">
        <ele>356.795869</ele>
        <time>2021-11-15T22:07:14.244Z</time>
      </trkpt>
      <trkpt lat="47.626442" lon="7.907543">
        <ele>355.644923</ele>
        <time>2021-11-15T22:07:15.731Z</time>
      </trkpt>
      <trkpt lat="47.626436" lon="7.907187">
        <ele>354.038045</ele>
        <time>2021-11-15T22:07:17.966Z</time>
      </trkpt>
      <trkpt lat="47.626436" lon="7.907061">
        <ele>353.469497</ele>
        <time>2021-11-15T22:07:18.785Z</time>
      </trkpt>
      <trkpt lat="47.626436" lon="7.906623">
        <ele>351.493113</ele>
        <time>2021-11-15T22:07:21.654Z</time>
      </trkpt>
      <trkpt lat="47.626439" lon="7.906299">
        <ele>350.030993</ele>
        <time>2021-11-15T22:07:23.804Z</time>
      </trkpt>
      <trkpt lat="47.626443" lon="7.905945">
        <ele>349.592212</ele>
        <time>2021-11-15T22:07:26.352Z</time>
      </trkpt>
      <trkpt lat="47.626455" lon="7.905343">
        <ele>349.605720</ele>
        <time>2021-11-15T22:07:31.259Z</time>
      </trkpt>
      <trkpt lat="47.626460" lon="7.905124">
        <ele>349.610635</ele>
        <time>2021-11-15T22:07:33.404Z</time>
      </trkpt>
      <trkpt lat="47.626440" lon="7.905007">
        <ele>349.613342</ele>
        <time>2021-11-15T22:07:35.152Z</time>
      </trkpt>
      <trkpt lat="47.626399" lon="7.904961">
        <ele>349.615053</ele>
        <time>2021-11-15T22:07:35.921Z</time>
      </trkpt>
      <trkpt lat="47.626221" lon="7.904920">
        <ele>349.621047</ele>
        <time>2021-11-15T22:07:38.985Z</time>
      </trkpt>
      <trkpt lat="47.626086" lon="7.904879">
        <ele>349.625633</ele>
        <time>2021-11-15T22:07:42.166Z</time>
      </trkpt>
      <trkpt lat="47.625742" lon="7.904774">
        <ele>349.637321</ele>
        <time>2021-11-15T22:07:49.795Z</time>
      </trkpt>
      <trkpt lat="47.625516" lon="7.904701">
        <ele>349.645018</ele>
        <time>2021-11-15T22:07:54.429Z</time>
      </trkpt>
      <trkpt lat="47.625088" lon="7.904563">
        <ele>349.802476</ele>
        <time>2021-11-15T22:08:03.916Z</time>
      </trkpt>
      <trkpt lat="47.624956" lon="7.904522">
        <ele>349.855339</ele>
        <time>2021-11-15T22:08:06.672Z</time>
      </trkpt>
      <trkpt lat="47.624761" lon="7.904481">
        <ele>349.932539</ele>
        <time>2021-11-15T22:08:09.843Z</time>
      </trkpt>
      <trkpt lat="47.624565" lon="7.904455">
        <ele>350.009673</ele>
        <time>2021-11-15T22:08:12.902Z</time>
      </trkpt>
      <trkpt lat="47.624472" lon="7.904367">
        <ele>350.052910</ele>
        <time>2021-11-15T22:08:14.589Z</time>
      </trkpt>
      <trkpt lat="47.624451" lon="7.904332">
        <ele>350.065290</ele>
        <time>2021-11-15T22:08:15.110Z</time>
      </trkpt>
      <trkpt lat="47.624399" lon="7.904386">
        <ele>350.090169</ele>
        <time>2021-11-15T22:08:16.027Z</time>
      </trkpt>
      <trkpt lat="47.624263" lon="7.904484">
        <ele>350.149433</ele>
        <time>2021-11-15T22:08:18.249Z</time>
      </trkpt>
      <trkpt lat="47.624120" lon="7.904530">
        <ele>350.206788</ele>
        <time>2021-11-15T22:08:20.421Z</time>
      </trkpt>
      <trkpt lat="47.623650" lon="7.904642">
        <ele>350.225867</ele>
        <time>2021-11-15T22:08:26.699Z</time>
      </trkpt>
      <trkpt lat="47.622648" lon="7.904863">
        <ele>349.039632</ele>
        <time>2021-11-15T22:08:39.109Z</time>
      </trkpt>
      <trkpt lat="47.622424" lon="7.904919">
        <ele>348.773631</ele>
        <time>2021-11-15T22:08:41.717Z</time>
      </trkpt>
      <trkpt lat="47.622235" lon="7.904957">
        <ele>348.550289</ele>
        <time>2021-11-15T22:08:43.879Z</time>
      </trkpt>
      <trkpt lat="47.621248" lon="7.905159">
        <ele>346.678613</ele>
        <time>2021-11-15T22:08:54.988Z</time>
      </trkpt>
      <trkpt lat="47.621107" lon="7.905191">
        <ele>346.374917</ele>
        <time>2021-11-15T22:08:56.556Z</time>
      </trkpt>
      <trkpt lat="47.620699" lon="7.905223">
        <ele>345.505027</ele>
        <time>2021-11-15T22:09:00.984Z</time>
      </trkpt>
      <trkpt lat="47.620426" lon="7.905244">
        <ele>344.922999</ele>
        <time>2021-11-15T22:09:03.949Z</time>
      </trkpt>
      <trkpt lat="47.619447" lon="7.905300">
        <ele>342.041574</ele>
        <time>2021-11-15T22:09:14.077Z</time>
      </trkpt>
      <trkpt lat="47.619299" lon="7.905308">
        <ele>341.567364</ele>
        <time>2021-11-15T22:09:15.478Z</time>
      </trkpt>
      <trkpt lat="47.619155" lon="7.905319">
        <ele>341.105666</ele>
        <time>2021-11-15T22:09:17.059Z</time>
      </trkpt>
      <trkpt lat="47.618976" lon="7.905535">
        <ele>340.366849</ele>
        <time>2021-11-15T22:09:19.307Z</time>
      </trkpt>
      <trkpt lat="47.618920" lon="7.906208">
        <ele>338.903266</ele>
        <time>2021-11-15T22:09:24.005Z</time>
      </trkpt>
      <trkpt lat="47.618888" lon="7.906392">
        <ele>338.499003</ele>
        <time>2021-11-15T22:09:25.282Z</time>
      </trkpt>
      <trkpt lat="47.618867" lon="7.906514">
        <ele>338.237016</ele>
        <time>2021-11-15T22:09:26.066Z</time>
      </trkpt>
      <trkpt lat="47.618719" lon="7.906838">
        <ele>337.422667</ele>
        <time>2021-11-15T22:09:28.777Z</time>
      </trkpt>
      <trkpt lat="47.618579" lon="7.906988">
        <ele>336.889602</ele>
        <time>2021-11-15T22:09:30.422Z</time>
      </trkpt>
      <trkpt lat="47.618470" lon="7.907083">
        <ele>336.499377</ele>
        <time>2021-11-15T22:09:31.736Z</time>
      </trkpt>
      <trkpt lat="47.618197" lon="7.907190">
        <ele>335.627776</ele>
        <time>2021-11-15T22:09:34.583Z</time>
      </trkpt>
      <trkpt lat="47.617978" lon="7.907276">
        <ele>334.928492</ele>
        <time>2021-11-15T22:09:36.841Z</time>
      </trkpt>
      <trkpt lat="47.617957" lon="7.907285">
        <ele>334.861019</ele>
        <time>2021-11-15T22:09:37.042Z</time>
      </trkpt>
      <trkpt lat="47.617238" lon="7.908130">
        <ele>332.598994</ele>
        <time>2021-11-15T22:09:46.884Z</time>
      </trkpt>
      <trkpt lat="47.617086" lon="7.908230">
        <ele>332.357643</ele>
        <time>2021-11-15T22:09:48.744Z</time>
      </trkpt>
      <trkpt lat="47.616832" lon="7.908284">
        <ele>331.985194</ele>
        <time>2021-11-15T22:09:51.671Z</time>
      </trkpt>
      <trkpt lat="47.616604" lon="7.908203">
        <ele>331.644894</ele>
        <time>2021-11-15T22:09:54.249Z</time>
      </trkpt>
      <trkpt lat="47.616124" lon="7.907729">
        <ele>330.807925</ele>
        <time>2021-11-15T22:10:01.068Z</time>
      </trkpt>
      <trkpt lat="47.616009" lon="7.907686">
        <ele>330.635781</ele>
        <time>2021-11-15T22:10:02.633Z</time>
      </trkpt>
      <trkpt lat="47.615946" lon="7.907692">
        <ele>330.544148</ele>
        <time>2021-11-15T22:10:03.399Z</time>
      </trkpt>
      <trkpt lat="47.615821" lon="7.907747">
        <ele>330.537363</ele>
        <time>2021-11-15T22:10:05.478Z</time>
      </trkpt>
      <trkpt lat="47.615669" lon="7.907870">
        <ele>330.616497</ele>
        <time>2021-11-15T22:10:08.157Z</time>
      </trkpt>
      <trkpt lat="47.615460" lon="7.908111">
        <ele>330.737481</ele>
        <time>2021-11-15T22:10:12.529Z</time>
      </trkpt>
      <trkpt lat="47.615374" lon="7.908222">
        <ele>330.789581</ele>
        <time>2021-11-15T22:10:14.447Z</time>
      </trkpt>
      <trkpt lat="47.615246" lon="7.908385">
        <ele>330.866680</ele>
        <time>2021-11-15T22:10:17.470Z</time>
      </trkpt>
      <trkpt lat="47.615085" lon="7.908567">
        <ele>330.959193</ele>
        <time>2021-11-15T22:10:20.881Z</time>
      </trkpt>
      <trkpt lat="47.614876" lon="7.908760">
        <ele>331.071710</ele>
        <time>2021-11-15T22:10:25.200Z</time>
      </trkpt>
      <trkpt lat="47.614784" lon="7.908839">
        <ele>331.120294</ele>
        <time>2021-11-15T22:10:27.004Z</time>
      </trkpt>
      <trkpt lat="47.614412" lon="7.909095">
        <ele>331.307716</ele>
        <time>2021-11-15T22:10:34.274Z</time>
      </trkpt>
      <trkpt lat="47.614063" lon="7.909285">
        <ele>331.760407</ele>
        <time>2021-11-15T22:10:41.353Z</time>
      </trkpt>
      <trkpt lat="47.613934" lon="7.909339">
        <ele>331.928662</ele>
        <time>2021-11-15T22:10:43.931Z</time>
      </trkpt>
      <trkpt lat="47.613360" lon="7.909602">
        <ele>332.682781</ele>
        <time>2021-11-15T22:10:56.736Z</time>
      </trkpt>
      <trkpt lat="47.613280" lon="7.909624">
        <ele>332.784915</ele>
        <time>2021-11-15T22:10:58.424Z</time>
      </trkpt>
      <trkpt lat="47.612897" lon="7.909812">
        <ele>333.291325</ele>
        <time>2021-11-15T22:11:06.979Z</time>
      </trkpt>
      <trkpt lat="47.612216" lon="7.910134">
        <ele>333.831114</ele>
        <time>2021-11-15T22:11:19.991Z</time>
      </trkpt>
      <trkpt lat="47.612131" lon="7.910214">
        <ele>333.884039</ele>
        <time>2021-11-15T22:11:21.883Z</time>
      </trkpt>
      <trkpt lat="47.612082" lon="7.910269">
        <ele>333.916346</ele>
        <time>2021-11-15T22:11:22.961Z</time>
      </trkpt>
      <trkpt lat="47.612020" lon="7.910364">
        <ele>333.963210</ele>
        <time>2021-11-15T22:11:24.521Z</time>
      </trkpt>
      <trkpt lat="47.611986" lon="7.910466">
        <ele>334.003541</ele>
        <time>2021-11-15T22:11:25.791Z</time>
      </trkpt>
      <trkpt lat="47.611981" lon="7.910534">
        <ele>334.027785</ele>
        <time>2021-11-15T22:11:26.417Z</time>
      </trkpt>
      <trkpt lat="47.611988" lon="7.910610">
        <ele>334.054973</ele>
        <time>2021-11-15T22:11:27.377Z</time>
      </trkpt>
      <trkpt lat="47.611994" lon="7.910676">
        <ele>334.078577</ele>
        <time>2021-11-15T22:11:28.304Z</time>
      </trkpt>
      <trkpt lat="47.612005" lon="7.910790">
        <ele>334.119395</ele>
        <time>2021-11-15T22:11:29.568Z</time>
      </trkpt>
      <trkpt lat="47.612029" lon="7.910940">
        <ele>334.174037</ele>
        <time>2021-11-15T22:11:31.456Z</time>
      </trkpt>
      <trkpt lat="47.611260" lon="7.911383">
        <ele>334.378186</ele>
        <time>2021-11-15T22:11:44.604Z</time>
      </trkpt>
      <trkpt lat="47.610416" lon="7.911983">
        <ele>333.595233</ele>
        <time>2021-11-15T22:11:56.517Z</time>
      </trkpt>
      <trkpt lat="47.610054" lon="7.912196">
        <ele>333.269444</ele>
        <time>2021-11-15T22:12:00.990Z</time>
      </trkpt>
      <trkpt lat="47.609914" lon="7.912278">
        <ele>333.143526</ele>
        <time>2021-11-15T22:12:02.718Z</time>
      </trkpt>
      <trkpt lat="47.608679" lon="7.912703">
        <ele>331.391486</ele>
        <time>2021-11-15T22:12:17.445Z</time>
      </trkpt>
      <trkpt lat="47.607663" lon="7.913198">
        <ele>329.931886</ele>
        <time>2021-11-15T22:12:29.770Z</time>
      </trkpt>
      <trkpt lat="47.607292" lon="7.913435">
        <ele>329.447246</ele>
        <time>2021-11-15T22:12:34.468Z</time>
      </trkpt>
      <trkpt lat="47.606938" lon="7.913697">
        <ele>328.972591</ele>
        <time>2021-11-15T22:12:39.242Z</time>
      </trkpt>
      <trkpt lat="47.606706" lon="7.913869">
        <ele>328.661411</ele>
        <time>2021-11-15T22:12:42.430Z</time>
      </trkpt>
      <trkpt lat="47.606558" lon="7.913988">
        <ele>328.459434</ele>
        <time>2021-11-15T22:12:44.521Z</time>
      </trkpt>
      <trkpt lat="47.606450" lon="7.914067">
        <ele>328.314958</ele>
        <time>2021-11-15T22:12:46.020Z</time>
      </trkpt>
      <trkpt lat="47.606200" lon="7.914255">
        <ele>327.885626</ele>
        <time>2021-11-15T22:12:49.434Z</time>
      </trkpt>
      <trkpt lat="47.605929" lon="7.914457">
        <ele>327.389679</ele>
        <time>2021-11-15T22:12:53.117Z</time>
      </trkpt>
      <trkpt lat="47.605648" lon="7.914613">
        <ele>326.899061</ele>
        <time>2021-11-15T22:12:56.681Z</time>
      </trkpt>
      <trkpt lat="47.605408" lon="7.914750">
        <ele>326.478556</ele>
        <time>2021-11-15T22:12:59.632Z</time>
      </trkpt>
      <trkpt lat="47.605105" lon="7.914869">
        <ele>325.966020</ele>
        <time>2021-11-15T22:13:03.203Z</time>
      </trkpt>
      <trkpt lat="47.604722" lon="7.914915">
        <ele>325.337697</ele>
        <time>2021-11-15T22:13:07.374Z</time>
      </trkpt>
      <trkpt lat="47.604393" lon="7.914885">
        <ele>324.062133</ele>
        <time>2021-11-15T22:13:10.793Z</time>
      </trkpt>
      <trkpt lat="47.604062" lon="7.914772">
        <ele>322.680676</ele>
        <time>2021-11-15T22:13:14.182Z</time>
      </trkpt>
      <trkpt lat="47.603884" lon="7.914671">
        <ele>321.905536</ele>
        <time>2021-11-15T22:13:15.970Z</time>
      </trkpt>
      <trkpt lat="47.603615" lon="7.914449">
        <ele>320.653474</ele>
        <time>2021-11-15T22:13:18.918Z</time>
      </trkpt>
      <trkpt lat="47.603373" lon="7.914188">
        <ele>319.436472</ele>
        <time>2021-11-15T22:13:21.762Z</time>
      </trkpt>
      <trkpt lat="47.603038" lon="7.913754">
        <ele>317.627545</ele>
        <time>2021-11-15T22:13:25.953Z</time>
      </trkpt>
      <trkpt lat="47.602861" lon="7.913538">
        <ele>316.695855</ele>
        <time>2021-11-15T22:13:28.157Z</time>
      </trkpt>
      <trkpt lat="47.602742" lon="7.913448">
        <ele>316.152898</ele>
        <time>2021-11-15T22:13:29.394Z</time>
      </trkpt>
      <trkpt lat="47.602118" lon="7.913280">
        <ele>313.575093</ele>
        <time>2021-11-15T22:13:35.449Z</time>
      </trkpt>
      <trkpt lat="47.600086" lon="7.913316">
        <ele>307.047017</ele>
        <time>2021-11-15T22:13:56.262Z</time>
      </trkpt>
      <trkpt lat="47.599361" lon="7.913211">
        <ele>305.269157</ele>
        <time>2021-11-15T22:14:04.111Z</time>
      </trkpt>
      <trkpt lat="47.598263" lon="7.912768">
        <ele>303.178512</ele>
        <time>2021-11-15T22:14:16.744Z</time>
      </trkpt>
      <trkpt lat="47.597324" lon="7.912182">
        <ele>301.670822</ele>
        <time>2021-11-15T22:14:28.554Z</time>
      </trkpt>
      <trkpt lat="47.597188" lon="7.912136">
        <ele>301.498520</ele>
        <time>2021-11-15T22:14:30.196Z</time>
      </trkpt>
      <trkpt lat="47.596928" lon="7.912047">
        <ele>301.168923</ele>
        <time>2021-11-15T22:14:33.379Z</time>
      </trkpt>
      <trkpt lat="47.596657" lon="7.912027">
        <ele>300.833769</ele>
        <time>2021-11-15T22:14:36.649Z</time>
      </trkpt>
      <trkpt lat="47.596383" lon="7.912050">
        <ele>300.494782</ele>
        <time>2021-11-15T22:14:39.975Z</time>
      </trkpt>
      <trkpt lat="47.595919" lon="7.912182">
        <ele>300.075583</ele>
        <time>2021-11-15T22:14:45.799Z</time>
      </trkpt>
      <trkpt lat="47.595049" lon="7.912419">
        <ele>299.613601</ele>
        <time>2021-11-15T22:14:57.088Z</time>
      </trkpt>
      <trkpt lat="47.594246" lon="7.912426">
        <ele>299.318194</ele>
        <time>2021-11-15T22:15:08.211Z</time>
      </trkpt>
      <trkpt lat="47.593192" lon="7.912179">
        <ele>299.867951</ele>
        <time>2021-11-15T22:15:26.098Z</time>
      </trkpt>
      <trkpt lat="47.592198" lon="7.912030">
        <ele>300.141384</ele>
        <time>2021-11-15T22:15:45.015Z</time>
      </trkpt>
      <trkpt lat="47.591524" lon="7.911777">
        <ele>300.066120</ele>
        <time>2021-11-15T22:15:56.313Z</time>
      </trkpt>
      <trkpt lat="47.591361" lon="7.911643">
        <ele>300.045944</ele>
        <time>2021-11-15T22:15:59.675Z</time>
      </trkpt>
      <trkpt lat="47.591227" lon="7.911486">
        <ele>300.027456</ele>
        <time>2021-11-15T22:16:01.649Z</time>
      </trkpt>
      <trkpt lat="47.590486" lon="7.910371">
        <ele>298.458121</ele>
        <time>2021-11-15T22:16:13.389Z</time>
      </trkpt>
      <trkpt lat="47.590199" lon="7.910097">
        <ele>297.708083</ele>
        <time>2021-11-15T22:16:16.980Z</time>
      </trkpt>
      <trkpt lat="47.589984" lon="7.909953">
        <ele>297.189704</ele>
        <time>2021-11-15T22:16:19.379Z</time>
      </trkpt>
      <trkpt lat="47.589846" lon="7.909880">
        <ele>296.867757</ele>
        <time>2021-11-15T22:16:20.958Z</time>
      </trkpt>
      <trkpt lat="47.589453" lon="7.909790">
        <ele>296.007794</ele>
        <time>2021-11-15T22:16:25.164Z</time>
      </trkpt>
      <trkpt lat="47.589186" lon="7.909798">
        <ele>295.611966</ele>
        <time>2021-11-15T22:16:28.031Z</time>
      </trkpt>
      <trkpt lat="47.588985" lon="7.909827">
        <ele>295.312637</ele>
        <time>2021-11-15T22:16:30.211Z</time>
      </trkpt>
      <trkpt lat="47.587926" lon="7.910125">
        <ele>293.714969</ele>
        <time>2021-11-15T22:16:42.862Z</time>
      </trkpt>
      <trkpt lat="47.587479" lon="7.910228">
        <ele>293.187908</ele>
        <time>2021-11-15T22:16:48.920Z</time>
      </trkpt>
      <trkpt lat="47.587167" lon="7.910236">
        <ele>292.928891</ele>
        <time>2021-11-15T22:16:53.034Z</time>
      </trkpt>
      <trkpt lat="47.586813" lon="7.910134">
        <ele>292.629552</ele>
        <time>2021-11-15T22:16:57.467Z</time>
      </trkpt>
      <trkpt lat="47.586540" lon="7.909941">
        <ele>292.378503</ele>
        <time>2021-11-15T22:17:01.154Z</time>
      </trkpt>
      <trkpt lat="47.586265" lon="7.909589">
        <ele>292.076937</ele>
        <time>2021-11-15T22:17:05.533Z</time>
      </trkpt>
      <trkpt lat="47.586062" lon="7.909215">
        <ele>291.867167</ele>
        <time>2021-11-15T22:17:09.611Z</time>
      </trkpt>
      <trkpt lat="47.585956" lon="7.908983">
        <ele>291.843794</ele>
        <time>2021-11-15T22:17:12.055Z</time>
      </trkpt>
      <trkpt lat="47.585899" lon="7.908777">
        <ele>291.825222</ele>
        <time>2021-11-15T22:17:14.108Z</time>
      </trkpt>
      <trkpt lat="47.585750" lon="7.908439">
        <ele>291.791543</ele>
        <time>2021-11-15T22:17:17.713Z</time>
      </trkpt>
      <trkpt lat="47.585760" lon="7.908367">
        <ele>291.785411</ele>
        <time>2021-11-15T22:17:18.428Z</time>
      </trkpt>
      <trkpt lat="47.585751" lon="7.908295">
        <ele>291.779303</ele>
        <time>2021-11-15T22:17:19.206Z</time>
      </trkpt>
      <trkpt lat="47.585761" lon="7.908160">
        <ele>291.767976</ele>
        <time>2021-11-15T22:17:20.990Z</time>
      </trkpt>
      <trkpt lat="47.585759" lon="7.908093">
        <ele>291.762382</ele>
        <time>2021-11-15T22:17:21.783Z</time>
      </trkpt>
      <trkpt lat="47.585745" lon="7.907994">
        <ele>291.753945</ele>
        <time>2021-11-15T22:17:23.095Z</time>
      </trkpt>
      <trkpt lat="47.585709" lon="7.907887">
        <ele>291.743971</ele>
        <time>2021-11-15T22:17:24.639Z</time>
      </trkpt>
      <trkpt lat="47.585496" lon="7.906982">
        <ele>291.664022</ele>
        <time>2021-11-15T22:17:34.781Z</time>
      </trkpt>
      <trkpt lat="47.585477" lon="7.906769">
        <ele>291.742920</ele>
        <time>2021-11-15T22:17:37.325Z</time>
      </trkpt>
      <trkpt lat="47.585522" lon="7.905992">
        <ele>292.380141</ele>
        <time>2021-11-15T22:17:47.510Z</time>
      </trkpt>
      <trkpt lat="47.585585" lon="7.905551">
        <ele>292.748474</ele>
        <time>2021-11-15T22:17:53.840Z</time>
      </trkpt>
      <trkpt lat="47.585693" lon="7.905272">
        <ele>293.011319</ele>
        <time>2021-11-15T22:17:58.441Z</time>
      </trkpt>
      <trkpt lat="47.585762" lon="7.905099">
        <ele>293.175542</ele>
        <time>2021-11-15T22:18:01.269Z</time>
      </trkpt>
      <trkpt lat="47.585958" lon="7.904606">
        <ele>293.643139</ele>
        <time>2021-11-15T22:18:09.231Z</time>
      </trkpt>
      <trkpt lat="47.586407" lon="7.903407">
        <ele>294.619364</ele>
        <time>2021-11-15T22:18:27.165Z</time>
      </trkpt>
      <trkpt lat="47.586847" lon="7.902221">
        <ele>295.553644</ele>
        <time>2021-11-15T22:18:44.169Z</time>
      </trkpt>
      <trkpt lat="47.587029" lon="7.901746">
        <ele>295.873530</ele>
        <time>2021-11-15T22:18:50.783Z</time>
      </trkpt>
      <trkpt lat="47.587506" lon="7.900489">
        <ele>296.646716</ele>
        <time>2021-11-15T22:19:07.814Z</time>
      </trkpt>
      <trkpt lat="47.587961" lon="7.899254">
        <ele>297.472197</ele>
        <time>2021-11-15T22:19:25.256Z</time>
      </trkpt>
      <trkpt lat="47.588436" lon="7.898021">
        <ele>298.415705</ele>
        <time>2021-11-15T22:19:43.324Z</time>
      </trkpt>
      <trkpt lat="47.588506" lon="7.897839">
        <ele>298.554918</ele>
        <time>2021-11-15T22:19:45.796Z</time>
      </trkpt>
      <trkpt lat="47.588808" lon="7.897009">
        <ele>299.142950</ele>
        <time>2021-11-15T22:19:58.080Z</time>
      </trkpt>
      <trkpt lat="47.589118" lon="7.896174">
        <ele>299.696195</ele>
        <time>2021-11-15T22:20:10.477Z</time>
      </trkpt>
      <trkpt lat="47.589590" lon="7.894990">
        <ele>300.419535</ele>
        <time>2021-11-15T22:20:26.899Z</time>
      </trkpt>
      <trkpt lat="47.589932" lon="7.894260">
        <ele>300.385337</ele>
        <time>2021-11-15T22:20:36.464Z</time>
      </trkpt>
      <trkpt lat="47.589960" lon="7.894201">
        <ele>300.382562</ele>
        <time>2021-11-15T22:20:37.157Z</time>
      </trkpt>
      <trkpt lat="47.590704" lon="7.892594">
        <ele>300.108998</ele>
        <time>2021-11-15T22:20:55.253Z</time>
      </trkpt>
      <trkpt lat="47.591003" lon="7.891941">
        <ele>299.648560</ele>
        <time>2021-11-15T22:21:01.927Z</time>
      </trkpt>
      <trkpt lat="47.591247" lon="7.891264">
        <ele>299.200766</ele>
        <time>2021-11-15T22:21:08.420Z</time>
      </trkpt>
      <trkpt lat="47.591381" lon="7.890797">
        <ele>298.904704</ele>
        <time>2021-11-15T22:21:12.450Z</time>
      </trkpt>
      <trkpt lat="47.591692" lon="7.889232">
        <ele>297.613086</ele>
        <time>2021-11-15T22:21:25.335Z</time>
      </trkpt>
      <trkpt lat="47.591728" lon="7.889070">
        <ele>297.471982</ele>
        <time>2021-11-15T22:21:26.641Z</time>
      </trkpt>
      <trkpt lat="47.591763" lon="7.888925">
        <ele>297.344578</ele>
        <time>2021-11-15T22:21:27.845Z</time>
      </trkpt>
      <trkpt lat="47.591866" lon="7.888529">
        <ele>296.993464</ele>
        <time>2021-11-15T22:21:31.229Z</time>
      </trkpt>
      <trkpt lat="47.592202" lon="7.887383">
        <ele>296.559092</ele>
        <time>2021-11-15T22:21:41.700Z</time>
      </trkpt>
      <trkpt lat="47.592317" lon="7.886983">
        <ele>296.558853</ele>
        <time>2021-11-15T22:21:45.554Z</time>
      </trkpt>
      <trkpt lat="47.592365" lon="7.886816">
        <ele>296.558753</ele>
        <time>2021-11-15T22:21:47.404Z</time>
      </trkpt>
      <trkpt lat="47.592409" lon="7.886663">
        <ele>296.558662</ele>
        <time>2021-11-15T22:21:49.072Z</time>
      </trkpt>
      <trkpt lat="47.592651" lon="7.885826">
        <ele>296.558161</ele>
        <time>2021-11-15T22:22:00.130Z</time>
      </trkpt>
      <trkpt lat="47.592802" lon="7.885426">
        <ele>296.683706</ele>
        <time>2021-11-15T22:22:05.723Z</time>
      </trkpt>
      <trkpt lat="47.593166" lon="7.884637">
        <ele>297.256446</ele>
        <time>2021-11-15T22:22:17.230Z</time>
      </trkpt>
      <trkpt lat="47.593354" lon="7.884147">
        <ele>297.594204</ele>
        <time>2021-11-15T22:22:24.351Z</time>
      </trkpt>
      <trkpt lat="47.593465" lon="7.883826">
        <ele>297.810332</ele>
        <time>2021-11-15T22:22:29.124Z</time>
      </trkpt>
      <trkpt lat="47.593516" lon="7.883635">
        <ele>297.933408</ele>
        <time>2021-11-15T22:22:31.912Z</time>
      </trkpt>
      <trkpt lat="47.593602" lon="7.883202">
        <ele>298.118062</ele>
        <time>2021-11-15T22:22:37.969Z</time>
      </trkpt>
      <trkpt lat="47.593695" lon="7.882631">
        <ele>297.839792</ele>
        <time>2021-11-15T22:22:44.866Z</time>
      </trkpt>
      <trkpt lat="47.593743" lon="7.882378">
        <ele>297.715289</ele>
        <time>2021-11-15T22:22:47.284Z</time>
      </trkpt>
      <trkpt lat="47.593831" lon="7.882052">
        <ele>297.548945</ele>
        <time>2021-11-15T22:22:50.503Z</time>
      </trkpt>
      <trkpt lat="47.593869" lon="7.881927">
        <ele>297.483992</ele>
        <time>2021-11-15T22:22:51.588Z</time>
      </trkpt>
      <trkpt lat="47.593960" lon="7.881629">
        <ele>297.329027</ele>
        <time>2021-11-15T22:22:54.235Z</time>
      </trkpt>
      <trkpt lat="47.593971" lon="7.881590">
        <ele>297.309001</ele>
        <time>2021-11-15T22:22:54.571Z</time>
      </trkpt>
      <trkpt lat="47.593986" lon="7.881532">
        <ele>297.279575</ele>
        <time>2021-11-15T22:22:55.043Z</time>
      </trkpt>
      <trkpt lat="47.594029" lon="7.881400">
        <ele>297.210131</ele>
        <time>2021-11-15T22:22:56.124Z</time>
      </trkpt>
      <trkpt lat="47.594057" lon="7.881307">
        <ele>297.161885</ele>
        <time>2021-11-15T22:22:56.913Z</time>
      </trkpt>
      <trkpt lat="47.594067" lon="7.881235">
        <ele>297.127061</ele>
        <time>2021-11-15T22:22:57.459Z</time>
      </trkpt>
      <trkpt lat="47.594067" lon="7.881089">
        <ele>297.057899</ele>
        <time>2021-11-15T22:22:58.598Z</time>
      </trkpt>
      <trkpt lat="47.594054" lon="7.881021">
        <ele>297.024417</ele>
        <time>2021-11-15T22:22:59.127Z</time>
      </trkpt>
      <trkpt lat="47.594014" lon="7.880939">
        <ele>296.976476</ele>
        <time>2021-11-15T22:22:59.864Z</time>
      </trkpt>
      <trkpt lat="47.593967" lon="7.880875">
        <ele>296.931652</ele>
        <time>2021-11-15T22:23:00.569Z</time>
      </trkpt>
      <trkpt lat="47.593811" lon="7.880736">
        <ele>296.503497</ele>
        <time>2021-11-15T22:23:02.587Z</time>
      </trkpt>
      <trkpt lat="47.593729" lon="7.880642">
        <ele>296.184144</ele>
        <time>2021-11-15T22:23:03.694Z</time>
      </trkpt>
      <trkpt lat="47.593692" lon="7.880558">
        <ele>295.975668</ele>
        <time>2021-11-15T22:23:04.434Z</time>
      </trkpt>
      <trkpt lat="47.593635" lon="7.880635">
        <ele>295.738088</ele>
        <time>2021-11-15T22:23:05.262Z</time>
      </trkpt>
      <trkpt lat="47.593588" lon="7.880675">
        <ele>295.571116</ele>
        <time>2021-11-15T22:23:05.872Z</time>
      </trkpt>
      <trkpt lat="47.593483" lon="7.880648">
        <ele>295.242763</ele>
        <time>2021-11-15T22:23:07.014Z</time>
      </trkpt>
      <trkpt lat="47.593164" lon="7.880480">
        <ele>294.199715</ele>
        <time>2021-11-15T22:23:10.477Z</time>
      </trkpt>
      <trkpt lat="47.592855" lon="7.880299">
        <ele>293.176035</ele>
        <time>2021-11-15T22:23:13.760Z</time>
      </trkpt>
      <trkpt lat="47.592558" lon="7.880084">
        <ele>292.157694</ele>
        <time>2021-11-15T22:23:16.971Z</time>
      </trkpt>
      <trkpt lat="47.592176" lon="7.879859">
        <ele>290.937836</ele>
        <time>2021-11-15T22:23:21.020Z</time>
      </trkpt>
      <trkpt lat="47.591747" lon="7.879696">
        <ele>289.711778</ele>
        <time>2021-11-15T22:23:25.492Z</time>
      </trkpt>
      <trkpt lat="47.591433" lon="7.879589">
        <ele>288.819809</ele>
        <time>2021-11-15T22:23:28.826Z</time>
      </trkpt>
      <trkpt lat="47.591348" lon="7.879568">
        <ele>288.581242</ele>
        <time>2021-11-15T22:23:29.741Z</time>
      </trkpt>
      <trkpt lat="47.591318" lon="7.879563">
        <ele>288.497664</ele>
        <time>2021-11-15T22:23:30.066Z</time>
      </trkpt>
      <trkpt lat="47.591234" lon="7.879550">
        <ele>288.263847</ele>
        <time>2021-11-15T22:23:30.950Z</time>
      </trkpt>
      <trkpt lat="47.591201" lon="7.878391">
        <ele>286.230248</ele>
        <time>2021-11-15T22:23:39.386Z</time>
      </trkpt>
      <trkpt lat="47.591165" lon="7.877839">
        <ele>285.696518</ele>
        <time>2021-11-15T22:23:43.490Z</time>
      </trkpt>
      <trkpt lat="47.591021" lon="7.877714">
        <ele>285.458401</ele>
        <time>2021-11-15T22:23:45.407Z</time>
      </trkpt>
      <trkpt lat="47.590631" lon="7.877615">
        <ele>284.893762</ele>
        <time>2021-11-15T22:23:50.102Z</time>
      </trkpt>
      <trkpt lat="47.590500" lon="7.877526">
        <ele>284.688131</ele>
        <time>2021-11-15T22:23:51.781Z</time>
      </trkpt>
      <trkpt lat="47.590479" lon="7.877434">
        <ele>284.594654</ele>
        <time>2021-11-15T22:23:52.553Z</time>
      </trkpt>
      <trkpt lat="47.590532" lon="7.877177">
        <ele>284.336006</ele>
        <time>2021-11-15T22:23:54.860Z</time>
      </trkpt>
      <trkpt lat="47.590592" lon="7.876946">
        <ele>284.097768</ele>
        <time>2021-11-15T22:23:56.816Z</time>
      </trkpt>
      <trkpt lat="47.590643" lon="7.876593">
        <ele>283.780117</ele>
        <time>2021-11-15T22:23:59.885Z</time>
      </trkpt>
      <trkpt lat="47.590771" lon="7.875667">
        <ele>283.372657</ele>
        <time>2021-11-15T22:24:07.914Z</time>
      </trkpt>
      <trkpt lat="47.590851" lon="7.875195">
        <ele>283.162870</ele>
        <time>2021-11-15T22:24:12.082Z</time>
      </trkpt>
      <trkpt lat="47.591067" lon="7.874101">
        <ele>282.671498</ele>
        <time>2021-11-15T22:24:22.412Z</time>
      </trkpt>
      <trkpt lat="47.591105" lon="7.873760">
        <ele>282.517547</ele>
        <time>2021-11-15T22:24:25.600Z</time>
      </trkpt>
      <trkpt lat="47.591074" lon="7.872343">
        <ele>281.883449</ele>
        <time>2021-11-15T22:24:38.090Z</time>
      </trkpt>
      <trkpt lat="47.590993" lon="7.871168">
        <ele>281.376676</ele>
        <time>2021-11-15T22:24:48.026Z</time>
      </trkpt>
      <trkpt lat="47.590885" lon="7.870375">
        <ele>281.087749</ele>
        <time>2021-11-15T22:24:54.845Z</time>
      </trkpt>
      <trkpt lat="47.590882" lon="7.870356">
        <ele>281.080780</ele>
        <time>2021-11-15T22:24:55.028Z</time>
      </trkpt>
      <trkpt lat="47.590872" lon="7.870300">
        <ele>281.060091</ele>
        <time>2021-11-15T22:24:55.612Z</time>
      </trkpt>
      <trkpt lat="47.590870" lon="7.870288">
        <ele>281.055676</ele>
        <time>2021-11-15T22:24:55.759Z</time>
      </trkpt>
      <trkpt lat="47.590773" lon="7.869984">
        <ele>280.935568</ele>
        <time>2021-11-15T22:24:58.658Z</time>
      </trkpt>
      <trkpt lat="47.590705" lon="7.869768">
        <ele>280.850436</ele>
        <time>2021-11-15T22:25:00.878Z</time>
      </trkpt>
      <trkpt lat="47.590470" lon="7.869069">
        <ele>280.571498</ele>
        <time>2021-11-15T22:25:07.909Z</time>
      </trkpt>
      <trkpt lat="47.590421" lon="7.868927">
        <ele>280.514531</ele>
        <time>2021-11-15T22:25:09.376Z</time>
      </trkpt>
      <trkpt lat="47.590348" lon="7.868680">
        <ele>280.545982</ele>
        <time>2021-11-15T22:25:12.250Z</time>
      </trkpt>
      <trkpt lat="47.590292" lon="7.868520">
        <ele>280.571826</ele>
        <time>2021-11-15T22:25:13.878Z</time>
      </trkpt>
      <trkpt lat="47.590365" lon="7.868441">
        <ele>280.591038</ele>
        <time>2021-11-15T22:25:15.268Z</time>
      </trkpt>
      <trkpt lat="47.590348" lon="7.868400">
        <ele>280.597938</ele>
        <time>2021-11-15T22:25:15.933Z</time>
      </trkpt>
      <trkpt lat="47.590333" lon="7.867008">
        <ele>280.797531</ele>
        <time>2021-11-15T22:25:30.926Z</time>
      </trkpt>
      <trkpt lat="47.590274" lon="7.866644">
        <ele>280.851203</ele>
        <time>2021-11-15T22:25:35.424Z</time>
      </trkpt>
      <trkpt lat="47.590266" lon="7.866595">
        <ele>280.858431</ele>
        <time>2021-11-15T22:25:35.962Z</time>
      </trkpt>
      <trkpt lat="47.590251" lon="7.866509">
        <ele>280.871167</ele>
        <time>2021-11-15T22:25:36.840Z</time>
      </trkpt>
      <trkpt lat="47.589823" lon="7.864422">
        <ele>281.154759</ele>
        <time>2021-11-15T22:26:00.110Z</time>
      </trkpt>
      <trkpt lat="47.589471" lon="7.862994">
        <ele>281.190821</ele>
        <time>2021-11-15T22:26:14.856Z</time>
      </trkpt>
      <trkpt lat="47.587447" lon="7.853842">
        <ele>280.784422</ele>
        <time>2021-11-15T22:27:49.504Z</time>
      </trkpt>
      <trkpt lat="47.587300" lon="7.853345">
        <ele>280.833839</ele>
        <time>2021-11-15T22:27:55.074Z</time>
      </trkpt>
      <trkpt lat="47.586757" lon="7.850579">
        <ele>281.275606</ele>
        <time>2021-11-15T22:28:25.831Z</time>
      </trkpt>
      <trkpt lat="47.586522" lon="7.848600">
        <ele>281.751694</ele>
        <time>2021-11-15T22:28:48.013Z</time>
      </trkpt>
      <trkpt lat="47.586484" lon="7.848370">
        <ele>281.791276</ele>
        <time>2021-11-15T22:28:50.657Z</time>
      </trkpt>
      <trkpt lat="47.586486" lon="7.847936">
        <ele>281.856700</ele>
        <time>2021-11-15T22:28:55.368Z</time>
      </trkpt>
      <trkpt lat="47.586479" lon="7.847472">
        <ele>281.926664</ele>
        <time>2021-11-15T22:29:00.375Z</time>
      </trkpt>
      <trkpt lat="47.586467" lon="7.846677">
        <ele>282.046536</ele>
        <time>2021-11-15T22:29:08.857Z</time>
      </trkpt>
      <trkpt lat="47.586452" lon="7.845634">
        <ele>282.144842</ele>
        <time>2021-11-15T22:29:19.623Z</time>
      </trkpt>
      <trkpt lat="47.586790" lon="7.842637">
        <ele>281.854432</ele>
        <time>2021-11-15T22:29:48.896Z</time>
      </trkpt>
      <trkpt lat="47.586802" lon="7.842180">
        <ele>281.774406</ele>
        <time>2021-11-15T22:29:53.172Z</time>
      </trkpt>
      <trkpt lat="47.586809" lon="7.842018">
        <ele>281.746001</ele>
        <time>2021-11-15T22:29:54.675Z</time>
      </trkpt>
      <trkpt lat="47.586920" lon="7.841604">
        <ele>281.668045</ele>
        <time>2021-11-15T22:29:58.847Z</time>
      </trkpt>
      <trkpt lat="47.587628" lon="7.835942">
        <ele>280.488828</ele>
        <time>2021-11-15T22:30:52.257Z</time>
      </trkpt>
      <trkpt lat="47.587848" lon="7.834235">
        <ele>280.182984</ele>
        <time>2021-11-15T22:31:08.115Z</time>
      </trkpt>
      <trkpt lat="47.586496" lon="7.833050">
        <ele>280.837891</ele>
        <time>2021-11-15T22:31:30.481Z</time>
      </trkpt>
      <trkpt lat="47.586276" lon="7.833601">
        <ele>281.502296</ele>
        <time>2021-11-15T22:31:38.734Z</time>
      </trkpt>
      <trkpt lat="47.585278" lon="7.832688">
        <ele>284.216372</ele>
        <time>2021-11-15T22:32:10.188Z</time>
      </trkpt>
      <trkpt lat="47.585247" lon="7.832651">
        <ele>284.371993</ele>
        <time>2021-11-15T22:32:11.489Z</time>
      </trkpt>
      <trkpt lat="47.585195" lon="7.832588">
        <ele>284.634588</ele>
        <time>2021-11-15T22:32:13.684Z</time>
      </trkpt>
      <trkpt lat="47.585027" lon="7.832425">
        <ele>285.419694</ele>
        <time>2021-11-15T22:32:19.092Z</time>
      </trkpt>
      <trkpt lat="47.584717" lon="7.832264">
        <ele>286.704124</ele>
        <time>2021-11-15T22:32:28.757Z</time>
      </trkpt>
      <trkpt lat="47.584367" lon="7.832247">
        <ele>288.073477</ele>
        <time>2021-11-15T22:32:39.858Z</time>
      </trkpt>
      <trkpt lat="47.584156" lon="7.832334">
        <ele>288.929873</ele>
        <time>2021-11-15T22:32:47.565Z</time>
      </trkpt>
      <trkpt lat="47.584029" lon="7.832543">
        <ele>289.671830</ele>
        <time>2021-11-15T22:32:54.301Z</time>
      </trkpt>
      <trkpt lat="47.583849" lon="7.832883">
        <ele>290.673950</ele>
        <time>2021-11-15T22:33:04.690Z</time>
      </trkpt>
      <trkpt lat="47.583696" lon="7.833171">
        <ele>291.515379</ele>
        <time>2021-11-15T22:33:13.396Z</time>
      </trkpt>
      <trkpt lat="47.583523" lon="7.833509">
        <ele>292.489233</ele>
        <time>2021-11-15T22:33:21.856Z</time>
      </trkpt>
      <trkpt lat="47.583401" lon="7.833658">
        <ele>293.027097</ele>
        <time>2021-11-15T22:33:25.728Z</time>
      </trkpt>
      <trkpt lat="47.583327" lon="7.833750">
        <ele>293.355724</ele>
        <time>2021-11-15T22:33:28.855Z</time>
      </trkpt>
      <trkpt lat="47.583163" lon="7.833942">
        <ele>294.066802</ele>
        <time>2021-11-15T22:33:34.347Z</time>
      </trkpt>
      <trkpt lat="47.582828" lon="7.834117">
        <ele>295.275432</ele>
        <time>2021-11-15T22:33:42.794Z</time>
      </trkpt>
      <trkpt lat="47.580816" lon="7.834599">
        <ele>298.673977</ele>
        <time>2021-11-15T22:34:26.674Z</time>
      </trkpt>
      <trkpt lat="47.580667" lon="7.834627">
        <ele>298.685606</ele>
        <time>2021-11-15T22:34:29.056Z</time>
      </trkpt>
      <trkpt lat="47.579073" lon="7.834987">
        <ele>298.773783</ele>
        <time>2021-11-15T22:34:53.017Z</time>
      </trkpt>
      <trkpt lat="47.576219" lon="7.835650">
        <ele>295.429623</ele>
        <time>2021-11-15T22:35:26.677Z</time>
      </trkpt>
      <trkpt lat="47.575959" lon="7.835718">
        <ele>295.141837</ele>
        <time>2021-11-15T22:35:29.832Z</time>
      </trkpt>
      <trkpt lat="47.575033" lon="7.835907">
        <ele>294.699127</ele>
        <time>2021-11-15T22:35:42.285Z</time>
      </trkpt>
      <trkpt lat="47.574568" lon="7.836025">
        <ele>294.708637</ele>
        <time>2021-11-15T22:35:49.272Z</time>
      </trkpt>
      <trkpt lat="47.574158" lon="7.836106">
        <ele>294.716976</ele>
        <time>2021-11-15T22:35:55.945Z</time>
      </trkpt>
      <trkpt lat="47.573815" lon="7.836215">
        <ele>294.724047</ele>
        <time>2021-11-15T22:36:03.624Z</time>
      </trkpt>
      <trkpt lat="47.573348" lon="7.836386">
        <ele>294.943995</ele>
        <time>2021-11-15T22:36:14.476Z</time>
      </trkpt>
      <trkpt lat="47.572760" lon="7.836606">
        <ele>295.247609</ele>
        <time>2021-11-15T22:36:28.087Z</time>
      </trkpt>
      <trkpt lat="47.572296" lon="7.836777">
        <ele>295.486983</ele>
        <time>2021-11-15T22:36:38.512Z</time>
      </trkpt>
      <trkpt lat="47.572139" lon="7.836834">
        <ele>295.567908</ele>
        <time>2021-11-15T22:36:41.999Z</time>
      </trkpt>
      <trkpt lat="47.571871" lon="7.836932">
        <ele>295.789104</ele>
        <time>2021-11-15T22:36:48.036Z</time>
      </trkpt>
      <trkpt lat="47.571771" lon="7.836971">
        <ele>295.894121</ele>
        <time>2021-11-15T22:36:50.272Z</time>
      </trkpt>
      <trkpt lat="47.571254" lon="7.837161">
        <ele>296.435088</ele>
        <time>2021-11-15T22:37:02.723Z</time>
      </trkpt>
      <trkpt lat="47.570985" lon="7.837265">
        <ele>296.717427</ele>
        <time>2021-11-15T22:37:09.676Z</time>
      </trkpt>
      <trkpt lat="47.570872" lon="7.837307">
        <ele>296.835743</ele>
        <time>2021-11-15T22:37:12.692Z</time>
      </trkpt>
      <trkpt lat="47.570298" lon="7.837528">
        <ele>297.438048</ele>
        <time>2021-11-15T22:37:28.014Z</time>
      </trkpt>
      <trkpt lat="47.570038" lon="7.837643">
        <ele>297.817420</ele>
        <time>2021-11-15T22:37:35.137Z</time>
      </trkpt>
      <trkpt lat="47.569907" lon="7.837696">
        <ele>298.010081</ele>
        <time>2021-11-15T22:37:38.658Z</time>
      </trkpt>
      <trkpt lat="47.569814" lon="7.837733">
        <ele>298.146699</ele>
        <time>2021-11-15T22:37:41.220Z</time>
      </trkpt>
      <trkpt lat="47.569665" lon="7.837789">
        <ele>298.364789</ele>
        <time>2021-11-15T22:37:45.184Z</time>
      </trkpt>
      <trkpt lat="47.569522" lon="7.837844">
        <ele>298.574395</ele>
        <time>2021-11-15T22:37:49.039Z</time>
      </trkpt>
      <trkpt lat="47.569310" lon="7.837922">
        <ele>298.884306</ele>
        <time>2021-11-15T22:37:54.786Z</time>
      </trkpt>
      <trkpt lat="47.568988" lon="7.838054">
        <ele>299.358308</ele>
        <time>2021-11-15T22:38:03.563Z</time>
      </trkpt>
      <trkpt lat="47.568420" lon="7.838300">
        <ele>300.119610</ele>
        <time>2021-11-15T22:38:18.821Z</time>
      </trkpt>
      <trkpt lat="47.568160" lon="7.838415">
        <ele>300.349151</ele>
        <time>2021-11-15T22:38:25.582Z</time>
      </trkpt>
      <trkpt lat="47.568042" lon="7.838436">
        <ele>300.449694</ele>
        <time>2021-11-15T22:38:28.329Z</time>
      </trkpt>
      <trkpt lat="47.567936" lon="7.838380">
        <ele>300.544894</ele>
        <time>2021-11-15T22:38:31.144Z</time>
      </trkpt>
      <trkpt lat="47.567846" lon="7.838609">
        <ele>300.696165</ele>
        <time>2021-11-15T22:38:34.024Z</time>
      </trkpt>
      <trkpt lat="47.567823" lon="7.838648">
        <ele>300.725731</ele>
        <time>2021-11-15T22:38:34.642Z</time>
      </trkpt>
      <trkpt lat="47.567634" lon="7.839037">
        <ele>300.999349</ele>
        <time>2021-11-15T22:38:40.097Z</time>
      </trkpt>
      <trkpt lat="47.567626" lon="7.839064">
        <ele>301.016181</ele>
        <time>2021-11-15T22:38:40.489Z</time>
      </trkpt>
      <trkpt lat="47.567564" lon="7.839283">
        <ele>301.151745</ele>
        <time>2021-11-15T22:38:43.371Z</time>
      </trkpt>
      <trkpt lat="47.567530" lon="7.839459">
        <ele>301.256242</ele>
        <time>2021-11-15T22:38:45.479Z</time>
      </trkpt>
      <trkpt lat="47.567510" lon="7.839548">
        <ele>301.309787</ele>
        <time>2021-11-15T22:38:46.532Z</time>
      </trkpt>
      <trkpt lat="47.567481" lon="7.839664">
        <ele>301.380399</ele>
        <time>2021-11-15T22:38:47.781Z</time>
      </trkpt>
      <trkpt lat="47.567406" lon="7.839778">
        <ele>301.471283</ele>
        <time>2021-11-15T22:38:50.108Z</time>
      </trkpt>
      <trkpt lat="47.567111" lon="7.839998">
        <ele>301.766560</ele>
        <time>2021-11-15T22:38:56.033Z</time>
      </trkpt>
      <trkpt lat="47.566826" lon="7.840179">
        <ele>302.047400</ele>
        <time>2021-11-15T22:39:01.391Z</time>
      </trkpt>
      <trkpt lat="47.566592" lon="7.840279">
        <ele>302.267980</ele>
        <time>2021-11-15T22:39:06.060Z</time>
      </trkpt>
      <trkpt lat="47.566515" lon="7.840312">
        <ele>302.340580</ele>
        <time>2021-11-15T22:39:07.261Z</time>
      </trkpt>
      <trkpt lat="47.566450" lon="7.840326">
        <ele>302.400072</ele>
        <time>2021-11-15T22:39:08.644Z</time>
      </trkpt>
      <trkpt lat="47.566350" lon="7.840350">
        <ele>302.491827</ele>
        <time>2021-11-15T22:39:10.618Z</time>
      </trkpt>
      <trkpt lat="47.566221" lon="7.840340">
        <ele>302.608829</ele>
        <time>2021-11-15T22:39:12.810Z</time>
      </trkpt>
      <trkpt lat="47.566142" lon="7.840322">
        <ele>302.681223</ele>
        <time>2021-11-15T22:39:13.982Z</time>
      </trkpt>
      <trkpt lat="47.566081" lon="7.840309">
        <ele>302.737042</ele>
        <time>2021-11-15T22:39:15.371Z</time>
      </trkpt>
      <trkpt lat="47.565906" lon="7.840272">
        <ele>302.897153</ele>
        <time>2021-11-15T22:39:18.752Z</time>
      </trkpt>
      <trkpt lat="47.565343" lon="7.840185">
        <ele>303.483204</ele>
        <time>2021-11-15T22:39:29.552Z</time>
      </trkpt>
      <trkpt lat="47.565233" lon="7.840176">
        <ele>303.611679</ele>
        <time>2021-11-15T22:39:31.890Z</time>
      </trkpt>
      <trkpt lat="47.565168" lon="7.840179">
        <ele>303.687517</ele>
        <time>2021-11-15T22:39:33.266Z</time>
      </trkpt>
      <trkpt lat="47.565057" lon="7.840213">
        <ele>303.819699</ele>
        <time>2021-11-15T22:39:35.509Z</time>
      </trkpt>
      <trkpt lat="47.564936" lon="7.840261">
        <ele>303.965774</ele>
        <time>2021-11-15T22:39:38.225Z</time>
      </trkpt>
      <trkpt lat="47.564558" lon="7.840516">
        <ele>304.450109</ele>
        <time>2021-11-15T22:39:46.507Z</time>
      </trkpt>
      <trkpt lat="47.564534" lon="7.840532">
        <ele>304.480799</ele>
        <time>2021-11-15T22:39:47.004Z</time>
      </trkpt>
      <trkpt lat="47.564463" lon="7.840580">
        <ele>304.571806</ele>
        <time>2021-11-15T22:39:48.618Z</time>
      </trkpt>
      <trkpt lat="47.564094" lon="7.840838">
        <ele>305.047611</ele>
        <time>2021-11-15T22:39:56.288Z</time>
      </trkpt>
      <trkpt lat="47.563986" lon="7.840916">
        <ele>305.187718</ele>
        <time>2021-11-15T22:39:58.571Z</time>
      </trkpt>
      <trkpt lat="47.563941" lon="7.840948">
        <ele>305.245925</ele>
        <time>2021-11-15T22:39:59.496Z</time>
      </trkpt>
      <trkpt lat="47.563805" lon="7.841046">
        <ele>305.405721</ele>
        <time>2021-11-15T22:40:02.309Z</time>
      </trkpt>
      <trkpt lat="47.563659" lon="7.841150">
        <ele>305.576229</ele>
        <time>2021-11-15T22:40:05.194Z</time>
      </trkpt>
      <trkpt lat="47.563483" lon="7.841269">
        <ele>305.779854</ele>
        <time>2021-11-15T22:40:08.929Z</time>
      </trkpt>
      <trkpt lat="47.563300" lon="7.841391">
        <ele>305.991070</ele>
        <time>2021-11-15T22:40:12.482Z</time>
      </trkpt>
      <trkpt lat="47.563016" lon="7.841568">
        <ele>306.315364</ele>
        <time>2021-11-15T22:40:18.341Z</time>
      </trkpt>
      <trkpt lat="47.562965" lon="7.841597">
        <ele>306.372862</ele>
        <time>2021-11-15T22:40:19.317Z</time>
      </trkpt>
      <trkpt lat="47.562904" lon="7.841632">
        <ele>306.441714</ele>
        <time>2021-11-15T22:40:20.557Z</time>
      </trkpt>
      <trkpt lat="47.562574" lon="7.841873">
        <ele>306.828954</ele>
        <time>2021-11-15T22:40:27.523Z</time>
      </trkpt>
      <trkpt lat="47.562440" lon="7.842083">
        <ele>307.034238</ele>
        <time>2021-11-15T22:40:31.135Z</time>
      </trkpt>
      <trkpt lat="47.562385" lon="7.842183">
        <ele>307.125870</ele>
        <time>2021-11-15T22:40:32.698Z</time>
      </trkpt>
      <trkpt lat="47.562300" lon="7.842326">
        <ele>307.286152</ele>
        <time>2021-11-15T22:40:35.607Z</time>
      </trkpt>
      <trkpt lat="47.562179" lon="7.842500">
        <ele>307.501851</ele>
        <time>2021-11-15T22:40:39.079Z</time>
      </trkpt>
      <trkpt lat="47.561498" lon="7.843130">
        <ele>308.528898</ele>
        <time>2021-11-15T22:40:55.787Z</time>
      </trkpt>
      <trkpt lat="47.561434" lon="7.843181">
        <ele>308.621862</ele>
        <time>2021-11-15T22:40:57.590Z</time>
      </trkpt>
      <trkpt lat="47.561038" lon="7.843502">
        <ele>309.199316</ele>
        <time>2021-11-15T22:41:06.291Z</time>
      </trkpt>
      <trkpt lat="47.560934" lon="7.843550">
        <ele>309.338670</ele>
        <time>2021-11-15T22:41:08.445Z</time>
      </trkpt>
      <trkpt lat="47.560812" lon="7.843560">
        <ele>309.459119</ele>
        <time>2021-11-15T22:41:10.689Z</time>
      </trkpt>
      <trkpt lat="47.560515" lon="7.843379">
        <ele>309.565587</ele>
        <time>2021-11-15T22:41:16.426Z</time>
      </trkpt>
      <trkpt lat="47.560430" lon="7.843341">
        <ele>309.595022</ele>
        <time>2021-11-15T22:41:18.228Z</time>
      </trkpt>
      <trkpt lat="47.560338" lon="7.843341">
        <ele>309.625524</ele>
        <time>2021-11-15T22:41:19.450Z</time>
      </trkpt>
      <trkpt lat="47.560209" lon="7.843393">
        <ele>309.669846</ele>
        <time>2021-11-15T22:41:21.926Z</time>
      </trkpt>
      <trkpt lat="47.560139" lon="7.843433">
        <ele>309.694719</ele>
        <time>2021-11-15T22:41:23.245Z</time>
      </trkpt>
      <trkpt lat="47.559847" lon="7.843604">
        <ele>309.798814</ele>
        <time>2021-11-15T22:41:28.407Z</time>
      </trkpt>
      <trkpt lat="47.559583" lon="7.843813">
        <ele>309.898047</ele>
        <time>2021-11-15T22:41:32.896Z</time>
      </trkpt>
      <trkpt lat="47.559158" lon="7.844233">
        <ele>310.032757</ele>
        <time>2021-11-15T22:41:40.109Z</time>
      </trkpt>
      <trkpt lat="47.559109" lon="7.844229">
        <ele>310.026032</ele>
        <time>2021-11-15T22:41:40.698Z</time>
      </trkpt>
      <trkpt lat="47.559060" lon="7.844197">
        <ele>310.018695</ele>
        <time>2021-11-15T22:41:41.328Z</time>
      </trkpt>
      <trkpt lat="47.558884" lon="7.843836">
        <ele>309.977514</ele>
        <time>2021-11-15T22:41:45.486Z</time>
      </trkpt>
      <trkpt lat="47.558869" lon="7.843816">
        <ele>309.974749</ele>
        <time>2021-11-15T22:41:45.724Z</time>
      </trkpt>
      <trkpt lat="47.558555" lon="7.843392">
        <ele>309.916539</ele>
        <time>2021-11-15T22:41:51.529Z</time>
      </trkpt>
      <trkpt lat="47.558471" lon="7.843365">
        <ele>309.904762</ele>
        <time>2021-11-15T22:41:52.788Z</time>
      </trkpt>
      <trkpt lat="47.558405" lon="7.843371">
        <ele>309.895701</ele>
        <time>2021-11-15T22:41:53.959Z</time>
      </trkpt>
      <trkpt lat="47.558136" lon="7.843582">
        <ele>309.853996</ele>
        <time>2021-11-15T22:41:58.165Z</time>
      </trkpt>
      <trkpt lat="47.557967" lon="7.843683">
        <ele>309.829027</ele>
        <time>2021-11-15T22:42:00.886Z</time>
      </trkpt>
      <trkpt lat="47.557846" lon="7.843756">
        <ele>309.811125</ele>
        <time>2021-11-15T22:42:02.727Z</time>
      </trkpt>
      <trkpt lat="47.557759" lon="7.843839">
        <ele>309.796947</ele>
        <time>2021-11-15T22:42:04.506Z</time>
      </trkpt>
      <trkpt lat="47.557715" lon="7.843940">
        <ele>309.833212</ele>
        <time>2021-11-15T22:42:05.737Z</time>
      </trkpt>
      <trkpt lat="47.557560" lon="7.844433">
        <ele>310.007681</ele>
        <time>2021-11-15T22:42:11.696Z</time>
      </trkpt>
      <trkpt lat="47.557282" lon="7.844832">
        <ele>310.191652</ele>
        <time>2021-11-15T22:42:18.132Z</time>
      </trkpt>
      <trkpt lat="47.557134" lon="7.845095">
        <ele>310.301502</ele>
        <time>2021-11-15T22:42:21.907Z</time>
      </trkpt>
      <trkpt lat="47.556636" lon="7.845928">
        <ele>310.666960</ele>
        <time>2021-11-15T22:42:34.758Z</time>
      </trkpt>
      <trkpt lat="47.556060" lon="7.846859">
        <ele>311.556326</ele>
        <time>2021-11-15T22:42:50.885Z</time>
      </trkpt>
      <trkpt lat="47.555990" lon="7.846965">
        <ele>311.660757</ele>
        <time>2021-11-15T22:42:52.869Z</time>
      </trkpt>
      <trkpt lat="47.555966" lon="7.846932">
        <ele>311.694919</ele>
        <time>2021-11-15T22:42:53.457Z</time>
      </trkpt>
      <trkpt lat="47.555892" lon="7.846856">
        <ele>311.788864</ele>
        <time>2021-11-15T22:42:55.012Z</time>
      </trkpt>
      <trkpt lat="47.555855" lon="7.846815">
        <ele>311.837071</ele>
        <time>2021-11-15T22:42:55.922Z</time>
      </trkpt>
      <trkpt lat="47.555727" lon="7.846715">
        <ele>311.988053</ele>
        <time>2021-11-15T22:42:58.926Z</time>
      </trkpt>
      <trkpt lat="47.555199" lon="7.846687">
        <ele>312.543047</ele>
        <time>2021-11-15T22:43:08.892Z</time>
      </trkpt>
      <trkpt lat="47.555068" lon="7.846672">
        <ele>312.725722</ele>
        <time>2021-11-15T22:43:11.755Z</time>
      </trkpt>
      <trkpt lat="47.554995" lon="7.846915">
        <ele>312.975297</ele>
        <time>2021-11-15T22:43:15.478Z</time>
      </trkpt>
      <trkpt lat="47.554892" lon="7.847148">
        <ele>313.236647</ele>
        <time>2021-11-15T22:43:19.449Z</time>
      </trkpt>
      <trkpt lat="47.554759" lon="7.847388">
        <ele>313.528031</ele>
        <time>2021-11-15T22:43:23.769Z</time>
      </trkpt>
      <trkpt lat="47.554618" lon="7.847626">
        <ele>313.825184</ele>
        <time>2021-11-15T22:43:28.328Z</time>
      </trkpt>
      <trkpt lat="47.554465" lon="7.847858">
        <ele>314.129547</ele>
        <time>2021-11-15T22:43:32.964Z</time>
      </trkpt>
      <trkpt lat="47.554351" lon="7.848049">
        <ele>314.368796</ele>
        <time>2021-11-15T22:43:36.258Z</time>
      </trkpt>
      <trkpt lat="47.554269" lon="7.848188">
        <ele>314.542025</ele>
        <time>2021-11-15T22:43:38.749Z</time>
      </trkpt>
      <trkpt lat="47.554209" lon="7.848300">
        <ele>314.676200</ele>
        <time>2021-11-15T22:43:40.889Z</time>
      </trkpt>
      <trkpt lat="47.554055" lon="7.848586">
        <ele>315.019506</ele>
        <time>2021-11-15T22:43:45.688Z</time>
      </trkpt>
      <trkpt lat="47.553725" lon="7.849291">
        <ele>315.962129</ele>
        <time>2021-11-15T22:43:57.113Z</time>
      </trkpt>
      <trkpt lat="47.553605" lon="7.849629">
        <ele>316.382444</ele>
        <time>2021-11-15T22:44:02.633Z</time>
      </trkpt>
      <trkpt lat="47.553537" lon="7.849904">
        <ele>316.704769</ele>
        <time>2021-11-15T22:44:06.706Z</time>
      </trkpt>
      <trkpt lat="47.553380" lon="7.850453">
        <ele>317.360975</ele>
        <time>2021-11-15T22:44:15.675Z</time>
      </trkpt>
      <trkpt lat="47.553344" lon="7.850525">
        <ele>317.459591</ele>
        <time>2021-11-15T22:44:17.187Z</time>
      </trkpt>
      <trkpt lat="47.553283" lon="7.850634">
        <ele>317.615428</ele>
        <time>2021-11-15T22:44:19.177Z</time>
      </trkpt>
      <trkpt lat="47.553119" lon="7.850903">
        <ele>318.050689</ele>
        <time>2021-11-15T22:44:24.352Z</time>
      </trkpt>
      <trkpt lat="47.552876" lon="7.851300">
        <ele>319.047992</ele>
        <time>2021-11-15T22:44:32.962Z</time>
      </trkpt>
      <trkpt lat="47.552678" lon="7.851709">
        <ele>319.984608</ele>
        <time>2021-11-15T22:44:41.157Z</time>
      </trkpt>
      <trkpt lat="47.552655" lon="7.851760">
        <ele>320.098747</ele>
        <time>2021-11-15T22:44:42.109Z</time>
      </trkpt>
      <trkpt lat="47.552449" lon="7.852231">
        <ele>321.143136</ele>
        <time>2021-11-15T22:44:52.114Z</time>
      </trkpt>
      <trkpt lat="47.552272" lon="7.852167">
        <ele>321.645468</ele>
        <time>2021-11-15T22:44:57.691Z</time>
      </trkpt>
      <trkpt lat="47.552097" lon="7.852063">
        <ele>322.165330</ele>
        <time>2021-11-15T22:45:02.401Z</time>
      </trkpt>
      <trkpt lat="47.552042" lon="7.852007">
        <ele>322.349325</ele>
        <time>2021-11-15T22:45:05.085Z</time>
      </trkpt>
      <trkpt lat="47.551925" lon="7.851845">
        <ele>322.790841</ele>
        <time>2021-11-15T22:45:09.300Z</time>
      </trkpt>
      <trkpt lat="47.551830" lon="7.851603">
        <ele>323.344737</ele>
        <time>2021-11-15T22:45:14.873Z</time>
      </trkpt>
      <trkpt lat="47.551660" lon="7.851725">
        <ele>323.909418</ele>
        <time>2021-11-15T22:45:20.080Z</time>
      </trkpt>
      <trkpt lat="47.551774" lon="7.851843">
        <ele>324.325142</ele>
        <time>2021-11-15T22:45:29.756Z</time>
      </trkpt>
      <trkpt lat="47.551774" lon="7.851843">
        <ele>324.325142</ele>
        <time>2021-11-15T22:45:29.779Z</time>
      </trkpt>
      <trkpt lat="47.551516" lon="7.851950">
        <ele>325.126064</ele>
        <time>2021-11-15T22:45:34.750Z</time>
      </trkpt>
      <trkpt lat="47.551516" lon="7.851950">
        <ele>325.126064</ele>
        <time>2021-11-15T22:45:34.854Z</time>
      </trkpt>
      <trkpt lat="47.550221" lon="7.853833">
        <ele>329.441587</ele>
        <time>2021-11-15T22:46:21.139Z</time>
      </trkpt>
      <trkpt lat="47.549883" lon="7.854434">
        <ele>330.243093</ele>
        <time>2021-11-15T22:46:31.260Z</time>
      </trkpt>
      <trkpt lat="47.549566" lon="7.855225">
        <ele>331.027377</ele>
        <time>2021-11-15T22:46:45.119Z</time>
      </trkpt>
      <trkpt lat="47.549362" lon="7.855774">
        <ele>331.024115</ele>
        <time>2021-11-15T22:46:53.607Z</time>
      </trkpt>
      <trkpt lat="47.548887" lon="7.857308">
        <ele>331.015329</ele>
        <time>2021-11-15T22:47:15.715Z</time>
      </trkpt>
      <trkpt lat="47.548743" lon="7.857692">
        <ele>331.114640</ele>
        <time>2021-11-15T22:47:21.687Z</time>
      </trkpt>
      <trkpt lat="47.548701" lon="7.857893">
        <ele>331.201682</ele>
        <time>2021-11-15T22:47:24.658Z</time>
      </trkpt>
      <trkpt lat="47.548686" lon="7.857973">
        <ele>331.236028</ele>
        <time>2021-11-15T22:47:25.782Z</time>
      </trkpt>
      <trkpt lat="47.548611" lon="7.858381">
        <ele>331.410954</ele>
        <time>2021-11-15T22:47:31.996Z</time>
      </trkpt>
      <trkpt lat="47.548334" lon="7.859801">
        <ele>332.022410</ele>
        <time>2021-11-15T22:47:55.033Z</time>
      </trkpt>
      <trkpt lat="47.548049" lon="7.860929">
        <ele>333.184106</ele>
        <time>2021-11-15T22:48:16.051Z</time>
      </trkpt>
      <trkpt lat="47.547930" lon="7.861711">
        <ele>334.060300</ele>
        <time>2021-11-15T22:48:30.815Z</time>
      </trkpt>
      <trkpt lat="47.547568" lon="7.863151">
        <ele>335.453558</ele>
        <time>2021-11-15T22:48:59.943Z</time>
      </trkpt>
      <trkpt lat="47.547320" lon="7.863864">
        <ele>335.977017</ele>
        <time>2021-11-15T22:49:13.883Z</time>
      </trkpt>
      <trkpt lat="47.546974" lon="7.864423">
        <ele>336.471992</ele>
        <time>2021-11-15T22:49:24.706Z</time>
      </trkpt>
      <trkpt lat="47.546885" lon="7.864500">
        <ele>336.571641</ele>
        <time>2021-11-15T22:49:27.791Z</time>
      </trkpt>
      <trkpt lat="47.546894" lon="7.864837">
        <ele>336.749081</ele>
        <time>2021-11-15T22:49:31.675Z</time>
      </trkpt>
      <trkpt lat="47.546889" lon="7.865225">
        <ele>336.540838</ele>
        <time>2021-11-15T22:49:37.100Z</time>
      </trkpt>
      <trkpt lat="47.546819" lon="7.865489">
        <ele>336.388635</ele>
        <time>2021-11-15T22:49:41.045Z</time>
      </trkpt>
      <trkpt lat="47.546510" lon="7.865766">
        <ele>336.101512</ele>
        <time>2021-11-15T22:49:47.679Z</time>
      </trkpt>
      <trkpt lat="47.546327" lon="7.865959">
        <ele>335.922930</ele>
        <time>2021-11-15T22:49:51.194Z</time>
      </trkpt>
      <trkpt lat="47.546096" lon="7.866147">
        <ele>335.713401</ele>
        <time>2021-11-15T22:49:55.750Z</time>
      </trkpt>
      <trkpt lat="47.545240" lon="7.866887">
        <ele>335.501171</ele>
        <time>2021-11-15T22:50:12.423Z</time>
      </trkpt>
      <trkpt lat="47.545160" lon="7.866985">
        <ele>335.533697</ele>
        <time>2021-11-15T22:50:14.379Z</time>
      </trkpt>
      <trkpt lat="47.545003" lon="7.867278">
        <ele>335.612819</ele>
        <time>2021-11-15T22:50:20.047Z</time>
      </trkpt>
      <trkpt lat="47.544568" lon="7.867693">
        <ele>335.774937</ele>
        <time>2021-11-15T22:50:32.838Z</time>
      </trkpt>
      <trkpt lat="47.544469" lon="7.867776">
        <ele>335.810580</ele>
        <time>2021-11-15T22:50:35.700Z</time>
      </trkpt>
      <trkpt lat="47.544410" lon="7.867825">
        <ele>335.831773</ele>
        <time>2021-11-15T22:50:37.789Z</time>
      </trkpt>
      <trkpt lat="47.544246" lon="7.867967">
        <ele>335.891293</ele>
        <time>2021-11-15T22:50:42.472Z</time>
      </trkpt>
      <trkpt lat="47.544214" lon="7.867988">
        <ele>335.903213</ele>
        <time>2021-11-15T22:50:43.320Z</time>
      </trkpt>
      <trkpt lat="47.543801" lon="7.868269">
        <ele>336.566720</ele>
        <time>2021-11-15T22:50:54.923Z</time>
      </trkpt>
      <trkpt lat="47.543657" lon="7.868359">
        <ele>336.794895</ele>
        <time>2021-11-15T22:50:59.273Z</time>
      </trkpt>
      <trkpt lat="47.543201" lon="7.868657">
        <ele>337.522527</ele>
        <time>2021-11-15T22:51:09.473Z</time>
      </trkpt>
      <trkpt lat="47.543105" lon="7.868711">
        <ele>337.672445</ele>
        <time>2021-11-15T22:51:12.057Z</time>
      </trkpt>
      <trkpt lat="47.543049" lon="7.868759">
        <ele>337.766900</ele>
        <time>2021-11-15T22:51:13.434Z</time>
      </trkpt>
      <trkpt lat="47.542722" lon="7.869201">
        <ele>338.413164</ele>
        <time>2021-11-15T22:51:23.266Z</time>
      </trkpt>
      <trkpt lat="47.542696" lon="7.869257">
        <ele>338.480146</ele>
        <time>2021-11-15T22:51:24.096Z</time>
      </trkpt>
      <trkpt lat="47.542657" lon="7.869354">
        <ele>338.527910</ele>
        <time>2021-11-15T22:51:25.531Z</time>
      </trkpt>
      <trkpt lat="47.542372" lon="7.869746">
        <ele>338.527910</ele>
        <time>2021-11-15T22:51:32.733Z</time>
      </trkpt>
      <trkpt lat="47.542329" lon="7.869820">
        <ele>338.527910</ele>
        <time>2021-11-15T22:51:33.932Z</time>
      </trkpt>
      <trkpt lat="47.542348" lon="7.869983">
        <ele>338.527910</ele>
        <time>2021-11-15T22:51:35.509Z</time>
      </trkpt>
      <trkpt lat="47.542317" lon="7.870012">
        <ele>338.527910</ele>
        <time>2021-11-15T22:51:36.203Z</time>
      </trkpt>
      <trkpt lat="47.542181" lon="7.870131">
        <ele>338.527910</ele>
        <time>2021-11-15T22:51:38.830Z</time>
      </trkpt>
      <trkpt lat="47.542118" lon="7.870135">
        <ele>338.527910</ele>
        <time>2021-11-15T22:51:39.850Z</time>
      </trkpt>
      <trkpt lat="47.542014" lon="7.870126">
        <ele>338.527910</ele>
        <time>2021-11-15T22:51:41.235Z</time>
      </trkpt>
      <trkpt lat="47.541910" lon="7.870106">
        <ele>338.527910</ele>
        <time>2021-11-15T22:51:42.874Z</time>
      </trkpt>
      <trkpt lat="47.541606" lon="7.870424">
        <ele>338.527910</ele>
        <time>2021-11-15T22:51:48.253Z</time>
      </trkpt>
      <trkpt lat="47.541521" lon="7.870517">
        <ele>338.527910</ele>
        <time>2021-11-15T22:51:49.756Z</time>
      </trkpt>
      <trkpt lat="47.541550" lon="7.870601">
        <ele>338.527910</ele>
        <time>2021-11-15T22:51:50.628Z</time>
      </trkpt>
      <trkpt lat="47.541576" lon="7.870664">
        <ele>338.527910</ele>
        <time>2021-11-15T22:51:51.309Z</time>
      </trkpt>
      <trkpt lat="47.541468" lon="7.870746">
        <ele>338.527910</ele>
        <time>2021-11-15T22:51:53.437Z</time>
      </trkpt>
      <trkpt lat="47.541410" lon="7.870791">
        <ele>338.527910</ele>
        <time>2021-11-15T22:51:54.512Z</time>
      </trkpt>
      <trkpt lat="47.541239" lon="7.870933">
        <ele>338.527910</ele>
        <time>2021-11-15T22:51:57.264Z</time>
      </trkpt>
    </trkseg>
  </trk>
</gpx>